<?xml version="1.0" encoding="UTF-8" standalone="no" ?>
<gpx xmlns="http://www.topografix.com/GPX/1/1" xmlns:xsi="http://www.w3.org/2001/XMLSchema-instance" xsi:schemaLocation="http://www.topografix.com/GPX/1/1 http://www.topografix.com/GPX/1/1/gpx.xsd" version="1.1" creator="VisuGPX - https://www.visugpx.com">
  <metadata>
    <name>11611460-Verdun J2</name>
  </metadata>
  <trk>
    <name><![CDATA[11611460-Verdun J2]]></name>
    <trkseg>
      <trkpt lat="43.84713" lon="6.22079">
        <ele>620</ele>
        <time>2020-07-04T20:56:42Z</time>
      </trkpt>
      <trkpt lat="43.84712" lon="6.22109">
        <ele>626</ele>
        <time>2020-07-04T20:56:46Z</time>
      </trkpt>
      <trkpt lat="43.84707" lon="6.22128">
        <ele>629</ele>
        <time>2020-07-04T20:56:48Z</time>
      </trkpt>
      <trkpt lat="43.84701" lon="6.2214">
        <ele>631</ele>
        <time>2020-07-04T20:56:50Z</time>
      </trkpt>
      <trkpt lat="43.84696" lon="6.22146">
        <ele>632</ele>
        <time>2020-07-04T20:56:51Z</time>
      </trkpt>
      <trkpt lat="43.84684" lon="6.22159">
        <ele>634</ele>
        <time>2020-07-04T20:56:54Z</time>
      </trkpt>
      <trkpt lat="43.8468" lon="6.22161">
        <ele>634</ele>
        <time>2020-07-04T20:56:55Z</time>
      </trkpt>
      <trkpt lat="43.84676" lon="6.22161">
        <ele>634</ele>
        <time>2020-07-04T20:56:56Z</time>
      </trkpt>
      <trkpt lat="43.84661" lon="6.22154">
        <ele>631</ele>
        <time>2020-07-04T20:56:58Z</time>
      </trkpt>
      <trkpt lat="43.8465" lon="6.22144">
        <ele>629</ele>
        <time>2020-07-04T20:57:01Z</time>
      </trkpt>
      <trkpt lat="43.84637" lon="6.22135">
        <ele>626</ele>
        <time>2020-07-04T20:57:03Z</time>
      </trkpt>
      <trkpt lat="43.84627" lon="6.22131">
        <ele>625</ele>
        <time>2020-07-04T20:57:05Z</time>
      </trkpt>
      <trkpt lat="43.84618" lon="6.22133">
        <ele>626</ele>
        <time>2020-07-04T20:57:07Z</time>
      </trkpt>
      <trkpt lat="43.84614" lon="6.22136">
        <ele>627</ele>
        <time>2020-07-04T20:57:08Z</time>
      </trkpt>
      <trkpt lat="43.84612" lon="6.22137">
        <ele>627</ele>
        <time>2020-07-04T20:57:08Z</time>
      </trkpt>
      <trkpt lat="43.84603" lon="6.22135">
        <ele>627</ele>
        <time>2020-07-04T20:57:10Z</time>
      </trkpt>
      <trkpt lat="43.84575" lon="6.22122">
        <ele>623</ele>
        <time>2020-07-04T20:57:15Z</time>
      </trkpt>
      <trkpt lat="43.84563" lon="6.22121">
        <ele>622</ele>
        <time>2020-07-04T20:57:17Z</time>
      </trkpt>
      <trkpt lat="43.84546" lon="6.2212">
        <ele>622</ele>
        <time>2020-07-04T20:57:20Z</time>
      </trkpt>
      <trkpt lat="43.84526" lon="6.2212">
        <ele>621</ele>
        <time>2020-07-04T20:57:24Z</time>
      </trkpt>
      <trkpt lat="43.84496" lon="6.22121">
        <ele>620</ele>
        <time>2020-07-04T20:57:29Z</time>
      </trkpt>
      <trkpt lat="43.84406" lon="6.22123">
        <ele>615</ele>
        <time>2020-07-04T20:57:45Z</time>
      </trkpt>
      <trkpt lat="43.84396" lon="6.22127">
        <ele>615</ele>
        <time>2020-07-04T20:57:47Z</time>
      </trkpt>
      <trkpt lat="43.84387" lon="6.22133">
        <ele>616</ele>
        <time>2020-07-04T20:57:49Z</time>
      </trkpt>
      <trkpt lat="43.8438" lon="6.22141">
        <ele>618</ele>
        <time>2020-07-04T20:57:50Z</time>
      </trkpt>
      <trkpt lat="43.84372" lon="6.22148">
        <ele>619</ele>
        <time>2020-07-04T20:57:52Z</time>
      </trkpt>
      <trkpt lat="43.84355" lon="6.22155">
        <ele>620</ele>
        <time>2020-07-04T20:57:55Z</time>
      </trkpt>
      <trkpt lat="43.8435" lon="6.22157">
        <ele>620</ele>
        <time>2020-07-04T20:57:56Z</time>
      </trkpt>
      <trkpt lat="43.84335" lon="6.22159">
        <ele>621</ele>
        <time>2020-07-04T20:57:59Z</time>
      </trkpt>
      <trkpt lat="43.84322" lon="6.22159">
        <ele>620</ele>
        <time>2020-07-04T20:58:01Z</time>
      </trkpt>
      <trkpt lat="43.84312" lon="6.22158">
        <ele>619</ele>
        <time>2020-07-04T20:58:03Z</time>
      </trkpt>
      <trkpt lat="43.84302" lon="6.22153">
        <ele>618</ele>
        <time>2020-07-04T20:58:05Z</time>
      </trkpt>
      <trkpt lat="43.84296" lon="6.22148">
        <ele>617</ele>
        <time>2020-07-04T20:58:06Z</time>
      </trkpt>
      <trkpt lat="43.84285" lon="6.22131">
        <ele>614</ele>
        <time>2020-07-04T20:58:09Z</time>
      </trkpt>
      <trkpt lat="43.84274" lon="6.22119">
        <ele>612</ele>
        <time>2020-07-04T20:58:11Z</time>
      </trkpt>
      <trkpt lat="43.84268" lon="6.22112">
        <ele>611</ele>
        <time>2020-07-04T20:58:13Z</time>
      </trkpt>
      <trkpt lat="43.84262" lon="6.22108">
        <ele>610</ele>
        <time>2020-07-04T20:58:14Z</time>
      </trkpt>
      <trkpt lat="43.84244" lon="6.22103">
        <ele>608</ele>
        <time>2020-07-04T20:58:17Z</time>
      </trkpt>
      <trkpt lat="43.84226" lon="6.22105">
        <ele>607</ele>
        <time>2020-07-04T20:58:20Z</time>
      </trkpt>
      <trkpt lat="43.84199" lon="6.22114">
        <ele>606</ele>
        <time>2020-07-04T20:58:25Z</time>
      </trkpt>
      <trkpt lat="43.84194" lon="6.22116">
        <ele>606</ele>
        <time>2020-07-04T20:58:26Z</time>
      </trkpt>
      <trkpt lat="43.84185" lon="6.22121">
        <ele>606</ele>
        <time>2020-07-04T20:58:28Z</time>
      </trkpt>
      <trkpt lat="43.84181" lon="6.22123">
        <ele>605</ele>
        <time>2020-07-04T20:58:29Z</time>
      </trkpt>
      <trkpt lat="43.84173" lon="6.22129">
        <ele>606</ele>
        <time>2020-07-04T20:58:30Z</time>
      </trkpt>
      <trkpt lat="43.84159" lon="6.22144">
        <ele>607</ele>
        <time>2020-07-04T20:58:34Z</time>
      </trkpt>
      <trkpt lat="43.84154" lon="6.22148">
        <ele>607</ele>
        <time>2020-07-04T20:58:35Z</time>
      </trkpt>
      <trkpt lat="43.84147" lon="6.22144">
        <ele>605</ele>
        <time>2020-07-04T20:58:36Z</time>
      </trkpt>
      <trkpt lat="43.84142" lon="6.2214">
        <ele>604</ele>
        <time>2020-07-04T20:58:37Z</time>
      </trkpt>
      <trkpt lat="43.84138" lon="6.22135">
        <ele>603</ele>
        <time>2020-07-04T20:58:38Z</time>
      </trkpt>
      <trkpt lat="43.84135" lon="6.22129">
        <ele>601</ele>
        <time>2020-07-04T20:58:39Z</time>
      </trkpt>
      <trkpt lat="43.84135" lon="6.22124">
        <ele>601</ele>
        <time>2020-07-04T20:58:39Z</time>
      </trkpt>
      <trkpt lat="43.84133" lon="6.2212">
        <ele>600</ele>
        <time>2020-07-04T20:58:40Z</time>
      </trkpt>
      <trkpt lat="43.84131" lon="6.22117">
        <ele>599</ele>
        <time>2020-07-04T20:58:41Z</time>
      </trkpt>
      <trkpt lat="43.84126" lon="6.22114">
        <ele>598</ele>
        <time>2020-07-04T20:58:42Z</time>
      </trkpt>
      <trkpt lat="43.84123" lon="6.22114">
        <ele>598</ele>
        <time>2020-07-04T20:58:42Z</time>
      </trkpt>
      <trkpt lat="43.84119" lon="6.22116">
        <ele>598</ele>
        <time>2020-07-04T20:58:43Z</time>
      </trkpt>
      <trkpt lat="43.84117" lon="6.22119">
        <ele>598</ele>
        <time>2020-07-04T20:58:43Z</time>
      </trkpt>
      <trkpt lat="43.84115" lon="6.22123">
        <ele>598</ele>
        <time>2020-07-04T20:58:44Z</time>
      </trkpt>
      <trkpt lat="43.84104" lon="6.22134">
        <ele>599</ele>
        <time>2020-07-04T20:58:46Z</time>
      </trkpt>
      <trkpt lat="43.84102" lon="6.22136">
        <ele>599</ele>
        <time>2020-07-04T20:58:47Z</time>
      </trkpt>
      <trkpt lat="43.84095" lon="6.22143">
        <ele>599</ele>
        <time>2020-07-04T20:58:48Z</time>
      </trkpt>
      <trkpt lat="43.84048" lon="6.22183">
        <ele>599</ele>
        <time>2020-07-04T20:58:58Z</time>
      </trkpt>
      <trkpt lat="43.84039" lon="6.22189">
        <ele>599</ele>
        <time>2020-07-04T20:59:00Z</time>
      </trkpt>
      <trkpt lat="43.8403" lon="6.22192">
        <ele>598</ele>
        <time>2020-07-04T20:59:02Z</time>
      </trkpt>
      <trkpt lat="43.84012" lon="6.22195">
        <ele>596</ele>
        <time>2020-07-04T20:59:05Z</time>
      </trkpt>
      <trkpt lat="43.8399" lon="6.22198">
        <ele>596</ele>
        <time>2020-07-04T20:59:09Z</time>
      </trkpt>
      <trkpt lat="43.83981" lon="6.22199">
        <ele>597</ele>
        <time>2020-07-04T20:59:10Z</time>
      </trkpt>
      <trkpt lat="43.83971" lon="6.22197">
        <ele>597</ele>
        <time>2020-07-04T20:59:12Z</time>
      </trkpt>
      <trkpt lat="43.83967" lon="6.22195">
        <ele>597</ele>
        <time>2020-07-04T20:59:13Z</time>
      </trkpt>
      <trkpt lat="43.83961" lon="6.22193">
        <ele>597</ele>
        <time>2020-07-04T20:59:14Z</time>
      </trkpt>
      <trkpt lat="43.83951" lon="6.22187">
        <ele>597</ele>
        <time>2020-07-04T20:59:16Z</time>
      </trkpt>
      <trkpt lat="43.83942" lon="6.22178">
        <ele>596</ele>
        <time>2020-07-04T20:59:18Z</time>
      </trkpt>
      <trkpt lat="43.83936" lon="6.2217">
        <ele>595</ele>
        <time>2020-07-04T20:59:19Z</time>
      </trkpt>
      <trkpt lat="43.83919" lon="6.22145">
        <ele>593</ele>
        <time>2020-07-04T20:59:24Z</time>
      </trkpt>
      <trkpt lat="43.83909" lon="6.22134">
        <ele>591</ele>
        <time>2020-07-04T20:59:26Z</time>
      </trkpt>
      <trkpt lat="43.83901" lon="6.22126">
        <ele>589</ele>
        <time>2020-07-04T20:59:28Z</time>
      </trkpt>
      <trkpt lat="43.83887" lon="6.22122">
        <ele>588</ele>
        <time>2020-07-04T20:59:30Z</time>
      </trkpt>
      <trkpt lat="43.83879" lon="6.22122">
        <ele>587</ele>
        <time>2020-07-04T20:59:32Z</time>
      </trkpt>
      <trkpt lat="43.83865" lon="6.22128">
        <ele>587</ele>
        <time>2020-07-04T20:59:34Z</time>
      </trkpt>
      <trkpt lat="43.83854" lon="6.22141">
        <ele>587</ele>
        <time>2020-07-04T20:59:37Z</time>
      </trkpt>
      <trkpt lat="43.83843" lon="6.22166">
        <ele>589</ele>
        <time>2020-07-04T20:59:41Z</time>
      </trkpt>
      <trkpt lat="43.83837" lon="6.22174">
        <ele>590</ele>
        <time>2020-07-04T20:59:42Z</time>
      </trkpt>
      <trkpt lat="43.8383" lon="6.22178">
        <ele>590</ele>
        <time>2020-07-04T20:59:44Z</time>
      </trkpt>
      <trkpt lat="43.83822" lon="6.22178">
        <ele>591</ele>
        <time>2020-07-04T20:59:45Z</time>
      </trkpt>
      <trkpt lat="43.83815" lon="6.22176">
        <ele>591</ele>
        <time>2020-07-04T20:59:46Z</time>
      </trkpt>
      <trkpt lat="43.83811" lon="6.22171">
        <ele>591</ele>
        <time>2020-07-04T20:59:47Z</time>
      </trkpt>
      <trkpt lat="43.83805" lon="6.22162">
        <ele>590</ele>
        <time>2020-07-04T20:59:49Z</time>
      </trkpt>
      <trkpt lat="43.83798" lon="6.22143">
        <ele>587</ele>
        <time>2020-07-04T20:59:52Z</time>
      </trkpt>
      <trkpt lat="43.83793" lon="6.22136">
        <ele>586</ele>
        <time>2020-07-04T20:59:53Z</time>
      </trkpt>
      <trkpt lat="43.8378" lon="6.22125">
        <ele>585</ele>
        <time>2020-07-04T20:59:56Z</time>
      </trkpt>
      <trkpt lat="43.83755" lon="6.22108">
        <ele>581</ele>
        <time>2020-07-04T21:00:01Z</time>
      </trkpt>
      <trkpt lat="43.83746" lon="6.22103">
        <ele>580</ele>
        <time>2020-07-04T21:00:02Z</time>
      </trkpt>
      <trkpt lat="43.83742" lon="6.22101">
        <ele>579</ele>
        <time>2020-07-04T21:00:03Z</time>
      </trkpt>
      <trkpt lat="43.83737" lon="6.22099">
        <ele>578</ele>
        <time>2020-07-04T21:00:04Z</time>
      </trkpt>
      <trkpt lat="43.83659" lon="6.22071">
        <ele>569</ele>
        <time>2020-07-04T21:00:18Z</time>
      </trkpt>
      <trkpt lat="43.83634" lon="6.22067">
        <ele>567</ele>
        <time>2020-07-04T21:00:23Z</time>
      </trkpt>
      <trkpt lat="43.83618" lon="6.2207">
        <ele>566</ele>
        <time>2020-07-04T21:00:26Z</time>
      </trkpt>
      <trkpt lat="43.83587" lon="6.22087">
        <ele>566</ele>
        <time>2020-07-04T21:00:32Z</time>
      </trkpt>
      <trkpt lat="43.83576" lon="6.22089">
        <ele>565</ele>
        <time>2020-07-04T21:00:34Z</time>
      </trkpt>
      <trkpt lat="43.83547" lon="6.22091">
        <ele>560</ele>
        <time>2020-07-04T21:00:39Z</time>
      </trkpt>
      <trkpt lat="43.8354" lon="6.22094">
        <ele>559</ele>
        <time>2020-07-04T21:00:40Z</time>
      </trkpt>
      <trkpt lat="43.83534" lon="6.22101">
        <ele>559</ele>
        <time>2020-07-04T21:00:41Z</time>
      </trkpt>
      <trkpt lat="43.83512" lon="6.22131">
        <ele>558</ele>
        <time>2020-07-04T21:00:47Z</time>
      </trkpt>
      <trkpt lat="43.83508" lon="6.22142">
        <ele>558</ele>
        <time>2020-07-04T21:00:48Z</time>
      </trkpt>
      <trkpt lat="43.83503" lon="6.22167">
        <ele>559</ele>
        <time>2020-07-04T21:00:52Z</time>
      </trkpt>
      <trkpt lat="43.83499" lon="6.22177">
        <ele>559</ele>
        <time>2020-07-04T21:00:53Z</time>
      </trkpt>
      <trkpt lat="43.83494" lon="6.22184">
        <ele>559</ele>
        <time>2020-07-04T21:00:55Z</time>
      </trkpt>
      <trkpt lat="43.83479" lon="6.22191">
        <ele>557</ele>
        <time>2020-07-04T21:00:57Z</time>
      </trkpt>
      <trkpt lat="43.83456" lon="6.22195">
        <ele>553</ele>
        <time>2020-07-04T21:01:01Z</time>
      </trkpt>
      <trkpt lat="43.8345" lon="6.22198">
        <ele>552</ele>
        <time>2020-07-04T21:01:03Z</time>
      </trkpt>
      <trkpt lat="43.83435" lon="6.22211">
        <ele>551</ele>
        <time>2020-07-04T21:01:06Z</time>
      </trkpt>
      <trkpt lat="43.8342" lon="6.2223">
        <ele>549</ele>
        <time>2020-07-04T21:01:09Z</time>
      </trkpt>
      <trkpt lat="43.83415" lon="6.22232">
        <ele>548</ele>
        <time>2020-07-04T21:01:10Z</time>
      </trkpt>
      <trkpt lat="43.83409" lon="6.22232">
        <ele>548</ele>
        <time>2020-07-04T21:01:11Z</time>
      </trkpt>
      <trkpt lat="43.83404" lon="6.22229">
        <ele>547</ele>
        <time>2020-07-04T21:01:12Z</time>
      </trkpt>
      <trkpt lat="43.834" lon="6.22222">
        <ele>546</ele>
        <time>2020-07-04T21:01:13Z</time>
      </trkpt>
      <trkpt lat="43.83397" lon="6.22213">
        <ele>545</ele>
        <time>2020-07-04T21:01:15Z</time>
      </trkpt>
      <trkpt lat="43.83398" lon="6.22205">
        <ele>544</ele>
        <time>2020-07-04T21:01:16Z</time>
      </trkpt>
      <trkpt lat="43.83406" lon="6.22189">
        <ele>544</ele>
        <time>2020-07-04T21:01:18Z</time>
      </trkpt>
      <trkpt lat="43.8346" lon="6.22118">
        <ele>547</ele>
        <time>2020-07-04T21:01:32Z</time>
      </trkpt>
      <trkpt lat="43.83464" lon="6.22108">
        <ele>547</ele>
        <time>2020-07-04T21:01:33Z</time>
      </trkpt>
      <trkpt lat="43.83465" lon="6.22102">
        <ele>547</ele>
        <time>2020-07-04T21:01:34Z</time>
      </trkpt>
      <trkpt lat="43.83465" lon="6.22094">
        <ele>547</ele>
        <time>2020-07-04T21:01:35Z</time>
      </trkpt>
      <trkpt lat="43.83462" lon="6.22086">
        <ele>545</ele>
        <time>2020-07-04T21:01:36Z</time>
      </trkpt>
      <trkpt lat="43.83458" lon="6.2208">
        <ele>544</ele>
        <time>2020-07-04T21:01:37Z</time>
      </trkpt>
      <trkpt lat="43.83453" lon="6.22078">
        <ele>543</ele>
        <time>2020-07-04T21:01:38Z</time>
      </trkpt>
      <trkpt lat="43.83448" lon="6.22077">
        <ele>542</ele>
        <time>2020-07-04T21:01:39Z</time>
      </trkpt>
      <trkpt lat="43.83441" lon="6.22079">
        <ele>541</ele>
        <time>2020-07-04T21:01:40Z</time>
      </trkpt>
      <trkpt lat="43.83424" lon="6.22089">
        <ele>539</ele>
        <time>2020-07-04T21:01:43Z</time>
      </trkpt>
      <trkpt lat="43.83385" lon="6.22116">
        <ele>537</ele>
        <time>2020-07-04T21:01:51Z</time>
      </trkpt>
      <trkpt lat="43.83348" lon="6.22137">
        <ele>535</ele>
        <time>2020-07-04T21:01:58Z</time>
      </trkpt>
      <trkpt lat="43.83329" lon="6.22157">
        <ele>534</ele>
        <time>2020-07-04T21:02:03Z</time>
      </trkpt>
      <trkpt lat="43.83305" lon="6.22189">
        <ele>534</ele>
        <time>2020-07-04T21:02:08Z</time>
      </trkpt>
      <trkpt lat="43.83287" lon="6.22216">
        <ele>533</ele>
        <time>2020-07-04T21:02:13Z</time>
      </trkpt>
      <trkpt lat="43.83271" lon="6.22239">
        <ele>532</ele>
        <time>2020-07-04T21:02:17Z</time>
      </trkpt>
      <trkpt lat="43.83188" lon="6.22379">
        <ele>532</ele>
        <time>2020-07-04T21:02:41Z</time>
      </trkpt>
      <trkpt lat="43.83154" lon="6.22429">
        <ele>531</ele>
        <time>2020-07-04T21:02:49Z</time>
      </trkpt>
      <trkpt lat="43.83143" lon="6.22445">
        <ele>531</ele>
        <time>2020-07-04T21:02:52Z</time>
      </trkpt>
      <trkpt lat="43.83126" lon="6.22465">
        <ele>530</ele>
        <time>2020-07-04T21:02:56Z</time>
      </trkpt>
      <trkpt lat="43.83116" lon="6.22474">
        <ele>530</ele>
        <time>2020-07-04T21:02:58Z</time>
      </trkpt>
      <trkpt lat="43.8309" lon="6.2249">
        <ele>527</ele>
        <time>2020-07-04T21:03:03Z</time>
      </trkpt>
      <trkpt lat="43.83054" lon="6.22499">
        <ele>525</ele>
        <time>2020-07-04T21:03:10Z</time>
      </trkpt>
      <trkpt lat="43.8302" lon="6.22498">
        <ele>522</ele>
        <time>2020-07-04T21:03:16Z</time>
      </trkpt>
      <trkpt lat="43.82985" lon="6.22492">
        <ele>521</ele>
        <time>2020-07-04T21:03:22Z</time>
      </trkpt>
      <trkpt lat="43.82954" lon="6.22488">
        <ele>521</ele>
        <time>2020-07-04T21:03:28Z</time>
      </trkpt>
      <trkpt lat="43.82927" lon="6.22484">
        <ele>521</ele>
        <time>2020-07-04T21:03:33Z</time>
      </trkpt>
      <trkpt lat="43.82845" lon="6.22466">
        <ele>527</ele>
        <time>2020-07-04T21:03:47Z</time>
      </trkpt>
      <trkpt lat="43.82821" lon="6.22463">
        <ele>528</ele>
        <time>2020-07-04T21:03:52Z</time>
      </trkpt>
      <trkpt lat="43.82805" lon="6.22453">
        <ele>527</ele>
        <time>2020-07-04T21:03:55Z</time>
      </trkpt>
      <trkpt lat="43.82801" lon="6.22453">
        <ele>528</ele>
        <time>2020-07-04T21:03:55Z</time>
      </trkpt>
      <trkpt lat="43.82795" lon="6.22459">
        <ele>528</ele>
        <time>2020-07-04T21:03:57Z</time>
      </trkpt>
      <trkpt lat="43.82786" lon="6.2246">
        <ele>529</ele>
        <time>2020-07-04T21:03:58Z</time>
      </trkpt>
      <trkpt lat="43.82748" lon="6.22458">
        <ele>529</ele>
        <time>2020-07-04T21:04:05Z</time>
      </trkpt>
      <trkpt lat="43.8272" lon="6.2246">
        <ele>529</ele>
        <time>2020-07-04T21:04:10Z</time>
      </trkpt>
      <trkpt lat="43.82644" lon="6.22471">
        <ele>528</ele>
        <time>2020-07-04T21:04:24Z</time>
      </trkpt>
      <trkpt lat="43.82619" lon="6.22472">
        <ele>528</ele>
        <time>2020-07-04T21:04:28Z</time>
      </trkpt>
      <trkpt lat="43.82509" lon="6.22469">
        <ele>523</ele>
        <time>2020-07-04T21:04:48Z</time>
      </trkpt>
      <trkpt lat="43.82476" lon="6.22463">
        <ele>520</ele>
        <time>2020-07-04T21:04:54Z</time>
      </trkpt>
      <trkpt lat="43.8241" lon="6.22442">
        <ele>514</ele>
        <time>2020-07-04T21:05:06Z</time>
      </trkpt>
      <trkpt lat="43.82391" lon="6.2244">
        <ele>513</ele>
        <time>2020-07-04T21:05:09Z</time>
      </trkpt>
      <trkpt lat="43.82365" lon="6.22443">
        <ele>513</ele>
        <time>2020-07-04T21:05:14Z</time>
      </trkpt>
      <trkpt lat="43.8234" lon="6.22453">
        <ele>513</ele>
        <time>2020-07-04T21:05:18Z</time>
      </trkpt>
      <trkpt lat="43.82108" lon="6.22594">
        <ele>511</ele>
        <time>2020-07-04T21:06:03Z</time>
      </trkpt>
      <trkpt lat="43.82062" lon="6.22617">
        <ele>510</ele>
        <time>2020-07-04T21:06:12Z</time>
      </trkpt>
      <trkpt lat="43.82009" lon="6.22646">
        <ele>509</ele>
        <time>2020-07-04T21:06:22Z</time>
      </trkpt>
      <trkpt lat="43.81989" lon="6.22654">
        <ele>509</ele>
        <time>2020-07-04T21:06:26Z</time>
      </trkpt>
      <trkpt lat="43.81949" lon="6.2266">
        <ele>508</ele>
        <time>2020-07-04T21:06:33Z</time>
      </trkpt>
      <trkpt lat="43.81856" lon="6.22662">
        <ele>506</ele>
        <time>2020-07-04T21:06:50Z</time>
      </trkpt>
      <trkpt lat="43.81363" lon="6.22635">
        <ele>491</ele>
        <time>2020-07-04T21:08:17Z</time>
      </trkpt>
      <trkpt lat="43.8133" lon="6.22642">
        <ele>489</ele>
        <time>2020-07-04T21:08:23Z</time>
      </trkpt>
      <trkpt lat="43.81304" lon="6.22655">
        <ele>489</ele>
        <time>2020-07-04T21:08:28Z</time>
      </trkpt>
      <trkpt lat="43.81237" lon="6.22704">
        <ele>490</ele>
        <time>2020-07-04T21:08:42Z</time>
      </trkpt>
      <trkpt lat="43.81208" lon="6.22722">
        <ele>491</ele>
        <time>2020-07-04T21:08:47Z</time>
      </trkpt>
      <trkpt lat="43.81097" lon="6.22771">
        <ele>491</ele>
        <time>2020-07-04T21:09:08Z</time>
      </trkpt>
      <trkpt lat="43.80935" lon="6.22841">
        <ele>485</ele>
        <time>2020-07-04T21:09:38Z</time>
      </trkpt>
      <trkpt lat="43.80911" lon="6.22854">
        <ele>485</ele>
        <time>2020-07-04T21:09:43Z</time>
      </trkpt>
      <trkpt lat="43.80884" lon="6.22879">
        <ele>486</ele>
        <time>2020-07-04T21:09:49Z</time>
      </trkpt>
      <trkpt lat="43.80862" lon="6.22908">
        <ele>486</ele>
        <time>2020-07-04T21:09:54Z</time>
      </trkpt>
      <trkpt lat="43.80849" lon="6.2293">
        <ele>487</ele>
        <time>2020-07-04T21:09:58Z</time>
      </trkpt>
      <trkpt lat="43.80829" lon="6.22978">
        <ele>490</ele>
        <time>2020-07-04T21:10:05Z</time>
      </trkpt>
      <trkpt lat="43.80824" lon="6.22994">
        <ele>491</ele>
        <time>2020-07-04T21:10:07Z</time>
      </trkpt>
      <trkpt lat="43.80815" lon="6.23045">
        <ele>494</ele>
        <time>2020-07-04T21:10:14Z</time>
      </trkpt>
      <trkpt lat="43.80814" lon="6.23081">
        <ele>496</ele>
        <time>2020-07-04T21:10:19Z</time>
      </trkpt>
      <trkpt lat="43.80819" lon="6.23135">
        <ele>499</ele>
        <time>2020-07-04T21:10:26Z</time>
      </trkpt>
      <trkpt lat="43.8083" lon="6.23184">
        <ele>502</ele>
        <time>2020-07-04T21:10:32Z</time>
      </trkpt>
      <trkpt lat="43.80856" lon="6.23272">
        <ele>507</ele>
        <time>2020-07-04T21:10:44Z</time>
      </trkpt>
      <trkpt lat="43.8086" lon="6.23296">
        <ele>507</ele>
        <time>2020-07-04T21:10:47Z</time>
      </trkpt>
      <trkpt lat="43.80862" lon="6.23324">
        <ele>508</ele>
        <time>2020-07-04T21:10:51Z</time>
      </trkpt>
      <trkpt lat="43.80858" lon="6.23365">
        <ele>511</ele>
        <time>2020-07-04T21:10:56Z</time>
      </trkpt>
      <trkpt lat="43.80855" lon="6.23379">
        <ele>512</ele>
        <time>2020-07-04T21:10:58Z</time>
      </trkpt>
      <trkpt lat="43.80846" lon="6.23404">
        <ele>515</ele>
        <time>2020-07-04T21:11:02Z</time>
      </trkpt>
      <trkpt lat="43.80833" lon="6.23429">
        <ele>517</ele>
        <time>2020-07-04T21:11:06Z</time>
      </trkpt>
      <trkpt lat="43.80817" lon="6.23449">
        <ele>519</ele>
        <time>2020-07-04T21:11:10Z</time>
      </trkpt>
      <trkpt lat="43.80789" lon="6.2347">
        <ele>521</ele>
        <time>2020-07-04T21:11:15Z</time>
      </trkpt>
      <trkpt lat="43.80779" lon="6.23474">
        <ele>521</ele>
        <time>2020-07-04T21:11:17Z</time>
      </trkpt>
      <trkpt lat="43.80759" lon="6.23478">
        <ele>522</ele>
        <time>2020-07-04T21:11:21Z</time>
      </trkpt>
      <trkpt lat="43.80736" lon="6.23478">
        <ele>523</ele>
        <time>2020-07-04T21:11:25Z</time>
      </trkpt>
      <trkpt lat="43.80412" lon="6.23369">
        <ele>528</ele>
        <time>2020-07-04T21:12:24Z</time>
      </trkpt>
      <trkpt lat="43.804" lon="6.23369">
        <ele>529</ele>
        <time>2020-07-04T21:12:26Z</time>
      </trkpt>
      <trkpt lat="43.80379" lon="6.23372">
        <ele>530</ele>
        <time>2020-07-04T21:12:30Z</time>
      </trkpt>
      <trkpt lat="43.8036" lon="6.23385">
        <ele>531</ele>
        <time>2020-07-04T21:12:34Z</time>
      </trkpt>
      <trkpt lat="43.80352" lon="6.23393">
        <ele>531</ele>
        <time>2020-07-04T21:12:36Z</time>
      </trkpt>
      <trkpt lat="43.8034" lon="6.23409">
        <ele>532</ele>
        <time>2020-07-04T21:12:39Z</time>
      </trkpt>
      <trkpt lat="43.80333" lon="6.23428">
        <ele>531</ele>
        <time>2020-07-04T21:12:41Z</time>
      </trkpt>
      <trkpt lat="43.80326" lon="6.23462">
        <ele>527</ele>
        <time>2020-07-04T21:12:46Z</time>
      </trkpt>
      <trkpt lat="43.80325" lon="6.23474">
        <ele>526</ele>
        <time>2020-07-04T21:12:47Z</time>
      </trkpt>
      <trkpt lat="43.80327" lon="6.23498">
        <ele>524</ele>
        <time>2020-07-04T21:12:51Z</time>
      </trkpt>
      <trkpt lat="43.8033" lon="6.23513">
        <ele>523</ele>
        <time>2020-07-04T21:12:53Z</time>
      </trkpt>
      <trkpt lat="43.80341" lon="6.23539">
        <ele>522</ele>
        <time>2020-07-04T21:12:56Z</time>
      </trkpt>
      <trkpt lat="43.80402" lon="6.23662">
        <ele>523</ele>
        <time>2020-07-04T21:13:16Z</time>
      </trkpt>
      <trkpt lat="43.80415" lon="6.23693">
        <ele>523</ele>
        <time>2020-07-04T21:13:20Z</time>
      </trkpt>
      <trkpt lat="43.80424" lon="6.23725">
        <ele>522</ele>
        <time>2020-07-04T21:13:25Z</time>
      </trkpt>
      <trkpt lat="43.80428" lon="6.23767">
        <ele>519</ele>
        <time>2020-07-04T21:13:30Z</time>
      </trkpt>
      <trkpt lat="43.80426" lon="6.23811">
        <ele>515</ele>
        <time>2020-07-04T21:13:36Z</time>
      </trkpt>
      <trkpt lat="43.80411" lon="6.23904">
        <ele>508</ele>
        <time>2020-07-04T21:13:48Z</time>
      </trkpt>
      <trkpt lat="43.80408" lon="6.23946">
        <ele>508</ele>
        <time>2020-07-04T21:13:53Z</time>
      </trkpt>
      <trkpt lat="43.8041" lon="6.23991">
        <ele>510</ele>
        <time>2020-07-04T21:13:59Z</time>
      </trkpt>
      <trkpt lat="43.80422" lon="6.24081">
        <ele>509</ele>
        <time>2020-07-04T21:14:11Z</time>
      </trkpt>
      <trkpt lat="43.80426" lon="6.24128">
        <ele>507</ele>
        <time>2020-07-04T21:14:17Z</time>
      </trkpt>
      <trkpt lat="43.80425" lon="6.24191">
        <ele>502</ele>
        <time>2020-07-04T21:14:25Z</time>
      </trkpt>
      <trkpt lat="43.8042" lon="6.24267">
        <ele>498</ele>
        <time>2020-07-04T21:14:35Z</time>
      </trkpt>
      <trkpt lat="43.80417" lon="6.24333">
        <ele>495</ele>
        <time>2020-07-04T21:14:43Z</time>
      </trkpt>
      <trkpt lat="43.80418" lon="6.24356">
        <ele>494</ele>
        <time>2020-07-04T21:14:46Z</time>
      </trkpt>
      <trkpt lat="43.80424" lon="6.24433">
        <ele>492</ele>
        <time>2020-07-04T21:14:56Z</time>
      </trkpt>
      <trkpt lat="43.80424" lon="6.2448">
        <ele>489</ele>
        <time>2020-07-04T21:15:02Z</time>
      </trkpt>
      <trkpt lat="43.80398" lon="6.24712">
        <ele>486</ele>
        <time>2020-07-04T21:15:32Z</time>
      </trkpt>
      <trkpt lat="43.80391" lon="6.24741">
        <ele>487</ele>
        <time>2020-07-04T21:15:36Z</time>
      </trkpt>
      <trkpt lat="43.80386" lon="6.24757">
        <ele>487</ele>
        <time>2020-07-04T21:15:39Z</time>
      </trkpt>
      <trkpt lat="43.80379" lon="6.24774">
        <ele>487</ele>
        <time>2020-07-04T21:15:41Z</time>
      </trkpt>
      <trkpt lat="43.80368" lon="6.24794">
        <ele>488</ele>
        <time>2020-07-04T21:15:44Z</time>
      </trkpt>
      <trkpt lat="43.80313" lon="6.2488">
        <ele>491</ele>
        <time>2020-07-04T21:15:59Z</time>
      </trkpt>
      <trkpt lat="43.80307" lon="6.24894">
        <ele>492</ele>
        <time>2020-07-04T21:16:01Z</time>
      </trkpt>
      <trkpt lat="43.80304" lon="6.24905">
        <ele>492</ele>
        <time>2020-07-04T21:16:03Z</time>
      </trkpt>
      <trkpt lat="43.80301" lon="6.24938">
        <ele>495</ele>
        <time>2020-07-04T21:16:07Z</time>
      </trkpt>
      <trkpt lat="43.80295" lon="6.24963">
        <ele>496</ele>
        <time>2020-07-04T21:16:10Z</time>
      </trkpt>
      <trkpt lat="43.80286" lon="6.2498">
        <ele>495</ele>
        <time>2020-07-04T21:16:13Z</time>
      </trkpt>
      <trkpt lat="43.80278" lon="6.24988">
        <ele>494</ele>
        <time>2020-07-04T21:16:15Z</time>
      </trkpt>
      <trkpt lat="43.8027" lon="6.24992">
        <ele>493</ele>
        <time>2020-07-04T21:16:16Z</time>
      </trkpt>
      <trkpt lat="43.80255" lon="6.24995">
        <ele>490</ele>
        <time>2020-07-04T21:16:19Z</time>
      </trkpt>
      <trkpt lat="43.80236" lon="6.24989">
        <ele>487</ele>
        <time>2020-07-04T21:16:22Z</time>
      </trkpt>
      <trkpt lat="43.80219" lon="6.24979">
        <ele>485</ele>
        <time>2020-07-04T21:16:26Z</time>
      </trkpt>
      <trkpt lat="43.80127" lon="6.24908">
        <ele>496</ele>
        <time>2020-07-04T21:16:45Z</time>
      </trkpt>
      <trkpt lat="43.8012" lon="6.24902">
        <ele>498</ele>
        <time>2020-07-04T21:16:46Z</time>
      </trkpt>
      <trkpt lat="43.80113" lon="6.24895">
        <ele>500</ele>
        <time>2020-07-04T21:16:48Z</time>
      </trkpt>
      <trkpt lat="43.80107" lon="6.24887">
        <ele>501</ele>
        <time>2020-07-04T21:16:49Z</time>
      </trkpt>
      <trkpt lat="43.80103" lon="6.24878">
        <ele>501</ele>
        <time>2020-07-04T21:16:50Z</time>
      </trkpt>
      <trkpt lat="43.80098" lon="6.24869">
        <ele>501</ele>
        <time>2020-07-04T21:16:52Z</time>
      </trkpt>
      <trkpt lat="43.80026" lon="6.24703">
        <ele>494</ele>
        <time>2020-07-04T21:17:17Z</time>
      </trkpt>
      <trkpt lat="43.80021" lon="6.24691">
        <ele>493</ele>
        <time>2020-07-04T21:17:18Z</time>
      </trkpt>
      <trkpt lat="43.80011" lon="6.24671">
        <ele>493</ele>
        <time>2020-07-04T21:17:22Z</time>
      </trkpt>
      <trkpt lat="43.79987" lon="6.24627">
        <ele>494</ele>
        <time>2020-07-04T21:17:29Z</time>
      </trkpt>
      <trkpt lat="43.7997" lon="6.246">
        <ele>495</ele>
        <time>2020-07-04T21:17:33Z</time>
      </trkpt>
      <trkpt lat="43.79955" lon="6.24579">
        <ele>497</ele>
        <time>2020-07-04T21:17:37Z</time>
      </trkpt>
      <trkpt lat="43.79925" lon="6.24542">
        <ele>498</ele>
        <time>2020-07-04T21:17:44Z</time>
      </trkpt>
      <trkpt lat="43.79879" lon="6.24497">
        <ele>499</ele>
        <time>2020-07-04T21:17:54Z</time>
      </trkpt>
      <trkpt lat="43.798" lon="6.24433">
        <ele>502</ele>
        <time>2020-07-04T21:18:11Z</time>
      </trkpt>
      <trkpt lat="43.79773" lon="6.24412">
        <ele>503</ele>
        <time>2020-07-04T21:18:16Z</time>
      </trkpt>
      <trkpt lat="43.79762" lon="6.24403">
        <ele>503</ele>
        <time>2020-07-04T21:18:18Z</time>
      </trkpt>
      <trkpt lat="43.79739" lon="6.24379">
        <ele>503</ele>
        <time>2020-07-04T21:18:23Z</time>
      </trkpt>
      <trkpt lat="43.79726" lon="6.2436">
        <ele>502</ele>
        <time>2020-07-04T21:18:27Z</time>
      </trkpt>
      <trkpt lat="43.79714" lon="6.2434">
        <ele>500</ele>
        <time>2020-07-04T21:18:30Z</time>
      </trkpt>
      <trkpt lat="43.79703" lon="6.24315">
        <ele>499</ele>
        <time>2020-07-04T21:18:34Z</time>
      </trkpt>
      <trkpt lat="43.79697" lon="6.24297">
        <ele>499</ele>
        <time>2020-07-04T21:18:36Z</time>
      </trkpt>
      <trkpt lat="43.79691" lon="6.24277">
        <ele>498</ele>
        <time>2020-07-04T21:18:39Z</time>
      </trkpt>
      <trkpt lat="43.79685" lon="6.24252">
        <ele>497</ele>
        <time>2020-07-04T21:18:43Z</time>
      </trkpt>
      <trkpt lat="43.79683" lon="6.24235">
        <ele>497</ele>
        <time>2020-07-04T21:18:45Z</time>
      </trkpt>
      <trkpt lat="43.79681" lon="6.24221">
        <ele>497</ele>
        <time>2020-07-04T21:18:47Z</time>
      </trkpt>
      <trkpt lat="43.7968" lon="6.24209">
        <ele>497</ele>
        <time>2020-07-04T21:18:48Z</time>
      </trkpt>
      <trkpt lat="43.7968" lon="6.24196">
        <ele>497</ele>
        <time>2020-07-04T21:18:50Z</time>
      </trkpt>
      <trkpt lat="43.7968" lon="6.24182">
        <ele>497</ele>
        <time>2020-07-04T21:18:52Z</time>
      </trkpt>
      <trkpt lat="43.7969" lon="6.24092">
        <ele>499</ele>
        <time>2020-07-04T21:19:03Z</time>
      </trkpt>
      <trkpt lat="43.79702" lon="6.23984">
        <ele>499</ele>
        <time>2020-07-04T21:19:17Z</time>
      </trkpt>
      <trkpt lat="43.79716" lon="6.23855">
        <ele>494</ele>
        <time>2020-07-04T21:19:34Z</time>
      </trkpt>
      <trkpt lat="43.79718" lon="6.23821">
        <ele>492</ele>
        <time>2020-07-04T21:19:39Z</time>
      </trkpt>
      <trkpt lat="43.79714" lon="6.23792">
        <ele>490</ele>
        <time>2020-07-04T21:19:42Z</time>
      </trkpt>
      <trkpt lat="43.79707" lon="6.2377">
        <ele>489</ele>
        <time>2020-07-04T21:19:45Z</time>
      </trkpt>
      <trkpt lat="43.79691" lon="6.23745">
        <ele>490</ele>
        <time>2020-07-04T21:19:50Z</time>
      </trkpt>
      <trkpt lat="43.79685" lon="6.23739">
        <ele>490</ele>
        <time>2020-07-04T21:19:51Z</time>
      </trkpt>
      <trkpt lat="43.79667" lon="6.23729">
        <ele>493</ele>
        <time>2020-07-04T21:19:54Z</time>
      </trkpt>
      <trkpt lat="43.79594" lon="6.23704">
        <ele>492</ele>
        <time>2020-07-04T21:20:08Z</time>
      </trkpt>
      <trkpt lat="43.79574" lon="6.23694">
        <ele>492</ele>
        <time>2020-07-04T21:20:12Z</time>
      </trkpt>
      <trkpt lat="43.79559" lon="6.23676">
        <ele>490</ele>
        <time>2020-07-04T21:20:15Z</time>
      </trkpt>
      <trkpt lat="43.79553" lon="6.23666">
        <ele>490</ele>
        <time>2020-07-04T21:20:17Z</time>
      </trkpt>
      <trkpt lat="43.79544" lon="6.23643">
        <ele>491</ele>
        <time>2020-07-04T21:20:20Z</time>
      </trkpt>
      <trkpt lat="43.79542" lon="6.2363">
        <ele>492</ele>
        <time>2020-07-04T21:20:22Z</time>
      </trkpt>
      <trkpt lat="43.7954" lon="6.23618">
        <ele>492</ele>
        <time>2020-07-04T21:20:23Z</time>
      </trkpt>
      <trkpt lat="43.7954" lon="6.23606">
        <ele>493</ele>
        <time>2020-07-04T21:20:25Z</time>
      </trkpt>
      <trkpt lat="43.79544" lon="6.23574">
        <ele>493</ele>
        <time>2020-07-04T21:20:29Z</time>
      </trkpt>
      <trkpt lat="43.79586" lon="6.23416">
        <ele>494</ele>
        <time>2020-07-04T21:20:51Z</time>
      </trkpt>
      <trkpt lat="43.79589" lon="6.2339">
        <ele>493</ele>
        <time>2020-07-04T21:20:54Z</time>
      </trkpt>
      <trkpt lat="43.79589" lon="6.23361">
        <ele>491</ele>
        <time>2020-07-04T21:20:58Z</time>
      </trkpt>
      <trkpt lat="43.79585" lon="6.23334">
        <ele>491</ele>
        <time>2020-07-04T21:21:01Z</time>
      </trkpt>
      <trkpt lat="43.79577" lon="6.23307">
        <ele>490</ele>
        <time>2020-07-04T21:21:05Z</time>
      </trkpt>
      <trkpt lat="43.79559" lon="6.23272">
        <ele>489</ele>
        <time>2020-07-04T21:21:11Z</time>
      </trkpt>
      <trkpt lat="43.79537" lon="6.23246">
        <ele>489</ele>
        <time>2020-07-04T21:21:16Z</time>
      </trkpt>
      <trkpt lat="43.79521" lon="6.23235">
        <ele>490</ele>
        <time>2020-07-04T21:21:19Z</time>
      </trkpt>
      <trkpt lat="43.79503" lon="6.23227">
        <ele>491</ele>
        <time>2020-07-04T21:21:22Z</time>
      </trkpt>
      <trkpt lat="43.795" lon="6.23226">
        <ele>491</ele>
        <time>2020-07-04T21:21:23Z</time>
      </trkpt>
      <trkpt lat="43.79491" lon="6.23224">
        <ele>491</ele>
        <time>2020-07-04T21:21:25Z</time>
      </trkpt>
      <trkpt lat="43.79412" lon="6.23213">
        <ele>495</ele>
        <time>2020-07-04T21:21:39Z</time>
      </trkpt>
      <trkpt lat="43.79395" lon="6.23209">
        <ele>495</ele>
        <time>2020-07-04T21:21:42Z</time>
      </trkpt>
      <trkpt lat="43.79369" lon="6.23198">
        <ele>494</ele>
        <time>2020-07-04T21:21:47Z</time>
      </trkpt>
      <trkpt lat="43.79359" lon="6.23191">
        <ele>494</ele>
        <time>2020-07-04T21:21:49Z</time>
      </trkpt>
      <trkpt lat="43.79353" lon="6.23185">
        <ele>493</ele>
        <time>2020-07-04T21:21:50Z</time>
      </trkpt>
      <trkpt lat="43.79347" lon="6.23177">
        <ele>493</ele>
        <time>2020-07-04T21:21:51Z</time>
      </trkpt>
      <trkpt lat="43.79343" lon="6.23169">
        <ele>492</ele>
        <time>2020-07-04T21:21:53Z</time>
      </trkpt>
      <trkpt lat="43.79339" lon="6.23162">
        <ele>492</ele>
        <time>2020-07-04T21:21:54Z</time>
      </trkpt>
      <trkpt lat="43.79327" lon="6.23172">
        <ele>493</ele>
        <time>2020-07-04T21:21:56Z</time>
      </trkpt>
      <trkpt lat="43.79314" lon="6.23188">
        <ele>495</ele>
        <time>2020-07-04T21:21:59Z</time>
      </trkpt>
      <trkpt lat="43.79307" lon="6.23195">
        <ele>495</ele>
        <time>2020-07-04T21:22:01Z</time>
      </trkpt>
      <trkpt lat="43.79238" lon="6.2323">
        <ele>500</ele>
        <time>2020-07-04T21:22:14Z</time>
      </trkpt>
      <trkpt lat="43.79233" lon="6.23235">
        <ele>500</ele>
        <time>2020-07-04T21:22:15Z</time>
      </trkpt>
      <trkpt lat="43.79228" lon="6.23245">
        <ele>501</ele>
        <time>2020-07-04T21:22:17Z</time>
      </trkpt>
      <trkpt lat="43.79227" lon="6.2325">
        <ele>501</ele>
        <time>2020-07-04T21:22:17Z</time>
      </trkpt>
      <trkpt lat="43.79231" lon="6.23263">
        <ele>503</ele>
        <time>2020-07-04T21:22:19Z</time>
      </trkpt>
      <trkpt lat="43.79238" lon="6.2327">
        <ele>504</ele>
        <time>2020-07-04T21:22:21Z</time>
      </trkpt>
      <trkpt lat="43.79244" lon="6.23272">
        <ele>505</ele>
        <time>2020-07-04T21:22:22Z</time>
      </trkpt>
      <trkpt lat="43.79278" lon="6.2327">
        <ele>504</ele>
        <time>2020-07-04T21:22:28Z</time>
      </trkpt>
      <trkpt lat="43.79287" lon="6.23272">
        <ele>504</ele>
        <time>2020-07-04T21:22:29Z</time>
      </trkpt>
      <trkpt lat="43.79412" lon="6.23326">
        <ele>510</ele>
        <time>2020-07-04T21:22:53Z</time>
      </trkpt>
      <trkpt lat="43.79416" lon="6.23328">
        <ele>510</ele>
        <time>2020-07-04T21:22:53Z</time>
      </trkpt>
      <trkpt lat="43.79428" lon="6.23333">
        <ele>510</ele>
        <time>2020-07-04T21:22:56Z</time>
      </trkpt>
      <trkpt lat="43.79446" lon="6.23338">
        <ele>509</ele>
        <time>2020-07-04T21:22:59Z</time>
      </trkpt>
      <trkpt lat="43.79461" lon="6.2334">
        <ele>508</ele>
        <time>2020-07-04T21:23:02Z</time>
      </trkpt>
      <trkpt lat="43.79469" lon="6.23346">
        <ele>508</ele>
        <time>2020-07-04T21:23:03Z</time>
      </trkpt>
      <trkpt lat="43.79471" lon="6.2335">
        <ele>508</ele>
        <time>2020-07-04T21:23:04Z</time>
      </trkpt>
      <trkpt lat="43.79473" lon="6.23366">
        <ele>510</ele>
        <time>2020-07-04T21:23:06Z</time>
      </trkpt>
      <trkpt lat="43.7947" lon="6.23377">
        <ele>511</ele>
        <time>2020-07-04T21:23:08Z</time>
      </trkpt>
      <trkpt lat="43.79463" lon="6.23384">
        <ele>513</ele>
        <time>2020-07-04T21:23:09Z</time>
      </trkpt>
      <trkpt lat="43.79451" lon="6.23386">
        <ele>514</ele>
        <time>2020-07-04T21:23:11Z</time>
      </trkpt>
      <trkpt lat="43.79418" lon="6.23376">
        <ele>516</ele>
        <time>2020-07-04T21:23:17Z</time>
      </trkpt>
      <trkpt lat="43.79396" lon="6.23375">
        <ele>517</ele>
        <time>2020-07-04T21:23:21Z</time>
      </trkpt>
      <trkpt lat="43.79345" lon="6.23385">
        <ele>520</ele>
        <time>2020-07-04T21:23:30Z</time>
      </trkpt>
      <trkpt lat="43.79331" lon="6.23389">
        <ele>521</ele>
        <time>2020-07-04T21:23:33Z</time>
      </trkpt>
      <trkpt lat="43.79315" lon="6.23394">
        <ele>522</ele>
        <time>2020-07-04T21:23:36Z</time>
      </trkpt>
      <trkpt lat="43.79246" lon="6.2342">
        <ele>526</ele>
        <time>2020-07-04T21:23:48Z</time>
      </trkpt>
      <trkpt lat="43.79232" lon="6.23424">
        <ele>526</ele>
        <time>2020-07-04T21:23:51Z</time>
      </trkpt>
      <trkpt lat="43.79206" lon="6.23428">
        <ele>526</ele>
        <time>2020-07-04T21:23:56Z</time>
      </trkpt>
      <trkpt lat="43.792" lon="6.23432">
        <ele>526</ele>
        <time>2020-07-04T21:23:57Z</time>
      </trkpt>
      <trkpt lat="43.79196" lon="6.23437">
        <ele>527</ele>
        <time>2020-07-04T21:23:58Z</time>
      </trkpt>
      <trkpt lat="43.79192" lon="6.23448">
        <ele>528</ele>
        <time>2020-07-04T21:23:59Z</time>
      </trkpt>
      <trkpt lat="43.79188" lon="6.23476">
        <ele>530</ele>
        <time>2020-07-04T21:24:03Z</time>
      </trkpt>
      <trkpt lat="43.79186" lon="6.23483">
        <ele>531</ele>
        <time>2020-07-04T21:24:04Z</time>
      </trkpt>
      <trkpt lat="43.79184" lon="6.23488">
        <ele>531</ele>
        <time>2020-07-04T21:24:05Z</time>
      </trkpt>
      <trkpt lat="43.79179" lon="6.23495">
        <ele>532</ele>
        <time>2020-07-04T21:24:06Z</time>
      </trkpt>
      <trkpt lat="43.79173" lon="6.235">
        <ele>532</ele>
        <time>2020-07-04T21:24:07Z</time>
      </trkpt>
      <trkpt lat="43.79161" lon="6.23507">
        <ele>532</ele>
        <time>2020-07-04T21:24:10Z</time>
      </trkpt>
      <trkpt lat="43.7913" lon="6.23516">
        <ele>533</ele>
        <time>2020-07-04T21:24:15Z</time>
      </trkpt>
      <trkpt lat="43.79122" lon="6.23522">
        <ele>533</ele>
        <time>2020-07-04T21:24:17Z</time>
      </trkpt>
      <trkpt lat="43.79099" lon="6.23543">
        <ele>536</ele>
        <time>2020-07-04T21:24:22Z</time>
      </trkpt>
      <trkpt lat="43.79086" lon="6.23552">
        <ele>537</ele>
        <time>2020-07-04T21:24:24Z</time>
      </trkpt>
      <trkpt lat="43.79075" lon="6.23556">
        <ele>537</ele>
        <time>2020-07-04T21:24:26Z</time>
      </trkpt>
      <trkpt lat="43.79021" lon="6.2357">
        <ele>539</ele>
        <time>2020-07-04T21:24:36Z</time>
      </trkpt>
      <trkpt lat="43.78956" lon="6.23574">
        <ele>542</ele>
        <time>2020-07-04T21:24:48Z</time>
      </trkpt>
      <trkpt lat="43.78929" lon="6.23582">
        <ele>544</ele>
        <time>2020-07-04T21:24:53Z</time>
      </trkpt>
      <trkpt lat="43.78892" lon="6.23598">
        <ele>549</ele>
        <time>2020-07-04T21:25:00Z</time>
      </trkpt>
      <trkpt lat="43.78882" lon="6.23598">
        <ele>550</ele>
        <time>2020-07-04T21:25:01Z</time>
      </trkpt>
      <trkpt lat="43.78875" lon="6.23596">
        <ele>550</ele>
        <time>2020-07-04T21:25:03Z</time>
      </trkpt>
      <trkpt lat="43.78868" lon="6.23591">
        <ele>550</ele>
        <time>2020-07-04T21:25:04Z</time>
      </trkpt>
      <trkpt lat="43.78861" lon="6.23583">
        <ele>550</ele>
        <time>2020-07-04T21:25:06Z</time>
      </trkpt>
      <trkpt lat="43.78848" lon="6.23561">
        <ele>548</ele>
        <time>2020-07-04T21:25:09Z</time>
      </trkpt>
      <trkpt lat="43.78833" lon="6.23545">
        <ele>548</ele>
        <time>2020-07-04T21:25:13Z</time>
      </trkpt>
      <trkpt lat="43.78824" lon="6.23542">
        <ele>548</ele>
        <time>2020-07-04T21:25:14Z</time>
      </trkpt>
      <trkpt lat="43.78815" lon="6.23543">
        <ele>548</ele>
        <time>2020-07-04T21:25:16Z</time>
      </trkpt>
      <trkpt lat="43.78797" lon="6.23549">
        <ele>549</ele>
        <time>2020-07-04T21:25:19Z</time>
      </trkpt>
      <trkpt lat="43.78769" lon="6.23571">
        <ele>551</ele>
        <time>2020-07-04T21:25:25Z</time>
      </trkpt>
      <trkpt lat="43.78748" lon="6.23593">
        <ele>554</ele>
        <time>2020-07-04T21:25:30Z</time>
      </trkpt>
      <trkpt lat="43.78724" lon="6.23626">
        <ele>558</ele>
        <time>2020-07-04T21:25:36Z</time>
      </trkpt>
      <trkpt lat="43.78719" lon="6.2363">
        <ele>559</ele>
        <time>2020-07-04T21:25:37Z</time>
      </trkpt>
      <trkpt lat="43.78705" lon="6.23632">
        <ele>560</ele>
        <time>2020-07-04T21:25:39Z</time>
      </trkpt>
      <trkpt lat="43.78689" lon="6.23628">
        <ele>560</ele>
        <time>2020-07-04T21:25:42Z</time>
      </trkpt>
      <trkpt lat="43.78672" lon="6.23628">
        <ele>560</ele>
        <time>2020-07-04T21:25:45Z</time>
      </trkpt>
      <trkpt lat="43.78662" lon="6.23632">
        <ele>561</ele>
        <time>2020-07-04T21:25:47Z</time>
      </trkpt>
      <trkpt lat="43.78635" lon="6.23649">
        <ele>565</ele>
        <time>2020-07-04T21:25:52Z</time>
      </trkpt>
      <trkpt lat="43.78622" lon="6.23653">
        <ele>566</ele>
        <time>2020-07-04T21:25:55Z</time>
      </trkpt>
      <trkpt lat="43.78614" lon="6.23652">
        <ele>567</ele>
        <time>2020-07-04T21:25:56Z</time>
      </trkpt>
      <trkpt lat="43.78594" lon="6.23643">
        <ele>568</ele>
        <time>2020-07-04T21:26:00Z</time>
      </trkpt>
      <trkpt lat="43.78586" lon="6.23636">
        <ele>568</ele>
        <time>2020-07-04T21:26:01Z</time>
      </trkpt>
      <trkpt lat="43.78574" lon="6.23621">
        <ele>569</ele>
        <time>2020-07-04T21:26:04Z</time>
      </trkpt>
      <trkpt lat="43.78563" lon="6.23605">
        <ele>569</ele>
        <time>2020-07-04T21:26:07Z</time>
      </trkpt>
      <trkpt lat="43.78528" lon="6.23555">
        <ele>569</ele>
        <time>2020-07-04T21:26:16Z</time>
      </trkpt>
      <trkpt lat="43.78518" lon="6.23546">
        <ele>570</ele>
        <time>2020-07-04T21:26:18Z</time>
      </trkpt>
      <trkpt lat="43.78506" lon="6.23545">
        <ele>571</ele>
        <time>2020-07-04T21:26:20Z</time>
      </trkpt>
      <trkpt lat="43.78487" lon="6.23553">
        <ele>574</ele>
        <time>2020-07-04T21:26:24Z</time>
      </trkpt>
      <trkpt lat="43.7848" lon="6.23555">
        <ele>576</ele>
        <time>2020-07-04T21:26:25Z</time>
      </trkpt>
      <trkpt lat="43.78467" lon="6.23552">
        <ele>577</ele>
        <time>2020-07-04T21:26:27Z</time>
      </trkpt>
      <trkpt lat="43.78459" lon="6.23546">
        <ele>578</ele>
        <time>2020-07-04T21:26:29Z</time>
      </trkpt>
      <trkpt lat="43.78432" lon="6.23518">
        <ele>580</ele>
        <time>2020-07-04T21:26:35Z</time>
      </trkpt>
      <trkpt lat="43.78416" lon="6.23495">
        <ele>582</ele>
        <time>2020-07-04T21:26:39Z</time>
      </trkpt>
      <trkpt lat="43.78411" lon="6.23486">
        <ele>583</ele>
        <time>2020-07-04T21:26:41Z</time>
      </trkpt>
      <trkpt lat="43.78409" lon="6.23478">
        <ele>584</ele>
        <time>2020-07-04T21:26:42Z</time>
      </trkpt>
      <trkpt lat="43.78409" lon="6.23469">
        <ele>586</ele>
        <time>2020-07-04T21:26:43Z</time>
      </trkpt>
      <trkpt lat="43.78412" lon="6.23457">
        <ele>587</ele>
        <time>2020-07-04T21:26:45Z</time>
      </trkpt>
      <trkpt lat="43.78416" lon="6.23453">
        <ele>587</ele>
        <time>2020-07-04T21:26:45Z</time>
      </trkpt>
      <trkpt lat="43.78419" lon="6.23452">
        <ele>586</ele>
        <time>2020-07-04T21:26:46Z</time>
      </trkpt>
      <trkpt lat="43.78442" lon="6.23447">
        <ele>583</ele>
        <time>2020-07-04T21:26:50Z</time>
      </trkpt>
      <trkpt lat="43.78457" lon="6.23437">
        <ele>582</ele>
        <time>2020-07-04T21:26:53Z</time>
      </trkpt>
      <trkpt lat="43.78528" lon="6.23367">
        <ele>581</ele>
        <time>2020-07-04T21:27:09Z</time>
      </trkpt>
      <trkpt lat="43.78553" lon="6.23341">
        <ele>580</ele>
        <time>2020-07-04T21:27:14Z</time>
      </trkpt>
      <trkpt lat="43.78564" lon="6.23327">
        <ele>580</ele>
        <time>2020-07-04T21:27:17Z</time>
      </trkpt>
      <trkpt lat="43.78595" lon="6.23274">
        <ele>579</ele>
        <time>2020-07-04T21:27:26Z</time>
      </trkpt>
      <trkpt lat="43.786" lon="6.23263">
        <ele>580</ele>
        <time>2020-07-04T21:27:27Z</time>
      </trkpt>
      <trkpt lat="43.78603" lon="6.23252">
        <ele>581</ele>
        <time>2020-07-04T21:27:29Z</time>
      </trkpt>
      <trkpt lat="43.78603" lon="6.23243">
        <ele>581</ele>
        <time>2020-07-04T21:27:30Z</time>
      </trkpt>
      <trkpt lat="43.78602" lon="6.23235">
        <ele>581</ele>
        <time>2020-07-04T21:27:31Z</time>
      </trkpt>
      <trkpt lat="43.78595" lon="6.23219">
        <ele>583</ele>
        <time>2020-07-04T21:27:33Z</time>
      </trkpt>
      <trkpt lat="43.78589" lon="6.23214">
        <ele>584</ele>
        <time>2020-07-04T21:27:35Z</time>
      </trkpt>
      <trkpt lat="43.78576" lon="6.23211">
        <ele>586</ele>
        <time>2020-07-04T21:27:37Z</time>
      </trkpt>
      <trkpt lat="43.78542" lon="6.23215">
        <ele>589</ele>
        <time>2020-07-04T21:27:43Z</time>
      </trkpt>
      <trkpt lat="43.78511" lon="6.23197">
        <ele>590</ele>
        <time>2020-07-04T21:27:49Z</time>
      </trkpt>
      <trkpt lat="43.785" lon="6.23196">
        <ele>591</ele>
        <time>2020-07-04T21:27:51Z</time>
      </trkpt>
      <trkpt lat="43.78476" lon="6.23204">
        <ele>592</ele>
        <time>2020-07-04T21:27:55Z</time>
      </trkpt>
      <trkpt lat="43.78464" lon="6.23212">
        <ele>592</ele>
        <time>2020-07-04T21:27:58Z</time>
      </trkpt>
      <trkpt lat="43.78416" lon="6.23251">
        <ele>596</ele>
        <time>2020-07-04T21:28:08Z</time>
      </trkpt>
      <trkpt lat="43.78406" lon="6.23257">
        <ele>597</ele>
        <time>2020-07-04T21:28:10Z</time>
      </trkpt>
      <trkpt lat="43.78398" lon="6.23259">
        <ele>598</ele>
        <time>2020-07-04T21:28:11Z</time>
      </trkpt>
      <trkpt lat="43.78385" lon="6.23258">
        <ele>599</ele>
        <time>2020-07-04T21:28:13Z</time>
      </trkpt>
      <trkpt lat="43.7836" lon="6.23242">
        <ele>599</ele>
        <time>2020-07-04T21:28:18Z</time>
      </trkpt>
      <trkpt lat="43.7835" lon="6.23239">
        <ele>599</ele>
        <time>2020-07-04T21:28:20Z</time>
      </trkpt>
      <trkpt lat="43.78318" lon="6.23258">
        <ele>603</ele>
        <time>2020-07-04T21:28:26Z</time>
      </trkpt>
      <trkpt lat="43.78305" lon="6.23259">
        <ele>605</ele>
        <time>2020-07-04T21:28:29Z</time>
      </trkpt>
      <trkpt lat="43.78295" lon="6.23253">
        <ele>605</ele>
        <time>2020-07-04T21:28:30Z</time>
      </trkpt>
      <trkpt lat="43.78292" lon="6.23247">
        <ele>605</ele>
        <time>2020-07-04T21:28:31Z</time>
      </trkpt>
      <trkpt lat="43.78287" lon="6.23219">
        <ele>602</ele>
        <time>2020-07-04T21:28:35Z</time>
      </trkpt>
      <trkpt lat="43.78281" lon="6.23207">
        <ele>602</ele>
        <time>2020-07-04T21:28:37Z</time>
      </trkpt>
      <trkpt lat="43.78275" lon="6.23202">
        <ele>601</ele>
        <time>2020-07-04T21:28:38Z</time>
      </trkpt>
      <trkpt lat="43.7824" lon="6.23183">
        <ele>601</ele>
        <time>2020-07-04T21:28:45Z</time>
      </trkpt>
      <trkpt lat="43.78227" lon="6.23183">
        <ele>602</ele>
        <time>2020-07-04T21:28:47Z</time>
      </trkpt>
      <trkpt lat="43.78216" lon="6.23188">
        <ele>603</ele>
        <time>2020-07-04T21:28:49Z</time>
      </trkpt>
      <trkpt lat="43.78205" lon="6.23202">
        <ele>605</ele>
        <time>2020-07-04T21:28:52Z</time>
      </trkpt>
      <trkpt lat="43.78199" lon="6.23213">
        <ele>606</ele>
        <time>2020-07-04T21:28:54Z</time>
      </trkpt>
      <trkpt lat="43.78187" lon="6.23247">
        <ele>610</ele>
        <time>2020-07-04T21:28:59Z</time>
      </trkpt>
      <trkpt lat="43.78184" lon="6.23253">
        <ele>611</ele>
        <time>2020-07-04T21:29:00Z</time>
      </trkpt>
      <trkpt lat="43.78179" lon="6.23258">
        <ele>611</ele>
        <time>2020-07-04T21:29:01Z</time>
      </trkpt>
      <trkpt lat="43.78163" lon="6.23269">
        <ele>613</ele>
        <time>2020-07-04T21:29:04Z</time>
      </trkpt>
      <trkpt lat="43.7814" lon="6.2328">
        <ele>615</ele>
        <time>2020-07-04T21:29:08Z</time>
      </trkpt>
      <trkpt lat="43.78126" lon="6.23287">
        <ele>617</ele>
        <time>2020-07-04T21:29:11Z</time>
      </trkpt>
      <trkpt lat="43.78114" lon="6.23287">
        <ele>618</ele>
        <time>2020-07-04T21:29:13Z</time>
      </trkpt>
      <trkpt lat="43.78102" lon="6.23279">
        <ele>618</ele>
        <time>2020-07-04T21:29:15Z</time>
      </trkpt>
      <trkpt lat="43.78095" lon="6.23262">
        <ele>618</ele>
        <time>2020-07-04T21:29:18Z</time>
      </trkpt>
      <trkpt lat="43.78088" lon="6.23222">
        <ele>616</ele>
        <time>2020-07-04T21:29:23Z</time>
      </trkpt>
      <trkpt lat="43.78083" lon="6.23207">
        <ele>615</ele>
        <time>2020-07-04T21:29:25Z</time>
      </trkpt>
      <trkpt lat="43.78075" lon="6.23198">
        <ele>615</ele>
        <time>2020-07-04T21:29:27Z</time>
      </trkpt>
      <trkpt lat="43.78067" lon="6.23194">
        <ele>615</ele>
        <time>2020-07-04T21:29:29Z</time>
      </trkpt>
      <trkpt lat="43.78059" lon="6.23195">
        <ele>615</ele>
        <time>2020-07-04T21:29:30Z</time>
      </trkpt>
      <trkpt lat="43.78051" lon="6.232">
        <ele>616</ele>
        <time>2020-07-04T21:29:32Z</time>
      </trkpt>
      <trkpt lat="43.78047" lon="6.23205">
        <ele>617</ele>
        <time>2020-07-04T21:29:32Z</time>
      </trkpt>
      <trkpt lat="43.78032" lon="6.23237">
        <ele>620</ele>
        <time>2020-07-04T21:29:37Z</time>
      </trkpt>
      <trkpt lat="43.78022" lon="6.23245">
        <ele>622</ele>
        <time>2020-07-04T21:29:39Z</time>
      </trkpt>
      <trkpt lat="43.78013" lon="6.23247">
        <ele>623</ele>
        <time>2020-07-04T21:29:41Z</time>
      </trkpt>
      <trkpt lat="43.77984" lon="6.2324">
        <ele>623</ele>
        <time>2020-07-04T21:29:46Z</time>
      </trkpt>
      <trkpt lat="43.77975" lon="6.23241">
        <ele>623</ele>
        <time>2020-07-04T21:29:48Z</time>
      </trkpt>
      <trkpt lat="43.77967" lon="6.23246">
        <ele>624</ele>
        <time>2020-07-04T21:29:49Z</time>
      </trkpt>
      <trkpt lat="43.7796" lon="6.23255">
        <ele>625</ele>
        <time>2020-07-04T21:29:51Z</time>
      </trkpt>
      <trkpt lat="43.77926" lon="6.23314">
        <ele>629</ele>
        <time>2020-07-04T21:30:01Z</time>
      </trkpt>
      <trkpt lat="43.77921" lon="6.23321">
        <ele>629</ele>
        <time>2020-07-04T21:30:02Z</time>
      </trkpt>
      <trkpt lat="43.77911" lon="6.23328">
        <ele>630</ele>
        <time>2020-07-04T21:30:04Z</time>
      </trkpt>
      <trkpt lat="43.77901" lon="6.23328">
        <ele>631</ele>
        <time>2020-07-04T21:30:06Z</time>
      </trkpt>
      <trkpt lat="43.77895" lon="6.23326">
        <ele>632</ele>
        <time>2020-07-04T21:30:07Z</time>
      </trkpt>
      <trkpt lat="43.7789" lon="6.2332">
        <ele>632</ele>
        <time>2020-07-04T21:30:08Z</time>
      </trkpt>
      <trkpt lat="43.77885" lon="6.23306">
        <ele>632</ele>
        <time>2020-07-04T21:30:10Z</time>
      </trkpt>
      <trkpt lat="43.7788" lon="6.23272">
        <ele>630</ele>
        <time>2020-07-04T21:30:15Z</time>
      </trkpt>
      <trkpt lat="43.77877" lon="6.23265">
        <ele>630</ele>
        <time>2020-07-04T21:30:16Z</time>
      </trkpt>
      <trkpt lat="43.77873" lon="6.23261">
        <ele>630</ele>
        <time>2020-07-04T21:30:17Z</time>
      </trkpt>
      <trkpt lat="43.77862" lon="6.23256">
        <ele>631</ele>
        <time>2020-07-04T21:30:19Z</time>
      </trkpt>
      <trkpt lat="43.77826" lon="6.23255">
        <ele>634</ele>
        <time>2020-07-04T21:30:25Z</time>
      </trkpt>
      <trkpt lat="43.77776" lon="6.2325">
        <ele>636</ele>
        <time>2020-07-04T21:30:34Z</time>
      </trkpt>
      <trkpt lat="43.77764" lon="6.23253">
        <ele>637</ele>
        <time>2020-07-04T21:30:36Z</time>
      </trkpt>
      <trkpt lat="43.77756" lon="6.23262">
        <ele>639</ele>
        <time>2020-07-04T21:30:38Z</time>
      </trkpt>
      <trkpt lat="43.7775" lon="6.23276">
        <ele>640</ele>
        <time>2020-07-04T21:30:40Z</time>
      </trkpt>
      <trkpt lat="43.77746" lon="6.2331">
        <ele>643</ele>
        <time>2020-07-04T21:30:44Z</time>
      </trkpt>
      <trkpt lat="43.77744" lon="6.23322">
        <ele>645</ele>
        <time>2020-07-04T21:30:46Z</time>
      </trkpt>
      <trkpt lat="43.77736" lon="6.23335">
        <ele>647</ele>
        <time>2020-07-04T21:30:48Z</time>
      </trkpt>
      <trkpt lat="43.77731" lon="6.23339">
        <ele>648</ele>
        <time>2020-07-04T21:30:49Z</time>
      </trkpt>
      <trkpt lat="43.7772" lon="6.23338">
        <ele>649</ele>
        <time>2020-07-04T21:30:51Z</time>
      </trkpt>
      <trkpt lat="43.77714" lon="6.23334">
        <ele>649</ele>
        <time>2020-07-04T21:30:52Z</time>
      </trkpt>
      <trkpt lat="43.77691" lon="6.23302">
        <ele>649</ele>
        <time>2020-07-04T21:30:58Z</time>
      </trkpt>
      <trkpt lat="43.7767" lon="6.23272">
        <ele>648</ele>
        <time>2020-07-04T21:31:04Z</time>
      </trkpt>
      <trkpt lat="43.77667" lon="6.2327">
        <ele>648</ele>
        <time>2020-07-04T21:31:04Z</time>
      </trkpt>
      <trkpt lat="43.77659" lon="6.23265">
        <ele>648</ele>
        <time>2020-07-04T21:31:06Z</time>
      </trkpt>
      <trkpt lat="43.77644" lon="6.23264">
        <ele>649</ele>
        <time>2020-07-04T21:31:08Z</time>
      </trkpt>
      <trkpt lat="43.77642" lon="6.23264">
        <ele>649</ele>
        <time>2020-07-04T21:31:09Z</time>
      </trkpt>
      <trkpt lat="43.77631" lon="6.23268">
        <ele>650</ele>
        <time>2020-07-04T21:31:11Z</time>
      </trkpt>
      <trkpt lat="43.77561" lon="6.23293">
        <ele>657</ele>
        <time>2020-07-04T21:31:24Z</time>
      </trkpt>
      <trkpt lat="43.77549" lon="6.23299">
        <ele>658</ele>
        <time>2020-07-04T21:31:26Z</time>
      </trkpt>
      <trkpt lat="43.77537" lon="6.23307">
        <ele>659</ele>
        <time>2020-07-04T21:31:28Z</time>
      </trkpt>
      <trkpt lat="43.77504" lon="6.23335">
        <ele>663</ele>
        <time>2020-07-04T21:31:35Z</time>
      </trkpt>
      <trkpt lat="43.77487" lon="6.23345">
        <ele>665</ele>
        <time>2020-07-04T21:31:38Z</time>
      </trkpt>
      <trkpt lat="43.77471" lon="6.2335">
        <ele>666</ele>
        <time>2020-07-04T21:31:41Z</time>
      </trkpt>
      <trkpt lat="43.77453" lon="6.23349">
        <ele>666</ele>
        <time>2020-07-04T21:31:45Z</time>
      </trkpt>
      <trkpt lat="43.77438" lon="6.23344">
        <ele>666</ele>
        <time>2020-07-04T21:31:47Z</time>
      </trkpt>
      <trkpt lat="43.77368" lon="6.23303">
        <ele>670</ele>
        <time>2020-07-04T21:32:01Z</time>
      </trkpt>
      <trkpt lat="43.77361" lon="6.23296">
        <ele>670</ele>
        <time>2020-07-04T21:32:02Z</time>
      </trkpt>
      <trkpt lat="43.7735" lon="6.23278">
        <ele>671</ele>
        <time>2020-07-04T21:32:05Z</time>
      </trkpt>
      <trkpt lat="43.77329" lon="6.23219">
        <ele>671</ele>
        <time>2020-07-04T21:32:14Z</time>
      </trkpt>
      <trkpt lat="43.77325" lon="6.23214">
        <ele>671</ele>
        <time>2020-07-04T21:32:15Z</time>
      </trkpt>
      <trkpt lat="43.77316" lon="6.23207">
        <ele>671</ele>
        <time>2020-07-04T21:32:17Z</time>
      </trkpt>
      <trkpt lat="43.77305" lon="6.23206">
        <ele>672</ele>
        <time>2020-07-04T21:32:19Z</time>
      </trkpt>
      <trkpt lat="43.77294" lon="6.23214">
        <ele>674</ele>
        <time>2020-07-04T21:32:21Z</time>
      </trkpt>
      <trkpt lat="43.77291" lon="6.23221">
        <ele>674</ele>
        <time>2020-07-04T21:32:22Z</time>
      </trkpt>
      <trkpt lat="43.77289" lon="6.23235">
        <ele>676</ele>
        <time>2020-07-04T21:32:24Z</time>
      </trkpt>
      <trkpt lat="43.77291" lon="6.23254">
        <ele>677</ele>
        <time>2020-07-04T21:32:26Z</time>
      </trkpt>
      <trkpt lat="43.77299" lon="6.23275">
        <ele>678</ele>
        <time>2020-07-04T21:32:29Z</time>
      </trkpt>
      <trkpt lat="43.77304" lon="6.23297">
        <ele>679</ele>
        <time>2020-07-04T21:32:32Z</time>
      </trkpt>
      <trkpt lat="43.77306" lon="6.23325">
        <ele>680</ele>
        <time>2020-07-04T21:32:36Z</time>
      </trkpt>
      <trkpt lat="43.77307" lon="6.23336">
        <ele>681</ele>
        <time>2020-07-04T21:32:37Z</time>
      </trkpt>
      <trkpt lat="43.7731" lon="6.23346">
        <ele>681</ele>
        <time>2020-07-04T21:32:39Z</time>
      </trkpt>
      <trkpt lat="43.77369" lon="6.23452">
        <ele>687</ele>
        <time>2020-07-04T21:32:56Z</time>
      </trkpt>
      <trkpt lat="43.77396" lon="6.23529">
        <ele>692</ele>
        <time>2020-07-04T21:33:07Z</time>
      </trkpt>
      <trkpt lat="43.77454" lon="6.23636">
        <ele>703</ele>
        <time>2020-07-04T21:33:24Z</time>
      </trkpt>
      <trkpt lat="43.77463" lon="6.2365">
        <ele>704</ele>
        <time>2020-07-04T21:33:26Z</time>
      </trkpt>
      <trkpt lat="43.77474" lon="6.23657">
        <ele>704</ele>
        <time>2020-07-04T21:33:29Z</time>
      </trkpt>
      <trkpt lat="43.77484" lon="6.23657">
        <ele>703</ele>
        <time>2020-07-04T21:33:30Z</time>
      </trkpt>
      <trkpt lat="43.77493" lon="6.2365">
        <ele>701</ele>
        <time>2020-07-04T21:33:32Z</time>
      </trkpt>
      <trkpt lat="43.77514" lon="6.23625">
        <ele>697</ele>
        <time>2020-07-04T21:33:37Z</time>
      </trkpt>
      <trkpt lat="43.77524" lon="6.23622">
        <ele>697</ele>
        <time>2020-07-04T21:33:39Z</time>
      </trkpt>
      <trkpt lat="43.77528" lon="6.23623">
        <ele>697</ele>
        <time>2020-07-04T21:33:40Z</time>
      </trkpt>
      <trkpt lat="43.77532" lon="6.23627">
        <ele>697</ele>
        <time>2020-07-04T21:33:41Z</time>
      </trkpt>
      <trkpt lat="43.77538" lon="6.23623">
        <ele>697</ele>
        <time>2020-07-04T21:33:42Z</time>
      </trkpt>
      <trkpt lat="43.77555" lon="6.23622">
        <ele>697</ele>
        <time>2020-07-04T21:33:45Z</time>
      </trkpt>
      <trkpt lat="43.77558" lon="6.23623">
        <ele>697</ele>
        <time>2020-07-04T21:33:45Z</time>
      </trkpt>
      <trkpt lat="43.77561" lon="6.23626">
        <ele>697</ele>
        <time>2020-07-04T21:33:46Z</time>
      </trkpt>
      <trkpt lat="43.77565" lon="6.23637">
        <ele>698</ele>
        <time>2020-07-04T21:33:48Z</time>
      </trkpt>
      <trkpt lat="43.77561" lon="6.23647">
        <ele>699</ele>
        <time>2020-07-04T21:33:49Z</time>
      </trkpt>
      <trkpt lat="43.77561" lon="6.23667">
        <ele>701</ele>
        <time>2020-07-04T21:33:52Z</time>
      </trkpt>
      <trkpt lat="43.77571" lon="6.2374">
        <ele>710</ele>
        <time>2020-07-04T21:34:01Z</time>
      </trkpt>
      <trkpt lat="43.77586" lon="6.23766">
        <ele>712</ele>
        <time>2020-07-04T21:34:05Z</time>
      </trkpt>
      <trkpt lat="43.77604" lon="6.23791">
        <ele>714</ele>
        <time>2020-07-04T21:34:10Z</time>
      </trkpt>
      <trkpt lat="43.77648" lon="6.23833">
        <ele>715</ele>
        <time>2020-07-04T21:34:19Z</time>
      </trkpt>
      <trkpt lat="43.77659" lon="6.23846">
        <ele>715</ele>
        <time>2020-07-04T21:34:22Z</time>
      </trkpt>
      <trkpt lat="43.7766" lon="6.23854">
        <ele>716</ele>
        <time>2020-07-04T21:34:23Z</time>
      </trkpt>
      <trkpt lat="43.77658" lon="6.23861">
        <ele>717</ele>
        <time>2020-07-04T21:34:24Z</time>
      </trkpt>
      <trkpt lat="43.77658" lon="6.23875">
        <ele>719</ele>
        <time>2020-07-04T21:34:26Z</time>
      </trkpt>
      <trkpt lat="43.77663" lon="6.23904">
        <ele>723</ele>
        <time>2020-07-04T21:34:30Z</time>
      </trkpt>
      <trkpt lat="43.77662" lon="6.23923">
        <ele>726</ele>
        <time>2020-07-04T21:34:32Z</time>
      </trkpt>
      <trkpt lat="43.77655" lon="6.23958">
        <ele>732</ele>
        <time>2020-07-04T21:34:37Z</time>
      </trkpt>
      <trkpt lat="43.7765" lon="6.23972">
        <ele>734</ele>
        <time>2020-07-04T21:34:39Z</time>
      </trkpt>
      <trkpt lat="43.77651" lon="6.23992">
        <ele>737</ele>
        <time>2020-07-04T21:34:41Z</time>
      </trkpt>
      <trkpt lat="43.77658" lon="6.24003">
        <ele>738</ele>
        <time>2020-07-04T21:34:43Z</time>
      </trkpt>
      <trkpt lat="43.77662" lon="6.24012">
        <ele>739</ele>
        <time>2020-07-04T21:34:45Z</time>
      </trkpt>
      <trkpt lat="43.77665" lon="6.24039">
        <ele>743</ele>
        <time>2020-07-04T21:34:48Z</time>
      </trkpt>
      <trkpt lat="43.77671" lon="6.24071">
        <ele>748</ele>
        <time>2020-07-04T21:34:52Z</time>
      </trkpt>
      <trkpt lat="43.7767" lon="6.2409">
        <ele>752</ele>
        <time>2020-07-04T21:34:55Z</time>
      </trkpt>
      <trkpt lat="43.77643" lon="6.24077">
        <ele>752</ele>
        <time>2020-07-04T21:35:00Z</time>
      </trkpt>
      <trkpt lat="43.77636" lon="6.24075">
        <ele>753</ele>
        <time>2020-07-04T21:35:01Z</time>
      </trkpt>
      <trkpt lat="43.77614" lon="6.24078">
        <ele>756</ele>
        <time>2020-07-04T21:35:05Z</time>
      </trkpt>
      <trkpt lat="43.77604" lon="6.24082">
        <ele>758</ele>
        <time>2020-07-04T21:35:07Z</time>
      </trkpt>
      <trkpt lat="43.77595" lon="6.24089">
        <ele>759</ele>
        <time>2020-07-04T21:35:09Z</time>
      </trkpt>
      <trkpt lat="43.77584" lon="6.24094">
        <ele>761</ele>
        <time>2020-07-04T21:35:11Z</time>
      </trkpt>
      <trkpt lat="43.7757" lon="6.24099">
        <ele>763</ele>
        <time>2020-07-04T21:35:13Z</time>
      </trkpt>
      <trkpt lat="43.77581" lon="6.2413">
        <ele>764</ele>
        <time>2020-07-04T21:35:18Z</time>
      </trkpt>
      <trkpt lat="43.77586" lon="6.2414">
        <ele>765</ele>
        <time>2020-07-04T21:35:19Z</time>
      </trkpt>
      <trkpt lat="43.77586" lon="6.24225">
        <ele>775</ele>
        <time>2020-07-04T21:35:30Z</time>
      </trkpt>
      <trkpt lat="43.77584" lon="6.24239">
        <ele>777</ele>
        <time>2020-07-04T21:35:32Z</time>
      </trkpt>
      <trkpt lat="43.7756" lon="6.24271">
        <ele>783</ele>
        <time>2020-07-04T21:35:38Z</time>
      </trkpt>
      <trkpt lat="43.77569" lon="6.2427">
        <ele>782</ele>
        <time>2020-07-04T21:35:40Z</time>
      </trkpt>
      <trkpt lat="43.77583" lon="6.24263">
        <ele>781</ele>
        <time>2020-07-04T21:35:42Z</time>
      </trkpt>
      <trkpt lat="43.77609" lon="6.24245">
        <ele>779</ele>
        <time>2020-07-04T21:35:48Z</time>
      </trkpt>
      <trkpt lat="43.7762" lon="6.2424">
        <ele>779</ele>
        <time>2020-07-04T21:35:50Z</time>
      </trkpt>
      <trkpt lat="43.77629" lon="6.24239">
        <ele>779</ele>
        <time>2020-07-04T21:35:51Z</time>
      </trkpt>
      <trkpt lat="43.77638" lon="6.24243">
        <ele>780</ele>
        <time>2020-07-04T21:35:53Z</time>
      </trkpt>
      <trkpt lat="43.77643" lon="6.24253">
        <ele>782</ele>
        <time>2020-07-04T21:35:54Z</time>
      </trkpt>
      <trkpt lat="43.77643" lon="6.24261">
        <ele>784</ele>
        <time>2020-07-04T21:35:55Z</time>
      </trkpt>
      <trkpt lat="43.77642" lon="6.24274">
        <ele>786</ele>
        <time>2020-07-04T21:35:57Z</time>
      </trkpt>
      <trkpt lat="43.77636" lon="6.24284">
        <ele>788</ele>
        <time>2020-07-04T21:35:59Z</time>
      </trkpt>
      <trkpt lat="43.77647" lon="6.24306">
        <ele>793</ele>
        <time>2020-07-04T21:36:02Z</time>
      </trkpt>
      <trkpt lat="43.77646" lon="6.24313">
        <ele>795</ele>
        <time>2020-07-04T21:36:03Z</time>
      </trkpt>
      <trkpt lat="43.77652" lon="6.24317">
        <ele>796</ele>
        <time>2020-07-04T21:36:04Z</time>
      </trkpt>
      <trkpt lat="43.77654" lon="6.24325">
        <ele>798</ele>
        <time>2020-07-04T21:36:05Z</time>
      </trkpt>
      <trkpt lat="43.7764" lon="6.24332">
        <ele>798</ele>
        <time>2020-07-04T21:36:08Z</time>
      </trkpt>
      <trkpt lat="43.77642" lon="6.24349">
        <ele>803</ele>
        <time>2020-07-04T21:36:10Z</time>
      </trkpt>
      <trkpt lat="43.77652" lon="6.24344">
        <ele>802</ele>
        <time>2020-07-04T21:36:12Z</time>
      </trkpt>
      <trkpt lat="43.77685" lon="6.24339">
        <ele>800</ele>
        <time>2020-07-04T21:36:18Z</time>
      </trkpt>
      <trkpt lat="43.77699" lon="6.24334">
        <ele>797</ele>
        <time>2020-07-04T21:36:21Z</time>
      </trkpt>
      <trkpt lat="43.77716" lon="6.24334">
        <ele>795</ele>
        <time>2020-07-04T21:36:24Z</time>
      </trkpt>
      <trkpt lat="43.77732" lon="6.24338">
        <ele>794</ele>
        <time>2020-07-04T21:36:27Z</time>
      </trkpt>
      <trkpt lat="43.7774" lon="6.24344">
        <ele>794</ele>
        <time>2020-07-04T21:36:28Z</time>
      </trkpt>
      <trkpt lat="43.77734" lon="6.24353">
        <ele>796</ele>
        <time>2020-07-04T21:36:30Z</time>
      </trkpt>
      <trkpt lat="43.77726" lon="6.24379">
        <ele>802</ele>
        <time>2020-07-04T21:36:33Z</time>
      </trkpt>
      <trkpt lat="43.77713" lon="6.24394">
        <ele>806</ele>
        <time>2020-07-04T21:36:36Z</time>
      </trkpt>
      <trkpt lat="43.77704" lon="6.24418">
        <ele>812</ele>
        <time>2020-07-04T21:36:40Z</time>
      </trkpt>
      <trkpt lat="43.77693" lon="6.2443">
        <ele>815</ele>
        <time>2020-07-04T21:36:42Z</time>
      </trkpt>
      <trkpt lat="43.7768" lon="6.24441">
        <ele>818</ele>
        <time>2020-07-04T21:36:45Z</time>
      </trkpt>
      <trkpt lat="43.77645" lon="6.24447">
        <ele>822</ele>
        <time>2020-07-04T21:36:51Z</time>
      </trkpt>
      <trkpt lat="43.77622" lon="6.24469">
        <ele>826</ele>
        <time>2020-07-04T21:36:56Z</time>
      </trkpt>
      <trkpt lat="43.77603" lon="6.2448">
        <ele>829</ele>
        <time>2020-07-04T21:37:00Z</time>
      </trkpt>
      <trkpt lat="43.77595" lon="6.24478">
        <ele>830</ele>
        <time>2020-07-04T21:37:01Z</time>
      </trkpt>
      <trkpt lat="43.77591" lon="6.24489">
        <ele>832</ele>
        <time>2020-07-04T21:37:03Z</time>
      </trkpt>
      <trkpt lat="43.77588" lon="6.245">
        <ele>835</ele>
        <time>2020-07-04T21:37:05Z</time>
      </trkpt>
      <trkpt lat="43.77587" lon="6.24516">
        <ele>836</ele>
        <time>2020-07-04T21:37:07Z</time>
      </trkpt>
      <trkpt lat="43.77586" lon="6.24556">
        <ele>839</ele>
        <time>2020-07-04T21:37:12Z</time>
      </trkpt>
      <trkpt lat="43.77585" lon="6.24607">
        <ele>844</ele>
        <time>2020-07-04T21:37:18Z</time>
      </trkpt>
      <trkpt lat="43.77586" lon="6.24635">
        <ele>847</ele>
        <time>2020-07-04T21:37:22Z</time>
      </trkpt>
      <trkpt lat="43.77591" lon="6.2465">
        <ele>848</ele>
        <time>2020-07-04T21:37:24Z</time>
      </trkpt>
      <trkpt lat="43.776" lon="6.24663">
        <ele>848</ele>
        <time>2020-07-04T21:37:26Z</time>
      </trkpt>
      <trkpt lat="43.77619" lon="6.24683">
        <ele>848</ele>
        <time>2020-07-04T21:37:31Z</time>
      </trkpt>
      <trkpt lat="43.77666" lon="6.24748">
        <ele>854</ele>
        <time>2020-07-04T21:37:42Z</time>
      </trkpt>
      <trkpt lat="43.777" lon="6.24789">
        <ele>853</ele>
        <time>2020-07-04T21:37:50Z</time>
      </trkpt>
      <trkpt lat="43.77707" lon="6.24802">
        <ele>854</ele>
        <time>2020-07-04T21:37:53Z</time>
      </trkpt>
      <trkpt lat="43.77716" lon="6.24832">
        <ele>855</ele>
        <time>2020-07-04T21:37:57Z</time>
      </trkpt>
      <trkpt lat="43.77717" lon="6.24847">
        <ele>855</ele>
        <time>2020-07-04T21:37:59Z</time>
      </trkpt>
      <trkpt lat="43.77716" lon="6.24863">
        <ele>855</ele>
        <time>2020-07-04T21:38:01Z</time>
      </trkpt>
      <trkpt lat="43.77712" lon="6.24895">
        <ele>857</ele>
        <time>2020-07-04T21:38:05Z</time>
      </trkpt>
      <trkpt lat="43.77672" lon="6.24988">
        <ele>869</ele>
        <time>2020-07-04T21:38:19Z</time>
      </trkpt>
      <trkpt lat="43.77665" lon="6.25">
        <ele>872</ele>
        <time>2020-07-04T21:38:21Z</time>
      </trkpt>
      <trkpt lat="43.77654" lon="6.25021">
        <ele>877</ele>
        <time>2020-07-04T21:38:24Z</time>
      </trkpt>
      <trkpt lat="43.77651" lon="6.25031">
        <ele>878</ele>
        <time>2020-07-04T21:38:25Z</time>
      </trkpt>
      <trkpt lat="43.77644" lon="6.25075">
        <ele>881</ele>
        <time>2020-07-04T21:38:31Z</time>
      </trkpt>
      <trkpt lat="43.77637" lon="6.25185">
        <ele>884</ele>
        <time>2020-07-04T21:38:45Z</time>
      </trkpt>
      <trkpt lat="43.7763" lon="6.25226">
        <ele>887</ele>
        <time>2020-07-04T21:38:51Z</time>
      </trkpt>
      <trkpt lat="43.77603" lon="6.25301">
        <ele>894</ele>
        <time>2020-07-04T21:39:02Z</time>
      </trkpt>
      <trkpt lat="43.77586" lon="6.2533">
        <ele>899</ele>
        <time>2020-07-04T21:39:06Z</time>
      </trkpt>
      <trkpt lat="43.77564" lon="6.25383">
        <ele>906</ele>
        <time>2020-07-04T21:39:14Z</time>
      </trkpt>
      <trkpt lat="43.7755" lon="6.25408">
        <ele>912</ele>
        <time>2020-07-04T21:39:18Z</time>
      </trkpt>
      <trkpt lat="43.77546" lon="6.25417">
        <ele>913</ele>
        <time>2020-07-04T21:39:20Z</time>
      </trkpt>
      <trkpt lat="43.77538" lon="6.25477">
        <ele>910</ele>
        <time>2020-07-04T21:39:28Z</time>
      </trkpt>
      <trkpt lat="43.77528" lon="6.25505">
        <ele>913</ele>
        <time>2020-07-04T21:39:32Z</time>
      </trkpt>
      <trkpt lat="43.77518" lon="6.25529">
        <ele>920</ele>
        <time>2020-07-04T21:39:35Z</time>
      </trkpt>
      <trkpt lat="43.77515" lon="6.25541">
        <ele>922</ele>
        <time>2020-07-04T21:39:37Z</time>
      </trkpt>
      <trkpt lat="43.77517" lon="6.25568">
        <ele>923</ele>
        <time>2020-07-04T21:39:40Z</time>
      </trkpt>
      <trkpt lat="43.77528" lon="6.25635">
        <ele>924</ele>
        <time>2020-07-04T21:39:49Z</time>
      </trkpt>
      <trkpt lat="43.77528" lon="6.25651">
        <ele>926</ele>
        <time>2020-07-04T21:39:51Z</time>
      </trkpt>
      <trkpt lat="43.77526" lon="6.25687">
        <ele>933</ele>
        <time>2020-07-04T21:39:56Z</time>
      </trkpt>
      <trkpt lat="43.77528" lon="6.25698">
        <ele>934</ele>
        <time>2020-07-04T21:39:57Z</time>
      </trkpt>
      <trkpt lat="43.77534" lon="6.2571">
        <ele>934</ele>
        <time>2020-07-04T21:39:59Z</time>
      </trkpt>
      <trkpt lat="43.77554" lon="6.25739">
        <ele>931</ele>
        <time>2020-07-04T21:40:04Z</time>
      </trkpt>
      <trkpt lat="43.7756" lon="6.2575">
        <ele>931</ele>
        <time>2020-07-04T21:40:06Z</time>
      </trkpt>
      <trkpt lat="43.77562" lon="6.2576">
        <ele>933</ele>
        <time>2020-07-04T21:40:07Z</time>
      </trkpt>
      <trkpt lat="43.77566" lon="6.25777">
        <ele>936</ele>
        <time>2020-07-04T21:40:10Z</time>
      </trkpt>
      <trkpt lat="43.77572" lon="6.25786">
        <ele>936</ele>
        <time>2020-07-04T21:40:11Z</time>
      </trkpt>
      <trkpt lat="43.77577" lon="6.25791">
        <ele>935</ele>
        <time>2020-07-04T21:40:12Z</time>
      </trkpt>
      <trkpt lat="43.77582" lon="6.25791">
        <ele>933</ele>
        <time>2020-07-04T21:40:13Z</time>
      </trkpt>
      <trkpt lat="43.7759" lon="6.2579">
        <ele>934</ele>
        <time>2020-07-04T21:40:15Z</time>
      </trkpt>
      <trkpt lat="43.77608" lon="6.25781">
        <ele>934</ele>
        <time>2020-07-04T21:40:18Z</time>
      </trkpt>
      <trkpt lat="43.77644" lon="6.25753">
        <ele>930</ele>
        <time>2020-07-04T21:40:25Z</time>
      </trkpt>
      <trkpt lat="43.77656" lon="6.25747">
        <ele>930</ele>
        <time>2020-07-04T21:40:28Z</time>
      </trkpt>
      <trkpt lat="43.77677" lon="6.2574">
        <ele>931</ele>
        <time>2020-07-04T21:40:32Z</time>
      </trkpt>
      <trkpt lat="43.77736" lon="6.2571">
        <ele>934</ele>
        <time>2020-07-04T21:40:43Z</time>
      </trkpt>
      <trkpt lat="43.77749" lon="6.257">
        <ele>933</ele>
        <time>2020-07-04T21:40:45Z</time>
      </trkpt>
      <trkpt lat="43.77764" lon="6.25683">
        <ele>931</ele>
        <time>2020-07-04T21:40:49Z</time>
      </trkpt>
      <trkpt lat="43.77772" lon="6.25685">
        <ele>934</ele>
        <time>2020-07-04T21:40:50Z</time>
      </trkpt>
      <trkpt lat="43.77773" lon="6.25691">
        <ele>937</ele>
        <time>2020-07-04T21:40:51Z</time>
      </trkpt>
      <trkpt lat="43.77769" lon="6.25699">
        <ele>939</ele>
        <time>2020-07-04T21:40:52Z</time>
      </trkpt>
      <trkpt lat="43.77744" lon="6.25719">
        <ele>940</ele>
        <time>2020-07-04T21:40:57Z</time>
      </trkpt>
      <trkpt lat="43.77728" lon="6.25735">
        <ele>942</ele>
        <time>2020-07-04T21:41:01Z</time>
      </trkpt>
      <trkpt lat="43.77652" lon="6.258">
        <ele>947</ele>
        <time>2020-07-04T21:41:17Z</time>
      </trkpt>
      <trkpt lat="43.77643" lon="6.25813">
        <ele>950</ele>
        <time>2020-07-04T21:41:19Z</time>
      </trkpt>
      <trkpt lat="43.77631" lon="6.2584">
        <ele>954</ele>
        <time>2020-07-04T21:41:23Z</time>
      </trkpt>
      <trkpt lat="43.77615" lon="6.25867">
        <ele>953</ele>
        <time>2020-07-04T21:41:28Z</time>
      </trkpt>
      <trkpt lat="43.77608" lon="6.25876">
        <ele>953</ele>
        <time>2020-07-04T21:41:29Z</time>
      </trkpt>
      <trkpt lat="43.77552" lon="6.25931">
        <ele>963</ele>
        <time>2020-07-04T21:41:42Z</time>
      </trkpt>
      <trkpt lat="43.77546" lon="6.2594">
        <ele>964</ele>
        <time>2020-07-04T21:41:43Z</time>
      </trkpt>
      <trkpt lat="43.77542" lon="6.25952">
        <ele>964</ele>
        <time>2020-07-04T21:41:45Z</time>
      </trkpt>
      <trkpt lat="43.7754" lon="6.25972">
        <ele>963</ele>
        <time>2020-07-04T21:41:47Z</time>
      </trkpt>
      <trkpt lat="43.77542" lon="6.25986">
        <ele>960</ele>
        <time>2020-07-04T21:41:49Z</time>
      </trkpt>
      <trkpt lat="43.77551" lon="6.26023">
        <ele>951</ele>
        <time>2020-07-04T21:41:54Z</time>
      </trkpt>
      <trkpt lat="43.77549" lon="6.26033">
        <ele>949</ele>
        <time>2020-07-04T21:41:56Z</time>
      </trkpt>
      <trkpt lat="43.77544" lon="6.26039">
        <ele>949</ele>
        <time>2020-07-04T21:41:57Z</time>
      </trkpt>
      <trkpt lat="43.77539" lon="6.2604">
        <ele>950</ele>
        <time>2020-07-04T21:41:58Z</time>
      </trkpt>
      <trkpt lat="43.77532" lon="6.26039">
        <ele>953</ele>
        <time>2020-07-04T21:41:59Z</time>
      </trkpt>
      <trkpt lat="43.77524" lon="6.2603">
        <ele>957</ele>
        <time>2020-07-04T21:42:01Z</time>
      </trkpt>
      <trkpt lat="43.77523" lon="6.26024">
        <ele>959</ele>
        <time>2020-07-04T21:42:02Z</time>
      </trkpt>
      <trkpt lat="43.77523" lon="6.26015">
        <ele>961</ele>
        <time>2020-07-04T21:42:03Z</time>
      </trkpt>
      <trkpt lat="43.77524" lon="6.25997">
        <ele>965</ele>
        <time>2020-07-04T21:42:05Z</time>
      </trkpt>
      <trkpt lat="43.77523" lon="6.25959">
        <ele>969</ele>
        <time>2020-07-04T21:42:10Z</time>
      </trkpt>
      <trkpt lat="43.77519" lon="6.25934">
        <ele>973</ele>
        <time>2020-07-04T21:42:13Z</time>
      </trkpt>
      <trkpt lat="43.775" lon="6.25899">
        <ele>978</ele>
        <time>2020-07-04T21:42:19Z</time>
      </trkpt>
      <trkpt lat="43.77452" lon="6.25819">
        <ele>993</ele>
        <time>2020-07-04T21:42:32Z</time>
      </trkpt>
      <trkpt lat="43.77433" lon="6.2578">
        <ele>997</ele>
        <time>2020-07-04T21:42:38Z</time>
      </trkpt>
      <trkpt lat="43.77424" lon="6.25746">
        <ele>997</ele>
        <time>2020-07-04T21:42:43Z</time>
      </trkpt>
      <trkpt lat="43.7742" lon="6.25697">
        <ele>995</ele>
        <time>2020-07-04T21:42:49Z</time>
      </trkpt>
      <trkpt lat="43.77419" lon="6.25652">
        <ele>990</ele>
        <time>2020-07-04T21:42:55Z</time>
      </trkpt>
      <trkpt lat="43.77417" lon="6.25643">
        <ele>990</ele>
        <time>2020-07-04T21:42:56Z</time>
      </trkpt>
      <trkpt lat="43.77411" lon="6.2563">
        <ele>990</ele>
        <time>2020-07-04T21:42:58Z</time>
      </trkpt>
      <trkpt lat="43.77405" lon="6.25624">
        <ele>991</ele>
        <time>2020-07-04T21:43:00Z</time>
      </trkpt>
      <trkpt lat="43.77398" lon="6.25621">
        <ele>993</ele>
        <time>2020-07-04T21:43:01Z</time>
      </trkpt>
      <trkpt lat="43.77391" lon="6.25621">
        <ele>995</ele>
        <time>2020-07-04T21:43:02Z</time>
      </trkpt>
      <trkpt lat="43.77382" lon="6.25624">
        <ele>998</ele>
        <time>2020-07-04T21:43:04Z</time>
      </trkpt>
      <trkpt lat="43.77338" lon="6.25652">
        <ele>1012</ele>
        <time>2020-07-04T21:43:12Z</time>
      </trkpt>
      <trkpt lat="43.77306" lon="6.25671">
        <ele>1017</ele>
        <time>2020-07-04T21:43:19Z</time>
      </trkpt>
      <trkpt lat="43.77299" lon="6.25673">
        <ele>1018</ele>
        <time>2020-07-04T21:43:20Z</time>
      </trkpt>
      <trkpt lat="43.77292" lon="6.25675">
        <ele>1019</ele>
        <time>2020-07-04T21:43:21Z</time>
      </trkpt>
      <trkpt lat="43.77273" lon="6.25671">
        <ele>1020</ele>
        <time>2020-07-04T21:43:25Z</time>
      </trkpt>
      <trkpt lat="43.77261" lon="6.2567">
        <ele>1021</ele>
        <time>2020-07-04T21:43:27Z</time>
      </trkpt>
      <trkpt lat="43.77257" lon="6.25673">
        <ele>1022</ele>
        <time>2020-07-04T21:43:27Z</time>
      </trkpt>
      <trkpt lat="43.77254" lon="6.25676">
        <ele>1023</ele>
        <time>2020-07-04T21:43:28Z</time>
      </trkpt>
      <trkpt lat="43.77253" lon="6.25682">
        <ele>1024</ele>
        <time>2020-07-04T21:43:29Z</time>
      </trkpt>
      <trkpt lat="43.77255" lon="6.25687">
        <ele>1024</ele>
        <time>2020-07-04T21:43:30Z</time>
      </trkpt>
      <trkpt lat="43.77258" lon="6.25692">
        <ele>1025</ele>
        <time>2020-07-04T21:43:31Z</time>
      </trkpt>
      <trkpt lat="43.77263" lon="6.25695">
        <ele>1025</ele>
        <time>2020-07-04T21:43:31Z</time>
      </trkpt>
      <trkpt lat="43.77289" lon="6.25697">
        <ele>1022</ele>
        <time>2020-07-04T21:43:36Z</time>
      </trkpt>
      <trkpt lat="43.77349" lon="6.25714">
        <ele>1016</ele>
        <time>2020-07-04T21:43:47Z</time>
      </trkpt>
      <trkpt lat="43.77377" lon="6.25717">
        <ele>1009</ele>
        <time>2020-07-04T21:43:52Z</time>
      </trkpt>
      <trkpt lat="43.77384" lon="6.25724">
        <ele>1008</ele>
        <time>2020-07-04T21:43:54Z</time>
      </trkpt>
      <trkpt lat="43.77385" lon="6.25729">
        <ele>1009</ele>
        <time>2020-07-04T21:43:54Z</time>
      </trkpt>
      <trkpt lat="43.77385" lon="6.25735">
        <ele>1009</ele>
        <time>2020-07-04T21:43:55Z</time>
      </trkpt>
      <trkpt lat="43.77379" lon="6.2574">
        <ele>1012</ele>
        <time>2020-07-04T21:43:56Z</time>
      </trkpt>
      <trkpt lat="43.77374" lon="6.25741">
        <ele>1013</ele>
        <time>2020-07-04T21:43:57Z</time>
      </trkpt>
      <trkpt lat="43.77359" lon="6.25737">
        <ele>1017</ele>
        <time>2020-07-04T21:44:00Z</time>
      </trkpt>
      <trkpt lat="43.77343" lon="6.25739">
        <ele>1022</ele>
        <time>2020-07-04T21:44:03Z</time>
      </trkpt>
      <trkpt lat="43.77308" lon="6.25758">
        <ele>1030</ele>
        <time>2020-07-04T21:44:09Z</time>
      </trkpt>
      <trkpt lat="43.77293" lon="6.25761">
        <ele>1032</ele>
        <time>2020-07-04T21:44:12Z</time>
      </trkpt>
      <trkpt lat="43.77282" lon="6.25761">
        <ele>1033</ele>
        <time>2020-07-04T21:44:14Z</time>
      </trkpt>
      <trkpt lat="43.77229" lon="6.25751">
        <ele>1038</ele>
        <time>2020-07-04T21:44:24Z</time>
      </trkpt>
      <trkpt lat="43.77188" lon="6.25733">
        <ele>1043</ele>
        <time>2020-07-04T21:44:31Z</time>
      </trkpt>
      <trkpt lat="43.77136" lon="6.25717">
        <ele>1053</ele>
        <time>2020-07-04T21:44:41Z</time>
      </trkpt>
      <trkpt lat="43.77122" lon="6.25708">
        <ele>1055</ele>
        <time>2020-07-04T21:44:43Z</time>
      </trkpt>
      <trkpt lat="43.77117" lon="6.25702">
        <ele>1056</ele>
        <time>2020-07-04T21:44:45Z</time>
      </trkpt>
      <trkpt lat="43.77114" lon="6.25692">
        <ele>1056</ele>
        <time>2020-07-04T21:44:46Z</time>
      </trkpt>
      <trkpt lat="43.77111" lon="6.25668">
        <ele>1054</ele>
        <time>2020-07-04T21:44:49Z</time>
      </trkpt>
      <trkpt lat="43.7711" lon="6.25616">
        <ele>1055</ele>
        <time>2020-07-04T21:44:56Z</time>
      </trkpt>
      <trkpt lat="43.77108" lon="6.25608">
        <ele>1056</ele>
        <time>2020-07-04T21:44:57Z</time>
      </trkpt>
      <trkpt lat="43.77105" lon="6.25601">
        <ele>1056</ele>
        <time>2020-07-04T21:44:58Z</time>
      </trkpt>
      <trkpt lat="43.771" lon="6.25597">
        <ele>1057</ele>
        <time>2020-07-04T21:44:59Z</time>
      </trkpt>
      <trkpt lat="43.77095" lon="6.25596">
        <ele>1058</ele>
        <time>2020-07-04T21:45:00Z</time>
      </trkpt>
      <trkpt lat="43.7709" lon="6.25598">
        <ele>1059</ele>
        <time>2020-07-04T21:45:01Z</time>
      </trkpt>
      <trkpt lat="43.77085" lon="6.25602">
        <ele>1060</ele>
        <time>2020-07-04T21:45:02Z</time>
      </trkpt>
      <trkpt lat="43.77083" lon="6.25608">
        <ele>1060</ele>
        <time>2020-07-04T21:45:03Z</time>
      </trkpt>
      <trkpt lat="43.77082" lon="6.25613">
        <ele>1060</ele>
        <time>2020-07-04T21:45:03Z</time>
      </trkpt>
      <trkpt lat="43.77082" lon="6.25617">
        <ele>1060</ele>
        <time>2020-07-04T21:45:04Z</time>
      </trkpt>
      <trkpt lat="43.77081" lon="6.25642">
        <ele>1061</ele>
        <time>2020-07-04T21:45:07Z</time>
      </trkpt>
      <trkpt lat="43.77076" lon="6.25676">
        <ele>1063</ele>
        <time>2020-07-04T21:45:12Z</time>
      </trkpt>
      <trkpt lat="43.77076" lon="6.25687">
        <ele>1065</ele>
        <time>2020-07-04T21:45:13Z</time>
      </trkpt>
      <trkpt lat="43.77093" lon="6.25749">
        <ele>1068</ele>
        <time>2020-07-04T21:45:21Z</time>
      </trkpt>
      <trkpt lat="43.77099" lon="6.25759">
        <ele>1069</ele>
        <time>2020-07-04T21:45:23Z</time>
      </trkpt>
      <trkpt lat="43.77106" lon="6.25767">
        <ele>1069</ele>
        <time>2020-07-04T21:45:25Z</time>
      </trkpt>
      <trkpt lat="43.77134" lon="6.25796">
        <ele>1068</ele>
        <time>2020-07-04T21:45:31Z</time>
      </trkpt>
      <trkpt lat="43.77152" lon="6.25824">
        <ele>1072</ele>
        <time>2020-07-04T21:45:36Z</time>
      </trkpt>
      <trkpt lat="43.77174" lon="6.25868">
        <ele>1072</ele>
        <time>2020-07-04T21:45:43Z</time>
      </trkpt>
      <trkpt lat="43.77178" lon="6.2589">
        <ele>1072</ele>
        <time>2020-07-04T21:45:46Z</time>
      </trkpt>
      <trkpt lat="43.77179" lon="6.25911">
        <ele>1073</ele>
        <time>2020-07-04T21:45:48Z</time>
      </trkpt>
      <trkpt lat="43.77177" lon="6.25921">
        <ele>1073</ele>
        <time>2020-07-04T21:45:50Z</time>
      </trkpt>
      <trkpt lat="43.77173" lon="6.2593">
        <ele>1072</ele>
        <time>2020-07-04T21:45:51Z</time>
      </trkpt>
      <trkpt lat="43.77144" lon="6.25958">
        <ele>1076</ele>
        <time>2020-07-04T21:45:57Z</time>
      </trkpt>
      <trkpt lat="43.77132" lon="6.25978">
        <ele>1077</ele>
        <time>2020-07-04T21:46:01Z</time>
      </trkpt>
      <trkpt lat="43.7711" lon="6.26008">
        <ele>1082</ele>
        <time>2020-07-04T21:46:06Z</time>
      </trkpt>
      <trkpt lat="43.771" lon="6.26032">
        <ele>1080</ele>
        <time>2020-07-04T21:46:10Z</time>
      </trkpt>
      <trkpt lat="43.77096" lon="6.26037">
        <ele>1080</ele>
        <time>2020-07-04T21:46:11Z</time>
      </trkpt>
      <trkpt lat="43.77072" lon="6.26047">
        <ele>1087</ele>
        <time>2020-07-04T21:46:15Z</time>
      </trkpt>
      <trkpt lat="43.7706" lon="6.26054">
        <ele>1088</ele>
        <time>2020-07-04T21:46:17Z</time>
      </trkpt>
      <trkpt lat="43.77034" lon="6.26083">
        <ele>1088</ele>
        <time>2020-07-04T21:46:23Z</time>
      </trkpt>
      <trkpt lat="43.77028" lon="6.26085">
        <ele>1089</ele>
        <time>2020-07-04T21:46:24Z</time>
      </trkpt>
      <trkpt lat="43.77021" lon="6.26085">
        <ele>1091</ele>
        <time>2020-07-04T21:46:26Z</time>
      </trkpt>
      <trkpt lat="43.76985" lon="6.26072">
        <ele>1106</ele>
        <time>2020-07-04T21:46:32Z</time>
      </trkpt>
      <trkpt lat="43.76979" lon="6.26073">
        <ele>1107</ele>
        <time>2020-07-04T21:46:33Z</time>
      </trkpt>
      <trkpt lat="43.76973" lon="6.26076">
        <ele>1107</ele>
        <time>2020-07-04T21:46:35Z</time>
      </trkpt>
      <trkpt lat="43.76966" lon="6.2608">
        <ele>1108</ele>
        <time>2020-07-04T21:46:36Z</time>
      </trkpt>
      <trkpt lat="43.76947" lon="6.26097">
        <ele>1106</ele>
        <time>2020-07-04T21:46:40Z</time>
      </trkpt>
      <trkpt lat="43.76914" lon="6.26111">
        <ele>1108</ele>
        <time>2020-07-04T21:46:46Z</time>
      </trkpt>
      <trkpt lat="43.76883" lon="6.26129">
        <ele>1111</ele>
        <time>2020-07-04T21:46:52Z</time>
      </trkpt>
      <trkpt lat="43.76858" lon="6.26141">
        <ele>1113</ele>
        <time>2020-07-04T21:46:57Z</time>
      </trkpt>
      <trkpt lat="43.7683" lon="6.26146">
        <ele>1120</ele>
        <time>2020-07-04T21:47:02Z</time>
      </trkpt>
      <trkpt lat="43.76801" lon="6.26149">
        <ele>1130</ele>
        <time>2020-07-04T21:47:07Z</time>
      </trkpt>
      <trkpt lat="43.76769" lon="6.26165">
        <ele>1134</ele>
        <time>2020-07-04T21:47:13Z</time>
      </trkpt>
      <trkpt lat="43.76759" lon="6.26171">
        <ele>1136</ele>
        <time>2020-07-04T21:47:15Z</time>
      </trkpt>
      <trkpt lat="43.7675" lon="6.2618">
        <ele>1136</ele>
        <time>2020-07-04T21:47:17Z</time>
      </trkpt>
      <trkpt lat="43.76743" lon="6.26191">
        <ele>1139</ele>
        <time>2020-07-04T21:47:19Z</time>
      </trkpt>
      <trkpt lat="43.76732" lon="6.26219">
        <ele>1139</ele>
        <time>2020-07-04T21:47:23Z</time>
      </trkpt>
      <trkpt lat="43.76721" lon="6.26276">
        <ele>1134</ele>
        <time>2020-07-04T21:47:30Z</time>
      </trkpt>
      <trkpt lat="43.76717" lon="6.26288">
        <ele>1135</ele>
        <time>2020-07-04T21:47:32Z</time>
      </trkpt>
      <trkpt lat="43.767" lon="6.26323">
        <ele>1143</ele>
        <time>2020-07-04T21:47:38Z</time>
      </trkpt>
      <trkpt lat="43.76698" lon="6.26336">
        <ele>1142</ele>
        <time>2020-07-04T21:47:39Z</time>
      </trkpt>
      <trkpt lat="43.76699" lon="6.26349">
        <ele>1139</ele>
        <time>2020-07-04T21:47:41Z</time>
      </trkpt>
      <trkpt lat="43.76708" lon="6.26399">
        <ele>1123</ele>
        <time>2020-07-04T21:47:48Z</time>
      </trkpt>
      <trkpt lat="43.76708" lon="6.26409">
        <ele>1122</ele>
        <time>2020-07-04T21:47:49Z</time>
      </trkpt>
      <trkpt lat="43.76705" lon="6.26419">
        <ele>1122</ele>
        <time>2020-07-04T21:47:50Z</time>
      </trkpt>
      <trkpt lat="43.76678" lon="6.26462">
        <ele>1124</ele>
        <time>2020-07-04T21:47:58Z</time>
      </trkpt>
      <trkpt lat="43.76662" lon="6.26482">
        <ele>1127</ele>
        <time>2020-07-04T21:48:01Z</time>
      </trkpt>
      <trkpt lat="43.76654" lon="6.26487">
        <ele>1129</ele>
        <time>2020-07-04T21:48:03Z</time>
      </trkpt>
      <trkpt lat="43.76645" lon="6.2649">
        <ele>1134</ele>
        <time>2020-07-04T21:48:05Z</time>
      </trkpt>
      <trkpt lat="43.76595" lon="6.26499">
        <ele>1161</ele>
        <time>2020-07-04T21:48:14Z</time>
      </trkpt>
      <trkpt lat="43.76546" lon="6.26529">
        <ele>1174</ele>
        <time>2020-07-04T21:48:23Z</time>
      </trkpt>
      <trkpt lat="43.76528" lon="6.26544">
        <ele>1177</ele>
        <time>2020-07-04T21:48:27Z</time>
      </trkpt>
      <trkpt lat="43.7651" lon="6.26567">
        <ele>1176</ele>
        <time>2020-07-04T21:48:31Z</time>
      </trkpt>
      <trkpt lat="43.76492" lon="6.26602">
        <ele>1175</ele>
        <time>2020-07-04T21:48:37Z</time>
      </trkpt>
      <trkpt lat="43.76472" lon="6.26636">
        <ele>1181</ele>
        <time>2020-07-04T21:48:42Z</time>
      </trkpt>
      <trkpt lat="43.76463" lon="6.2667">
        <ele>1179</ele>
        <time>2020-07-04T21:48:47Z</time>
      </trkpt>
      <trkpt lat="43.76454" lon="6.2672">
        <ele>1177</ele>
        <time>2020-07-04T21:48:54Z</time>
      </trkpt>
      <trkpt lat="43.76448" lon="6.26745">
        <ele>1177</ele>
        <time>2020-07-04T21:48:57Z</time>
      </trkpt>
      <trkpt lat="43.76443" lon="6.26754">
        <ele>1179</ele>
        <time>2020-07-04T21:48:58Z</time>
      </trkpt>
      <trkpt lat="43.76423" lon="6.26776">
        <ele>1188</ele>
        <time>2020-07-04T21:49:03Z</time>
      </trkpt>
      <trkpt lat="43.76417" lon="6.26786">
        <ele>1190</ele>
        <time>2020-07-04T21:49:05Z</time>
      </trkpt>
      <trkpt lat="43.76402" lon="6.26819">
        <ele>1192</ele>
        <time>2020-07-04T21:49:10Z</time>
      </trkpt>
      <trkpt lat="43.76386" lon="6.26841">
        <ele>1199</ele>
        <time>2020-07-04T21:49:14Z</time>
      </trkpt>
      <trkpt lat="43.76382" lon="6.26851">
        <ele>1203</ele>
        <time>2020-07-04T21:49:15Z</time>
      </trkpt>
      <trkpt lat="43.76381" lon="6.26863">
        <ele>1204</ele>
        <time>2020-07-04T21:49:17Z</time>
      </trkpt>
      <trkpt lat="43.76384" lon="6.26874">
        <ele>1202</ele>
        <time>2020-07-04T21:49:18Z</time>
      </trkpt>
      <trkpt lat="43.76407" lon="6.26896">
        <ele>1186</ele>
        <time>2020-07-04T21:49:23Z</time>
      </trkpt>
      <trkpt lat="43.76413" lon="6.26909">
        <ele>1182</ele>
        <time>2020-07-04T21:49:25Z</time>
      </trkpt>
      <trkpt lat="43.76413" lon="6.26918">
        <ele>1183</ele>
        <time>2020-07-04T21:49:26Z</time>
      </trkpt>
      <trkpt lat="43.76404" lon="6.26957">
        <ele>1196</ele>
        <time>2020-07-04T21:49:32Z</time>
      </trkpt>
      <trkpt lat="43.76402" lon="6.26982">
        <ele>1201</ele>
        <time>2020-07-04T21:49:35Z</time>
      </trkpt>
      <trkpt lat="43.76406" lon="6.27008">
        <ele>1203</ele>
        <time>2020-07-04T21:49:38Z</time>
      </trkpt>
      <trkpt lat="43.76417" lon="6.27043">
        <ele>1207</ele>
        <time>2020-07-04T21:49:43Z</time>
      </trkpt>
      <trkpt lat="43.76422" lon="6.27053">
        <ele>1208</ele>
        <time>2020-07-04T21:49:45Z</time>
      </trkpt>
      <trkpt lat="43.76429" lon="6.27061">
        <ele>1207</ele>
        <time>2020-07-04T21:49:46Z</time>
      </trkpt>
      <trkpt lat="43.76436" lon="6.27065">
        <ele>1205</ele>
        <time>2020-07-04T21:49:48Z</time>
      </trkpt>
      <trkpt lat="43.76464" lon="6.27072">
        <ele>1195</ele>
        <time>2020-07-04T21:49:53Z</time>
      </trkpt>
      <trkpt lat="43.76494" lon="6.27086">
        <ele>1188</ele>
        <time>2020-07-04T21:49:58Z</time>
      </trkpt>
      <trkpt lat="43.76528" lon="6.27106">
        <ele>1176</ele>
        <time>2020-07-04T21:50:05Z</time>
      </trkpt>
      <trkpt lat="43.76534" lon="6.2712">
        <ele>1178</ele>
        <time>2020-07-04T21:50:07Z</time>
      </trkpt>
      <trkpt lat="43.76534" lon="6.2713">
        <ele>1183</ele>
        <time>2020-07-04T21:50:08Z</time>
      </trkpt>
      <trkpt lat="43.76528" lon="6.27171">
        <ele>1204</ele>
        <time>2020-07-04T21:50:14Z</time>
      </trkpt>
      <trkpt lat="43.76528" lon="6.27195">
        <ele>1208</ele>
        <time>2020-07-04T21:50:17Z</time>
      </trkpt>
      <trkpt lat="43.76538" lon="6.27247">
        <ele>1210</ele>
        <time>2020-07-04T21:50:24Z</time>
      </trkpt>
      <trkpt lat="43.76552" lon="6.2729">
        <ele>1208</ele>
        <time>2020-07-04T21:50:30Z</time>
      </trkpt>
      <trkpt lat="43.76579" lon="6.27347">
        <ele>1202</ele>
        <time>2020-07-04T21:50:39Z</time>
      </trkpt>
      <trkpt lat="43.76597" lon="6.27372">
        <ele>1202</ele>
        <time>2020-07-04T21:50:43Z</time>
      </trkpt>
      <trkpt lat="43.76602" lon="6.27377">
        <ele>1201</ele>
        <time>2020-07-04T21:50:44Z</time>
      </trkpt>
      <trkpt lat="43.76608" lon="6.27383">
        <ele>1201</ele>
        <time>2020-07-04T21:50:45Z</time>
      </trkpt>
      <trkpt lat="43.76619" lon="6.27392">
        <ele>1199</ele>
        <time>2020-07-04T21:50:48Z</time>
      </trkpt>
      <trkpt lat="43.76642" lon="6.27407">
        <ele>1195</ele>
        <time>2020-07-04T21:50:52Z</time>
      </trkpt>
      <trkpt lat="43.76654" lon="6.27412">
        <ele>1192</ele>
        <time>2020-07-04T21:50:55Z</time>
      </trkpt>
      <trkpt lat="43.76667" lon="6.27415">
        <ele>1188</ele>
        <time>2020-07-04T21:50:57Z</time>
      </trkpt>
      <trkpt lat="43.76748" lon="6.27427">
        <ele>1155</ele>
        <time>2020-07-04T21:51:11Z</time>
      </trkpt>
      <trkpt lat="43.76758" lon="6.27434">
        <ele>1152</ele>
        <time>2020-07-04T21:51:13Z</time>
      </trkpt>
      <trkpt lat="43.76764" lon="6.27449">
        <ele>1152</ele>
        <time>2020-07-04T21:51:16Z</time>
      </trkpt>
      <trkpt lat="43.76764" lon="6.27456">
        <ele>1153</ele>
        <time>2020-07-04T21:51:16Z</time>
      </trkpt>
      <trkpt lat="43.76761" lon="6.27464">
        <ele>1156</ele>
        <time>2020-07-04T21:51:18Z</time>
      </trkpt>
      <trkpt lat="43.76722" lon="6.27527">
        <ele>1173</ele>
        <time>2020-07-04T21:51:28Z</time>
      </trkpt>
      <trkpt lat="43.76706" lon="6.27559">
        <ele>1175</ele>
        <time>2020-07-04T21:51:33Z</time>
      </trkpt>
      <trkpt lat="43.76701" lon="6.27572">
        <ele>1175</ele>
        <time>2020-07-04T21:51:35Z</time>
      </trkpt>
      <trkpt lat="43.76684" lon="6.27653">
        <ele>1163</ele>
        <time>2020-07-04T21:51:46Z</time>
      </trkpt>
      <trkpt lat="43.76676" lon="6.27679">
        <ele>1159</ele>
        <time>2020-07-04T21:51:50Z</time>
      </trkpt>
      <trkpt lat="43.76656" lon="6.27708">
        <ele>1157</ele>
        <time>2020-07-04T21:51:55Z</time>
      </trkpt>
      <trkpt lat="43.7662" lon="6.27746">
        <ele>1155</ele>
        <time>2020-07-04T21:52:03Z</time>
      </trkpt>
      <trkpt lat="43.76601" lon="6.27764">
        <ele>1154</ele>
        <time>2020-07-04T21:52:07Z</time>
      </trkpt>
      <trkpt lat="43.76586" lon="6.27773">
        <ele>1155</ele>
        <time>2020-07-04T21:52:10Z</time>
      </trkpt>
      <trkpt lat="43.76568" lon="6.2778">
        <ele>1160</ele>
        <time>2020-07-04T21:52:13Z</time>
      </trkpt>
      <trkpt lat="43.76556" lon="6.27793">
        <ele>1161</ele>
        <time>2020-07-04T21:52:16Z</time>
      </trkpt>
      <trkpt lat="43.7655" lon="6.27804">
        <ele>1160</ele>
        <time>2020-07-04T21:52:18Z</time>
      </trkpt>
      <trkpt lat="43.76547" lon="6.27817">
        <ele>1157</ele>
        <time>2020-07-04T21:52:19Z</time>
      </trkpt>
      <trkpt lat="43.76546" lon="6.27844">
        <ele>1150</ele>
        <time>2020-07-04T21:52:23Z</time>
      </trkpt>
      <trkpt lat="43.76542" lon="6.27872">
        <ele>1145</ele>
        <time>2020-07-04T21:52:27Z</time>
      </trkpt>
      <trkpt lat="43.76533" lon="6.279">
        <ele>1143</ele>
        <time>2020-07-04T21:52:30Z</time>
      </trkpt>
      <trkpt lat="43.76518" lon="6.27932">
        <ele>1142</ele>
        <time>2020-07-04T21:52:35Z</time>
      </trkpt>
      <trkpt lat="43.76425" lon="6.2808">
        <ele>1127</ele>
        <time>2020-07-04T21:53:01Z</time>
      </trkpt>
      <trkpt lat="43.76395" lon="6.28124">
        <ele>1123</ele>
        <time>2020-07-04T21:53:08Z</time>
      </trkpt>
      <trkpt lat="43.76368" lon="6.28159">
        <ele>1117</ele>
        <time>2020-07-04T21:53:15Z</time>
      </trkpt>
      <trkpt lat="43.76354" lon="6.28172">
        <ele>1114</ele>
        <time>2020-07-04T21:53:18Z</time>
      </trkpt>
      <trkpt lat="43.76346" lon="6.28177">
        <ele>1113</ele>
        <time>2020-07-04T21:53:20Z</time>
      </trkpt>
      <trkpt lat="43.76336" lon="6.2818">
        <ele>1113</ele>
        <time>2020-07-04T21:53:21Z</time>
      </trkpt>
      <trkpt lat="43.76309" lon="6.28178">
        <ele>1118</ele>
        <time>2020-07-04T21:53:26Z</time>
      </trkpt>
      <trkpt lat="43.76303" lon="6.28181">
        <ele>1118</ele>
        <time>2020-07-04T21:53:27Z</time>
      </trkpt>
      <trkpt lat="43.76265" lon="6.28228">
        <ele>1109</ele>
        <time>2020-07-04T21:53:36Z</time>
      </trkpt>
      <trkpt lat="43.76224" lon="6.28265">
        <ele>1106</ele>
        <time>2020-07-04T21:53:45Z</time>
      </trkpt>
      <trkpt lat="43.76201" lon="6.28299">
        <ele>1099</ele>
        <time>2020-07-04T21:53:51Z</time>
      </trkpt>
      <trkpt lat="43.76191" lon="6.28307">
        <ele>1099</ele>
        <time>2020-07-04T21:53:53Z</time>
      </trkpt>
      <trkpt lat="43.76181" lon="6.28313">
        <ele>1099</ele>
        <time>2020-07-04T21:53:55Z</time>
      </trkpt>
      <trkpt lat="43.76159" lon="6.2832">
        <ele>1103</ele>
        <time>2020-07-04T21:53:59Z</time>
      </trkpt>
      <trkpt lat="43.76134" lon="6.28319">
        <ele>1112</ele>
        <time>2020-07-04T21:54:04Z</time>
      </trkpt>
      <trkpt lat="43.76128" lon="6.2832">
        <ele>1114</ele>
        <time>2020-07-04T21:54:05Z</time>
      </trkpt>
      <trkpt lat="43.76122" lon="6.28326">
        <ele>1114</ele>
        <time>2020-07-04T21:54:06Z</time>
      </trkpt>
      <trkpt lat="43.76118" lon="6.28337">
        <ele>1112</ele>
        <time>2020-07-04T21:54:07Z</time>
      </trkpt>
      <trkpt lat="43.76116" lon="6.28349">
        <ele>1110</ele>
        <time>2020-07-04T21:54:09Z</time>
      </trkpt>
      <trkpt lat="43.76123" lon="6.28439">
        <ele>1087</ele>
        <time>2020-07-04T21:54:21Z</time>
      </trkpt>
      <trkpt lat="43.76121" lon="6.28451">
        <ele>1085</ele>
        <time>2020-07-04T21:54:22Z</time>
      </trkpt>
      <trkpt lat="43.76116" lon="6.28462">
        <ele>1086</ele>
        <time>2020-07-04T21:54:24Z</time>
      </trkpt>
      <trkpt lat="43.76107" lon="6.28476">
        <ele>1087</ele>
        <time>2020-07-04T21:54:26Z</time>
      </trkpt>
      <trkpt lat="43.76081" lon="6.28505">
        <ele>1090</ele>
        <time>2020-07-04T21:54:32Z</time>
      </trkpt>
      <trkpt lat="43.76065" lon="6.28519">
        <ele>1089</ele>
        <time>2020-07-04T21:54:36Z</time>
      </trkpt>
      <trkpt lat="43.76018" lon="6.28549">
        <ele>1092</ele>
        <time>2020-07-04T21:54:45Z</time>
      </trkpt>
      <trkpt lat="43.76014" lon="6.28556">
        <ele>1091</ele>
        <time>2020-07-04T21:54:46Z</time>
      </trkpt>
      <trkpt lat="43.76011" lon="6.28565">
        <ele>1089</ele>
        <time>2020-07-04T21:54:47Z</time>
      </trkpt>
      <trkpt lat="43.76004" lon="6.28595">
        <ele>1082</ele>
        <time>2020-07-04T21:54:51Z</time>
      </trkpt>
      <trkpt lat="43.75993" lon="6.28618">
        <ele>1079</ele>
        <time>2020-07-04T21:54:55Z</time>
      </trkpt>
      <trkpt lat="43.7598" lon="6.2864">
        <ele>1078</ele>
        <time>2020-07-04T21:54:59Z</time>
      </trkpt>
      <trkpt lat="43.75964" lon="6.28661">
        <ele>1078</ele>
        <time>2020-07-04T21:55:02Z</time>
      </trkpt>
      <trkpt lat="43.7593" lon="6.28689">
        <ele>1086</ele>
        <time>2020-07-04T21:55:10Z</time>
      </trkpt>
      <trkpt lat="43.75924" lon="6.28697">
        <ele>1087</ele>
        <time>2020-07-04T21:55:11Z</time>
      </trkpt>
      <trkpt lat="43.75921" lon="6.28705">
        <ele>1087</ele>
        <time>2020-07-04T21:55:12Z</time>
      </trkpt>
      <trkpt lat="43.75921" lon="6.28718">
        <ele>1085</ele>
        <time>2020-07-04T21:55:14Z</time>
      </trkpt>
      <trkpt lat="43.75945" lon="6.28815">
        <ele>1062</ele>
        <time>2020-07-04T21:55:27Z</time>
      </trkpt>
      <trkpt lat="43.75942" lon="6.28842">
        <ele>1060</ele>
        <time>2020-07-04T21:55:31Z</time>
      </trkpt>
      <trkpt lat="43.75938" lon="6.28853">
        <ele>1060</ele>
        <time>2020-07-04T21:55:32Z</time>
      </trkpt>
      <trkpt lat="43.75931" lon="6.28864">
        <ele>1061</ele>
        <time>2020-07-04T21:55:34Z</time>
      </trkpt>
      <trkpt lat="43.75898" lon="6.28903">
        <ele>1068</ele>
        <time>2020-07-04T21:55:42Z</time>
      </trkpt>
      <trkpt lat="43.75892" lon="6.28915">
        <ele>1068</ele>
        <time>2020-07-04T21:55:44Z</time>
      </trkpt>
      <trkpt lat="43.75889" lon="6.2893">
        <ele>1067</ele>
        <time>2020-07-04T21:55:46Z</time>
      </trkpt>
      <trkpt lat="43.75888" lon="6.28945">
        <ele>1065</ele>
        <time>2020-07-04T21:55:48Z</time>
      </trkpt>
      <trkpt lat="43.75892" lon="6.28974">
        <ele>1058</ele>
        <time>2020-07-04T21:55:51Z</time>
      </trkpt>
      <trkpt lat="43.75891" lon="6.28988">
        <ele>1057</ele>
        <time>2020-07-04T21:55:53Z</time>
      </trkpt>
      <trkpt lat="43.75887" lon="6.29001">
        <ele>1056</ele>
        <time>2020-07-04T21:55:55Z</time>
      </trkpt>
      <trkpt lat="43.75881" lon="6.29014">
        <ele>1056</ele>
        <time>2020-07-04T21:55:57Z</time>
      </trkpt>
      <trkpt lat="43.75813" lon="6.29117">
        <ele>1055</ele>
        <time>2020-07-04T21:56:15Z</time>
      </trkpt>
      <trkpt lat="43.7578" lon="6.2915">
        <ele>1062</ele>
        <time>2020-07-04T21:56:22Z</time>
      </trkpt>
      <trkpt lat="43.75776" lon="6.29159">
        <ele>1062</ele>
        <time>2020-07-04T21:56:23Z</time>
      </trkpt>
      <trkpt lat="43.75777" lon="6.29169">
        <ele>1060</ele>
        <time>2020-07-04T21:56:25Z</time>
      </trkpt>
      <trkpt lat="43.75808" lon="6.29223">
        <ele>1048</ele>
        <time>2020-07-04T21:56:34Z</time>
      </trkpt>
      <trkpt lat="43.75816" lon="6.29232">
        <ele>1045</ele>
        <time>2020-07-04T21:56:35Z</time>
      </trkpt>
      <trkpt lat="43.75864" lon="6.29267">
        <ele>1030</ele>
        <time>2020-07-04T21:56:45Z</time>
      </trkpt>
      <trkpt lat="43.75881" lon="6.29285">
        <ele>1025</ele>
        <time>2020-07-04T21:56:49Z</time>
      </trkpt>
      <trkpt lat="43.75887" lon="6.29296">
        <ele>1024</ele>
        <time>2020-07-04T21:56:51Z</time>
      </trkpt>
      <trkpt lat="43.75891" lon="6.29309">
        <ele>1025</ele>
        <time>2020-07-04T21:56:52Z</time>
      </trkpt>
      <trkpt lat="43.75894" lon="6.29323">
        <ele>1025</ele>
        <time>2020-07-04T21:56:54Z</time>
      </trkpt>
      <trkpt lat="43.75894" lon="6.29338">
        <ele>1026</ele>
        <time>2020-07-04T21:56:56Z</time>
      </trkpt>
      <trkpt lat="43.75891" lon="6.29352">
        <ele>1026</ele>
        <time>2020-07-04T21:56:58Z</time>
      </trkpt>
      <trkpt lat="43.75886" lon="6.29365">
        <ele>1026</ele>
        <time>2020-07-04T21:57:00Z</time>
      </trkpt>
      <trkpt lat="43.75865" lon="6.29404">
        <ele>1029</ele>
        <time>2020-07-04T21:57:06Z</time>
      </trkpt>
      <trkpt lat="43.75847" lon="6.29428">
        <ele>1030</ele>
        <time>2020-07-04T21:57:11Z</time>
      </trkpt>
      <trkpt lat="43.75797" lon="6.29482">
        <ele>1024</ele>
        <time>2020-07-04T21:57:22Z</time>
      </trkpt>
      <trkpt lat="43.75774" lon="6.29501">
        <ele>1022</ele>
        <time>2020-07-04T21:57:27Z</time>
      </trkpt>
      <trkpt lat="43.75764" lon="6.29507">
        <ele>1020</ele>
        <time>2020-07-04T21:57:29Z</time>
      </trkpt>
      <trkpt lat="43.75754" lon="6.29507">
        <ele>1021</ele>
        <time>2020-07-04T21:57:31Z</time>
      </trkpt>
      <trkpt lat="43.75733" lon="6.29501">
        <ele>1024</ele>
        <time>2020-07-04T21:57:34Z</time>
      </trkpt>
      <trkpt lat="43.75717" lon="6.29502">
        <ele>1024</ele>
        <time>2020-07-04T21:57:37Z</time>
      </trkpt>
      <trkpt lat="43.75704" lon="6.29512">
        <ele>1023</ele>
        <time>2020-07-04T21:57:40Z</time>
      </trkpt>
      <trkpt lat="43.75687" lon="6.29538">
        <ele>1019</ele>
        <time>2020-07-04T21:57:44Z</time>
      </trkpt>
      <trkpt lat="43.75649" lon="6.29607">
        <ele>1012</ele>
        <time>2020-07-04T21:57:55Z</time>
      </trkpt>
      <trkpt lat="43.75617" lon="6.29663">
        <ele>1008</ele>
        <time>2020-07-04T21:58:05Z</time>
      </trkpt>
      <trkpt lat="43.75588" lon="6.297">
        <ele>1009</ele>
        <time>2020-07-04T21:58:12Z</time>
      </trkpt>
      <trkpt lat="43.75581" lon="6.2971">
        <ele>1010</ele>
        <time>2020-07-04T21:58:13Z</time>
      </trkpt>
      <trkpt lat="43.75577" lon="6.29721">
        <ele>1010</ele>
        <time>2020-07-04T21:58:15Z</time>
      </trkpt>
      <trkpt lat="43.75577" lon="6.29734">
        <ele>1008</ele>
        <time>2020-07-04T21:58:17Z</time>
      </trkpt>
      <trkpt lat="43.7558" lon="6.29745">
        <ele>1006</ele>
        <time>2020-07-04T21:58:18Z</time>
      </trkpt>
      <trkpt lat="43.75597" lon="6.29778">
        <ele>999</ele>
        <time>2020-07-04T21:58:23Z</time>
      </trkpt>
      <trkpt lat="43.75606" lon="6.29804">
        <ele>995</ele>
        <time>2020-07-04T21:58:27Z</time>
      </trkpt>
      <trkpt lat="43.75611" lon="6.29835">
        <ele>993</ele>
        <time>2020-07-04T21:58:31Z</time>
      </trkpt>
      <trkpt lat="43.75612" lon="6.29851">
        <ele>990</ele>
        <time>2020-07-04T21:58:33Z</time>
      </trkpt>
      <trkpt lat="43.75609" lon="6.29883">
        <ele>988</ele>
        <time>2020-07-04T21:58:37Z</time>
      </trkpt>
      <trkpt lat="43.75606" lon="6.299">
        <ele>987</ele>
        <time>2020-07-04T21:58:40Z</time>
      </trkpt>
      <trkpt lat="43.75595" lon="6.29933">
        <ele>986</ele>
        <time>2020-07-04T21:58:44Z</time>
      </trkpt>
      <trkpt lat="43.7555" lon="6.3002">
        <ele>981</ele>
        <time>2020-07-04T21:58:58Z</time>
      </trkpt>
      <trkpt lat="43.75533" lon="6.30046">
        <ele>979</ele>
        <time>2020-07-04T21:59:03Z</time>
      </trkpt>
      <trkpt lat="43.75486" lon="6.30107">
        <ele>978</ele>
        <time>2020-07-04T21:59:14Z</time>
      </trkpt>
      <trkpt lat="43.75459" lon="6.3017">
        <ele>971</ele>
        <time>2020-07-04T21:59:23Z</time>
      </trkpt>
      <trkpt lat="43.75451" lon="6.30185">
        <ele>971</ele>
        <time>2020-07-04T21:59:26Z</time>
      </trkpt>
      <trkpt lat="43.75414" lon="6.30243">
        <ele>968</ele>
        <time>2020-07-04T21:59:36Z</time>
      </trkpt>
      <trkpt lat="43.75393" lon="6.3026">
        <ele>972</ele>
        <time>2020-07-04T21:59:40Z</time>
      </trkpt>
      <trkpt lat="43.75388" lon="6.30268">
        <ele>972</ele>
        <time>2020-07-04T21:59:42Z</time>
      </trkpt>
      <trkpt lat="43.75385" lon="6.30281">
        <ele>971</ele>
        <time>2020-07-04T21:59:43Z</time>
      </trkpt>
      <trkpt lat="43.75386" lon="6.30288">
        <ele>970</ele>
        <time>2020-07-04T21:59:44Z</time>
      </trkpt>
      <trkpt lat="43.75392" lon="6.30299">
        <ele>966</ele>
        <time>2020-07-04T21:59:46Z</time>
      </trkpt>
      <trkpt lat="43.75397" lon="6.30304">
        <ele>963</ele>
        <time>2020-07-04T21:59:47Z</time>
      </trkpt>
      <trkpt lat="43.75403" lon="6.30304">
        <ele>961</ele>
        <time>2020-07-04T21:59:48Z</time>
      </trkpt>
      <trkpt lat="43.75413" lon="6.30297">
        <ele>959</ele>
        <time>2020-07-04T21:59:50Z</time>
      </trkpt>
      <trkpt lat="43.75425" lon="6.30272">
        <ele>961</ele>
        <time>2020-07-04T21:59:54Z</time>
      </trkpt>
      <trkpt lat="43.75433" lon="6.30258">
        <ele>962</ele>
        <time>2020-07-04T21:59:56Z</time>
      </trkpt>
      <trkpt lat="43.75437" lon="6.30254">
        <ele>961</ele>
        <time>2020-07-04T21:59:57Z</time>
      </trkpt>
      <trkpt lat="43.75447" lon="6.30245">
        <ele>961</ele>
        <time>2020-07-04T21:59:59Z</time>
      </trkpt>
      <trkpt lat="43.75518" lon="6.30203">
        <ele>954</ele>
        <time>2020-07-04T22:00:13Z</time>
      </trkpt>
      <trkpt lat="43.75534" lon="6.30191">
        <ele>954</ele>
        <time>2020-07-04T22:00:16Z</time>
      </trkpt>
      <trkpt lat="43.75554" lon="6.30161">
        <ele>954</ele>
        <time>2020-07-04T22:00:22Z</time>
      </trkpt>
      <trkpt lat="43.75564" lon="6.30142">
        <ele>955</ele>
        <time>2020-07-04T22:00:25Z</time>
      </trkpt>
      <trkpt lat="43.75571" lon="6.30108">
        <ele>959</ele>
        <time>2020-07-04T22:00:29Z</time>
      </trkpt>
      <trkpt lat="43.75573" lon="6.30101">
        <ele>959</ele>
        <time>2020-07-04T22:00:30Z</time>
      </trkpt>
      <trkpt lat="43.75576" lon="6.30096">
        <ele>959</ele>
        <time>2020-07-04T22:00:31Z</time>
      </trkpt>
      <trkpt lat="43.75585" lon="6.30093">
        <ele>957</ele>
        <time>2020-07-04T22:00:33Z</time>
      </trkpt>
      <trkpt lat="43.75595" lon="6.30095">
        <ele>955</ele>
        <time>2020-07-04T22:00:34Z</time>
      </trkpt>
      <trkpt lat="43.75598" lon="6.30099">
        <ele>954</ele>
        <time>2020-07-04T22:00:35Z</time>
      </trkpt>
      <trkpt lat="43.75602" lon="6.30105">
        <ele>952</ele>
        <time>2020-07-04T22:00:36Z</time>
      </trkpt>
      <trkpt lat="43.75603" lon="6.30119">
        <ele>950</ele>
        <time>2020-07-04T22:00:38Z</time>
      </trkpt>
      <trkpt lat="43.75602" lon="6.30126">
        <ele>950</ele>
        <time>2020-07-04T22:00:39Z</time>
      </trkpt>
      <trkpt lat="43.756" lon="6.30133">
        <ele>949</ele>
        <time>2020-07-04T22:00:40Z</time>
      </trkpt>
      <trkpt lat="43.7558" lon="6.30163">
        <ele>950</ele>
        <time>2020-07-04T22:00:45Z</time>
      </trkpt>
      <trkpt lat="43.75575" lon="6.30176">
        <ele>949</ele>
        <time>2020-07-04T22:00:47Z</time>
      </trkpt>
      <trkpt lat="43.75566" lon="6.30211">
        <ele>947</ele>
        <time>2020-07-04T22:00:52Z</time>
      </trkpt>
      <trkpt lat="43.75551" lon="6.30257">
        <ele>943</ele>
        <time>2020-07-04T22:00:58Z</time>
      </trkpt>
      <trkpt lat="43.75539" lon="6.30278">
        <ele>942</ele>
        <time>2020-07-04T22:01:02Z</time>
      </trkpt>
      <trkpt lat="43.75497" lon="6.30327">
        <ele>940</ele>
        <time>2020-07-04T22:01:11Z</time>
      </trkpt>
      <trkpt lat="43.75487" lon="6.30348">
        <ele>939</ele>
        <time>2020-07-04T22:01:15Z</time>
      </trkpt>
      <trkpt lat="43.75483" lon="6.30362">
        <ele>938</ele>
        <time>2020-07-04T22:01:17Z</time>
      </trkpt>
      <trkpt lat="43.75473" lon="6.30441">
        <ele>931</ele>
        <time>2020-07-04T22:01:27Z</time>
      </trkpt>
      <trkpt lat="43.75469" lon="6.30466">
        <ele>929</ele>
        <time>2020-07-04T22:01:30Z</time>
      </trkpt>
      <trkpt lat="43.75461" lon="6.30491">
        <ele>929</ele>
        <time>2020-07-04T22:01:34Z</time>
      </trkpt>
      <trkpt lat="43.75436" lon="6.30547">
        <ele>930</ele>
        <time>2020-07-04T22:01:42Z</time>
      </trkpt>
      <trkpt lat="43.75429" lon="6.3057">
        <ele>929</ele>
        <time>2020-07-04T22:01:45Z</time>
      </trkpt>
      <trkpt lat="43.75416" lon="6.30752">
        <ele>915</ele>
        <time>2020-07-04T22:02:09Z</time>
      </trkpt>
      <trkpt lat="43.75414" lon="6.30773">
        <ele>914</ele>
        <time>2020-07-04T22:02:12Z</time>
      </trkpt>
      <trkpt lat="43.75406" lon="6.30798">
        <ele>913</ele>
        <time>2020-07-04T22:02:15Z</time>
      </trkpt>
      <trkpt lat="43.75389" lon="6.30836">
        <ele>913</ele>
        <time>2020-07-04T22:02:21Z</time>
      </trkpt>
      <trkpt lat="43.75382" lon="6.30858">
        <ele>913</ele>
        <time>2020-07-04T22:02:24Z</time>
      </trkpt>
      <trkpt lat="43.7538" lon="6.30887">
        <ele>911</ele>
        <time>2020-07-04T22:02:28Z</time>
      </trkpt>
      <trkpt lat="43.75381" lon="6.30907">
        <ele>910</ele>
        <time>2020-07-04T22:02:30Z</time>
      </trkpt>
      <trkpt lat="43.75395" lon="6.30949">
        <ele>906</ele>
        <time>2020-07-04T22:02:36Z</time>
      </trkpt>
      <trkpt lat="43.75398" lon="6.3097">
        <ele>905</ele>
        <time>2020-07-04T22:02:39Z</time>
      </trkpt>
      <trkpt lat="43.75404" lon="6.31031">
        <ele>901</ele>
        <time>2020-07-04T22:02:47Z</time>
      </trkpt>
      <trkpt lat="43.75404" lon="6.31053">
        <ele>900</ele>
        <time>2020-07-04T22:02:50Z</time>
      </trkpt>
      <trkpt lat="43.75403" lon="6.31096">
        <ele>897</ele>
        <time>2020-07-04T22:02:55Z</time>
      </trkpt>
      <trkpt lat="43.75399" lon="6.31153">
        <ele>894</ele>
        <time>2020-07-04T22:03:03Z</time>
      </trkpt>
      <trkpt lat="43.75379" lon="6.31234">
        <ele>889</ele>
        <time>2020-07-04T22:03:14Z</time>
      </trkpt>
      <trkpt lat="43.7537" lon="6.31255">
        <ele>887</ele>
        <time>2020-07-04T22:03:17Z</time>
      </trkpt>
      <trkpt lat="43.75354" lon="6.31273">
        <ele>882</ele>
        <time>2020-07-04T22:03:20Z</time>
      </trkpt>
      <trkpt lat="43.75346" lon="6.31277">
        <ele>882</ele>
        <time>2020-07-04T22:03:22Z</time>
      </trkpt>
      <trkpt lat="43.75324" lon="6.3128">
        <ele>884</ele>
        <time>2020-07-04T22:03:26Z</time>
      </trkpt>
      <trkpt lat="43.75311" lon="6.31287">
        <ele>884</ele>
        <time>2020-07-04T22:03:28Z</time>
      </trkpt>
      <trkpt lat="43.7525" lon="6.31309">
        <ele>892</ele>
        <time>2020-07-04T22:03:40Z</time>
      </trkpt>
      <trkpt lat="43.75244" lon="6.31312">
        <ele>892</ele>
        <time>2020-07-04T22:03:41Z</time>
      </trkpt>
      <trkpt lat="43.7524" lon="6.31317">
        <ele>891</ele>
        <time>2020-07-04T22:03:42Z</time>
      </trkpt>
      <trkpt lat="43.75238" lon="6.31323">
        <ele>890</ele>
        <time>2020-07-04T22:03:42Z</time>
      </trkpt>
      <trkpt lat="43.75239" lon="6.3133">
        <ele>888</ele>
        <time>2020-07-04T22:03:43Z</time>
      </trkpt>
      <trkpt lat="43.75261" lon="6.31371">
        <ele>871</ele>
        <time>2020-07-04T22:03:50Z</time>
      </trkpt>
      <trkpt lat="43.75263" lon="6.31377">
        <ele>869</ele>
        <time>2020-07-04T22:03:51Z</time>
      </trkpt>
      <trkpt lat="43.75264" lon="6.31385">
        <ele>866</ele>
        <time>2020-07-04T22:03:52Z</time>
      </trkpt>
      <trkpt lat="43.75264" lon="6.31392">
        <ele>864</ele>
        <time>2020-07-04T22:03:53Z</time>
      </trkpt>
      <trkpt lat="43.7526" lon="6.31402">
        <ele>864</ele>
        <time>2020-07-04T22:03:54Z</time>
      </trkpt>
      <trkpt lat="43.75248" lon="6.31418">
        <ele>866</ele>
        <time>2020-07-04T22:03:57Z</time>
      </trkpt>
      <trkpt lat="43.75213" lon="6.31473">
        <ele>866</ele>
        <time>2020-07-04T22:04:07Z</time>
      </trkpt>
      <trkpt lat="43.75193" lon="6.31526">
        <ele>864</ele>
        <time>2020-07-04T22:04:14Z</time>
      </trkpt>
      <trkpt lat="43.75172" lon="6.31568">
        <ele>865</ele>
        <time>2020-07-04T22:04:21Z</time>
      </trkpt>
      <trkpt lat="43.75147" lon="6.31606">
        <ele>864</ele>
        <time>2020-07-04T22:04:27Z</time>
      </trkpt>
      <trkpt lat="43.75139" lon="6.31615">
        <ele>865</ele>
        <time>2020-07-04T22:04:29Z</time>
      </trkpt>
      <trkpt lat="43.75134" lon="6.31623">
        <ele>865</ele>
        <time>2020-07-04T22:04:31Z</time>
      </trkpt>
      <trkpt lat="43.75131" lon="6.31634">
        <ele>864</ele>
        <time>2020-07-04T22:04:32Z</time>
      </trkpt>
      <trkpt lat="43.75124" lon="6.31676">
        <ele>861</ele>
        <time>2020-07-04T22:04:38Z</time>
      </trkpt>
      <trkpt lat="43.75126" lon="6.31769">
        <ele>852</ele>
        <time>2020-07-04T22:04:50Z</time>
      </trkpt>
      <trkpt lat="43.75131" lon="6.31868">
        <ele>844</ele>
        <time>2020-07-04T22:05:02Z</time>
      </trkpt>
      <trkpt lat="43.75131" lon="6.31937">
        <ele>840</ele>
        <time>2020-07-04T22:05:11Z</time>
      </trkpt>
      <trkpt lat="43.75128" lon="6.31995">
        <ele>839</ele>
        <time>2020-07-04T22:05:19Z</time>
      </trkpt>
      <trkpt lat="43.75122" lon="6.32058">
        <ele>834</ele>
        <time>2020-07-04T22:05:27Z</time>
      </trkpt>
      <trkpt lat="43.75118" lon="6.32092">
        <ele>830</ele>
        <time>2020-07-04T22:05:31Z</time>
      </trkpt>
      <trkpt lat="43.75116" lon="6.32108">
        <ele>827</ele>
        <time>2020-07-04T22:05:33Z</time>
      </trkpt>
      <trkpt lat="43.7511" lon="6.32124">
        <ele>824</ele>
        <time>2020-07-04T22:05:36Z</time>
      </trkpt>
      <trkpt lat="43.75102" lon="6.32133">
        <ele>823</ele>
        <time>2020-07-04T22:05:38Z</time>
      </trkpt>
      <trkpt lat="43.7509" lon="6.32134">
        <ele>824</ele>
        <time>2020-07-04T22:05:40Z</time>
      </trkpt>
      <trkpt lat="43.75054" lon="6.32114">
        <ele>834</ele>
        <time>2020-07-04T22:05:47Z</time>
      </trkpt>
      <trkpt lat="43.75023" lon="6.32108">
        <ele>840</ele>
        <time>2020-07-04T22:05:52Z</time>
      </trkpt>
      <trkpt lat="43.75011" lon="6.32102">
        <ele>845</ele>
        <time>2020-07-04T22:05:54Z</time>
      </trkpt>
      <trkpt lat="43.74985" lon="6.32096">
        <ele>855</ele>
        <time>2020-07-04T22:05:59Z</time>
      </trkpt>
      <trkpt lat="43.74974" lon="6.32098">
        <ele>856</ele>
        <time>2020-07-04T22:06:01Z</time>
      </trkpt>
      <trkpt lat="43.74968" lon="6.32104">
        <ele>855</ele>
        <time>2020-07-04T22:06:02Z</time>
      </trkpt>
      <trkpt lat="43.74965" lon="6.32113">
        <ele>851</ele>
        <time>2020-07-04T22:06:04Z</time>
      </trkpt>
      <trkpt lat="43.7496" lon="6.32146">
        <ele>835</ele>
        <time>2020-07-04T22:06:08Z</time>
      </trkpt>
      <trkpt lat="43.74957" lon="6.32155">
        <ele>832</ele>
        <time>2020-07-04T22:06:09Z</time>
      </trkpt>
      <trkpt lat="43.74952" lon="6.32161">
        <ele>832</ele>
        <time>2020-07-04T22:06:11Z</time>
      </trkpt>
      <trkpt lat="43.74925" lon="6.32175">
        <ele>835</ele>
        <time>2020-07-04T22:06:16Z</time>
      </trkpt>
      <trkpt lat="43.74898" lon="6.32177">
        <ele>845</ele>
        <time>2020-07-04T22:06:20Z</time>
      </trkpt>
      <trkpt lat="43.74882" lon="6.32183">
        <ele>846</ele>
        <time>2020-07-04T22:06:23Z</time>
      </trkpt>
      <trkpt lat="43.74821" lon="6.32223">
        <ele>843</ele>
        <time>2020-07-04T22:06:35Z</time>
      </trkpt>
      <trkpt lat="43.74793" lon="6.32252">
        <ele>835</ele>
        <time>2020-07-04T22:06:42Z</time>
      </trkpt>
      <trkpt lat="43.74773" lon="6.32266">
        <ele>837</ele>
        <time>2020-07-04T22:06:46Z</time>
      </trkpt>
      <trkpt lat="43.74758" lon="6.32284">
        <ele>835</ele>
        <time>2020-07-04T22:06:49Z</time>
      </trkpt>
      <trkpt lat="43.74751" lon="6.32286">
        <ele>838</ele>
        <time>2020-07-04T22:06:50Z</time>
      </trkpt>
      <trkpt lat="43.74744" lon="6.32284">
        <ele>841</ele>
        <time>2020-07-04T22:06:52Z</time>
      </trkpt>
      <trkpt lat="43.74724" lon="6.3227">
        <ele>853</ele>
        <time>2020-07-04T22:06:56Z</time>
      </trkpt>
      <trkpt lat="43.74711" lon="6.32266">
        <ele>857</ele>
        <time>2020-07-04T22:06:58Z</time>
      </trkpt>
      <trkpt lat="43.74689" lon="6.32268">
        <ele>860</ele>
        <time>2020-07-04T22:07:02Z</time>
      </trkpt>
      <trkpt lat="43.74683" lon="6.32271">
        <ele>860</ele>
        <time>2020-07-04T22:07:03Z</time>
      </trkpt>
      <trkpt lat="43.74676" lon="6.3228">
        <ele>858</ele>
        <time>2020-07-04T22:07:05Z</time>
      </trkpt>
      <trkpt lat="43.74673" lon="6.32312">
        <ele>847</ele>
        <time>2020-07-04T22:07:09Z</time>
      </trkpt>
      <trkpt lat="43.74668" lon="6.32329">
        <ele>843</ele>
        <time>2020-07-04T22:07:11Z</time>
      </trkpt>
      <trkpt lat="43.74664" lon="6.32336">
        <ele>840</ele>
        <time>2020-07-04T22:07:12Z</time>
      </trkpt>
      <trkpt lat="43.74658" lon="6.32341">
        <ele>837</ele>
        <time>2020-07-04T22:07:14Z</time>
      </trkpt>
      <trkpt lat="43.74645" lon="6.32346">
        <ele>836</ele>
        <time>2020-07-04T22:07:16Z</time>
      </trkpt>
      <trkpt lat="43.74587" lon="6.32358">
        <ele>841</ele>
        <time>2020-07-04T22:07:27Z</time>
      </trkpt>
      <trkpt lat="43.74564" lon="6.32355">
        <ele>848</ele>
        <time>2020-07-04T22:07:31Z</time>
      </trkpt>
      <trkpt lat="43.74522" lon="6.32345">
        <ele>861</ele>
        <time>2020-07-04T22:07:38Z</time>
      </trkpt>
      <trkpt lat="43.745" lon="6.32344">
        <ele>864</ele>
        <time>2020-07-04T22:07:42Z</time>
      </trkpt>
      <trkpt lat="43.7448" lon="6.3235">
        <ele>872</ele>
        <time>2020-07-04T22:07:46Z</time>
      </trkpt>
      <trkpt lat="43.74472" lon="6.32358">
        <ele>873</ele>
        <time>2020-07-04T22:07:48Z</time>
      </trkpt>
      <trkpt lat="43.74466" lon="6.32369">
        <ele>873</ele>
        <time>2020-07-04T22:07:49Z</time>
      </trkpt>
      <trkpt lat="43.74452" lon="6.32411">
        <ele>868</ele>
        <time>2020-07-04T22:07:55Z</time>
      </trkpt>
      <trkpt lat="43.74449" lon="6.32426">
        <ele>868</ele>
        <time>2020-07-04T22:07:57Z</time>
      </trkpt>
      <trkpt lat="43.74449" lon="6.32442">
        <ele>867</ele>
        <time>2020-07-04T22:07:59Z</time>
      </trkpt>
      <trkpt lat="43.74451" lon="6.32452">
        <ele>865</ele>
        <time>2020-07-04T22:08:01Z</time>
      </trkpt>
      <trkpt lat="43.7447" lon="6.32505">
        <ele>845</ele>
        <time>2020-07-04T22:08:08Z</time>
      </trkpt>
      <trkpt lat="43.74471" lon="6.32518">
        <ele>842</ele>
        <time>2020-07-04T22:08:10Z</time>
      </trkpt>
      <trkpt lat="43.74469" lon="6.32529">
        <ele>843</ele>
        <time>2020-07-04T22:08:11Z</time>
      </trkpt>
      <trkpt lat="43.74442" lon="6.32619">
        <ele>846</ele>
        <time>2020-07-04T22:08:24Z</time>
      </trkpt>
      <trkpt lat="43.74432" lon="6.32636">
        <ele>850</ele>
        <time>2020-07-04T22:08:27Z</time>
      </trkpt>
      <trkpt lat="43.74413" lon="6.32657">
        <ele>860</ele>
        <time>2020-07-04T22:08:31Z</time>
      </trkpt>
      <trkpt lat="43.74409" lon="6.32667">
        <ele>859</ele>
        <time>2020-07-04T22:08:33Z</time>
      </trkpt>
      <trkpt lat="43.74406" lon="6.32682">
        <ele>858</ele>
        <time>2020-07-04T22:08:35Z</time>
      </trkpt>
      <trkpt lat="43.74405" lon="6.32713">
        <ele>853</ele>
        <time>2020-07-04T22:08:39Z</time>
      </trkpt>
      <trkpt lat="43.74406" lon="6.3273">
        <ele>850</ele>
        <time>2020-07-04T22:08:41Z</time>
      </trkpt>
      <trkpt lat="43.74422" lon="6.32792">
        <ele>833</ele>
        <time>2020-07-04T22:08:49Z</time>
      </trkpt>
      <trkpt lat="43.74424" lon="6.32816">
        <ele>830</ele>
        <time>2020-07-04T22:08:52Z</time>
      </trkpt>
      <trkpt lat="43.74421" lon="6.32827">
        <ele>834</ele>
        <time>2020-07-04T22:08:54Z</time>
      </trkpt>
      <trkpt lat="43.74405" lon="6.32857">
        <ele>844</ele>
        <time>2020-07-04T22:08:59Z</time>
      </trkpt>
      <trkpt lat="43.74403" lon="6.32868">
        <ele>844</ele>
        <time>2020-07-04T22:09:00Z</time>
      </trkpt>
      <trkpt lat="43.74404" lon="6.32881">
        <ele>844</ele>
        <time>2020-07-04T22:09:02Z</time>
      </trkpt>
      <trkpt lat="43.74416" lon="6.32914">
        <ele>838</ele>
        <time>2020-07-04T22:09:06Z</time>
      </trkpt>
      <trkpt lat="43.74419" lon="6.32924">
        <ele>836</ele>
        <time>2020-07-04T22:09:08Z</time>
      </trkpt>
      <trkpt lat="43.7442" lon="6.32936">
        <ele>835</ele>
        <time>2020-07-04T22:09:09Z</time>
      </trkpt>
      <trkpt lat="43.74411" lon="6.32977">
        <ele>843</ele>
        <time>2020-07-04T22:09:15Z</time>
      </trkpt>
      <trkpt lat="43.74403" lon="6.33001">
        <ele>846</ele>
        <time>2020-07-04T22:09:18Z</time>
      </trkpt>
      <trkpt lat="43.74387" lon="6.3303">
        <ele>847</ele>
        <time>2020-07-04T22:09:23Z</time>
      </trkpt>
      <trkpt lat="43.74385" lon="6.33039">
        <ele>847</ele>
        <time>2020-07-04T22:09:24Z</time>
      </trkpt>
      <trkpt lat="43.74386" lon="6.33065">
        <ele>844</ele>
        <time>2020-07-04T22:09:28Z</time>
      </trkpt>
      <trkpt lat="43.74384" lon="6.33074">
        <ele>844</ele>
        <time>2020-07-04T22:09:29Z</time>
      </trkpt>
      <trkpt lat="43.7436" lon="6.33124">
        <ele>842</ele>
        <time>2020-07-04T22:09:37Z</time>
      </trkpt>
      <trkpt lat="43.74357" lon="6.33147">
        <ele>839</ele>
        <time>2020-07-04T22:09:40Z</time>
      </trkpt>
      <trkpt lat="43.74349" lon="6.33179">
        <ele>838</ele>
        <time>2020-07-04T22:09:44Z</time>
      </trkpt>
      <trkpt lat="43.74311" lon="6.33287">
        <ele>835</ele>
        <time>2020-07-04T22:09:59Z</time>
      </trkpt>
      <trkpt lat="43.74305" lon="6.33335">
        <ele>830</ele>
        <time>2020-07-04T22:10:06Z</time>
      </trkpt>
      <trkpt lat="43.743" lon="6.33359">
        <ele>829</ele>
        <time>2020-07-04T22:10:09Z</time>
      </trkpt>
      <trkpt lat="43.74226" lon="6.33571">
        <ele>825</ele>
        <time>2020-07-04T22:10:39Z</time>
      </trkpt>
      <trkpt lat="43.74213" lon="6.3365">
        <ele>818</ele>
        <time>2020-07-04T22:10:49Z</time>
      </trkpt>
      <trkpt lat="43.74191" lon="6.33725">
        <ele>812</ele>
        <time>2020-07-04T22:11:00Z</time>
      </trkpt>
      <trkpt lat="43.7418" lon="6.33754">
        <ele>812</ele>
        <time>2020-07-04T22:11:04Z</time>
      </trkpt>
      <trkpt lat="43.74169" lon="6.33775">
        <ele>813</ele>
        <time>2020-07-04T22:11:07Z</time>
      </trkpt>
      <trkpt lat="43.74134" lon="6.33839">
        <ele>809</ele>
        <time>2020-07-04T22:11:18Z</time>
      </trkpt>
      <trkpt lat="43.74128" lon="6.33863">
        <ele>807</ele>
        <time>2020-07-04T22:11:21Z</time>
      </trkpt>
      <trkpt lat="43.74126" lon="6.33876">
        <ele>806</ele>
        <time>2020-07-04T22:11:23Z</time>
      </trkpt>
      <trkpt lat="43.74128" lon="6.33901">
        <ele>803</ele>
        <time>2020-07-04T22:11:26Z</time>
      </trkpt>
      <trkpt lat="43.74135" lon="6.33924">
        <ele>800</ele>
        <time>2020-07-04T22:11:29Z</time>
      </trkpt>
      <trkpt lat="43.74163" lon="6.33971">
        <ele>795</ele>
        <time>2020-07-04T22:11:37Z</time>
      </trkpt>
      <trkpt lat="43.74173" lon="6.33994">
        <ele>789</ele>
        <time>2020-07-04T22:11:40Z</time>
      </trkpt>
      <trkpt lat="43.74178" lon="6.34019">
        <ele>782</ele>
        <time>2020-07-04T22:11:44Z</time>
      </trkpt>
      <trkpt lat="43.74176" lon="6.34043">
        <ele>782</ele>
        <time>2020-07-04T22:11:47Z</time>
      </trkpt>
      <trkpt lat="43.74173" lon="6.34052">
        <ele>785</ele>
        <time>2020-07-04T22:11:48Z</time>
      </trkpt>
      <trkpt lat="43.74168" lon="6.34061">
        <ele>790</ele>
        <time>2020-07-04T22:11:50Z</time>
      </trkpt>
      <trkpt lat="43.74162" lon="6.34069">
        <ele>792</ele>
        <time>2020-07-04T22:11:51Z</time>
      </trkpt>
      <trkpt lat="43.74146" lon="6.34084">
        <ele>792</ele>
        <time>2020-07-04T22:11:55Z</time>
      </trkpt>
      <trkpt lat="43.74131" lon="6.34091">
        <ele>791</ele>
        <time>2020-07-04T22:11:57Z</time>
      </trkpt>
      <trkpt lat="43.74115" lon="6.34092">
        <ele>793</ele>
        <time>2020-07-04T22:12:00Z</time>
      </trkpt>
      <trkpt lat="43.74004" lon="6.34087">
        <ele>803</ele>
        <time>2020-07-04T22:12:20Z</time>
      </trkpt>
      <trkpt lat="43.73971" lon="6.34085">
        <ele>807</ele>
        <time>2020-07-04T22:12:26Z</time>
      </trkpt>
      <trkpt lat="43.73942" lon="6.34087">
        <ele>809</ele>
        <time>2020-07-04T22:12:31Z</time>
      </trkpt>
      <trkpt lat="43.73929" lon="6.34097">
        <ele>808</ele>
        <time>2020-07-04T22:12:34Z</time>
      </trkpt>
      <trkpt lat="43.73917" lon="6.34114">
        <ele>807</ele>
        <time>2020-07-04T22:12:37Z</time>
      </trkpt>
      <trkpt lat="43.73877" lon="6.34197">
        <ele>800</ele>
        <time>2020-07-04T22:12:50Z</time>
      </trkpt>
      <trkpt lat="43.73859" lon="6.34272">
        <ele>794</ele>
        <time>2020-07-04T22:13:00Z</time>
      </trkpt>
      <trkpt lat="43.73847" lon="6.34301">
        <ele>794</ele>
        <time>2020-07-04T22:13:04Z</time>
      </trkpt>
      <trkpt lat="43.7384" lon="6.34315">
        <ele>794</ele>
        <time>2020-07-04T22:13:06Z</time>
      </trkpt>
      <trkpt lat="43.73796" lon="6.34393">
        <ele>796</ele>
        <time>2020-07-04T22:13:19Z</time>
      </trkpt>
      <trkpt lat="43.73786" lon="6.34416">
        <ele>795</ele>
        <time>2020-07-04T22:13:22Z</time>
      </trkpt>
      <trkpt lat="43.73783" lon="6.34439">
        <ele>796</ele>
        <time>2020-07-04T22:13:25Z</time>
      </trkpt>
      <trkpt lat="43.7378" lon="6.34449">
        <ele>796</ele>
        <time>2020-07-04T22:13:27Z</time>
      </trkpt>
      <trkpt lat="43.73777" lon="6.34455">
        <ele>796</ele>
        <time>2020-07-04T22:13:28Z</time>
      </trkpt>
      <trkpt lat="43.73775" lon="6.3446">
        <ele>796</ele>
        <time>2020-07-04T22:13:28Z</time>
      </trkpt>
      <trkpt lat="43.73772" lon="6.34463">
        <ele>797</ele>
        <time>2020-07-04T22:13:29Z</time>
      </trkpt>
      <trkpt lat="43.73714" lon="6.34527">
        <ele>799</ele>
        <time>2020-07-04T22:13:42Z</time>
      </trkpt>
      <trkpt lat="43.73709" lon="6.34541">
        <ele>800</ele>
        <time>2020-07-04T22:13:44Z</time>
      </trkpt>
      <trkpt lat="43.73709" lon="6.34556">
        <ele>800</ele>
        <time>2020-07-04T22:13:46Z</time>
      </trkpt>
      <trkpt lat="43.73711" lon="6.34564">
        <ele>800</ele>
        <time>2020-07-04T22:13:47Z</time>
      </trkpt>
      <trkpt lat="43.73713" lon="6.34582">
        <ele>800</ele>
        <time>2020-07-04T22:13:50Z</time>
      </trkpt>
      <trkpt lat="43.73714" lon="6.34588">
        <ele>800</ele>
        <time>2020-07-04T22:13:50Z</time>
      </trkpt>
      <trkpt lat="43.73714" lon="6.34595">
        <ele>800</ele>
        <time>2020-07-04T22:13:51Z</time>
      </trkpt>
      <trkpt lat="43.73713" lon="6.34602">
        <ele>800</ele>
        <time>2020-07-04T22:13:52Z</time>
      </trkpt>
      <trkpt lat="43.73709" lon="6.34617">
        <ele>799</ele>
        <time>2020-07-04T22:13:54Z</time>
      </trkpt>
      <trkpt lat="43.73687" lon="6.3466">
        <ele>801</ele>
        <time>2020-07-04T22:14:01Z</time>
      </trkpt>
      <trkpt lat="43.73684" lon="6.34671">
        <ele>800</ele>
        <time>2020-07-04T22:14:03Z</time>
      </trkpt>
      <trkpt lat="43.73674" lon="6.34713">
        <ele>796</ele>
        <time>2020-07-04T22:14:08Z</time>
      </trkpt>
      <trkpt lat="43.73671" lon="6.34735">
        <ele>796</ele>
        <time>2020-07-04T22:14:11Z</time>
      </trkpt>
      <trkpt lat="43.73667" lon="6.34748">
        <ele>798</ele>
        <time>2020-07-04T22:14:13Z</time>
      </trkpt>
      <trkpt lat="43.73649" lon="6.34782">
        <ele>797</ele>
        <time>2020-07-04T22:14:18Z</time>
      </trkpt>
      <trkpt lat="43.73645" lon="6.34787">
        <ele>797</ele>
        <time>2020-07-04T22:14:19Z</time>
      </trkpt>
      <trkpt lat="43.73628" lon="6.3486">
        <ele>793</ele>
        <time>2020-07-04T22:14:29Z</time>
      </trkpt>
      <trkpt lat="43.73622" lon="6.3488">
        <ele>793</ele>
        <time>2020-07-04T22:14:32Z</time>
      </trkpt>
      <trkpt lat="43.73615" lon="6.34897">
        <ele>795</ele>
        <time>2020-07-04T22:14:35Z</time>
      </trkpt>
      <trkpt lat="43.73577" lon="6.34965">
        <ele>807</ele>
        <time>2020-07-04T22:14:46Z</time>
      </trkpt>
      <trkpt lat="43.73552" lon="6.35019">
        <ele>802</ele>
        <time>2020-07-04T22:14:54Z</time>
      </trkpt>
      <trkpt lat="43.73516" lon="6.35079">
        <ele>814</ele>
        <time>2020-07-04T22:15:04Z</time>
      </trkpt>
      <trkpt lat="43.73503" lon="6.35095">
        <ele>822</ele>
        <time>2020-07-04T22:15:07Z</time>
      </trkpt>
      <trkpt lat="43.73454" lon="6.35125">
        <ele>824</ele>
        <time>2020-07-04T22:15:16Z</time>
      </trkpt>
      <trkpt lat="43.73294" lon="6.3525">
        <ele>835</ele>
        <time>2020-07-04T22:15:49Z</time>
      </trkpt>
      <trkpt lat="43.73284" lon="6.35256">
        <ele>835</ele>
        <time>2020-07-04T22:15:51Z</time>
      </trkpt>
      <trkpt lat="43.7327" lon="6.35263">
        <ele>835</ele>
        <time>2020-07-04T22:15:54Z</time>
      </trkpt>
      <trkpt lat="43.7324" lon="6.35276">
        <ele>836</ele>
        <time>2020-07-04T22:15:59Z</time>
      </trkpt>
      <trkpt lat="43.73221" lon="6.3529">
        <ele>836</ele>
        <time>2020-07-04T22:16:03Z</time>
      </trkpt>
      <trkpt lat="43.7321" lon="6.35301">
        <ele>837</ele>
        <time>2020-07-04T22:16:06Z</time>
      </trkpt>
      <trkpt lat="43.73172" lon="6.35346">
        <ele>840</ele>
        <time>2020-07-04T22:16:14Z</time>
      </trkpt>
      <trkpt lat="43.73148" lon="6.3538">
        <ele>842</ele>
        <time>2020-07-04T22:16:21Z</time>
      </trkpt>
      <trkpt lat="43.73108" lon="6.35449">
        <ele>845</ele>
        <time>2020-07-04T22:16:32Z</time>
      </trkpt>
      <trkpt lat="43.73081" lon="6.35513">
        <ele>847</ele>
        <time>2020-07-04T22:16:41Z</time>
      </trkpt>
      <trkpt lat="43.73044" lon="6.35592">
        <ele>851</ele>
        <time>2020-07-04T22:16:54Z</time>
      </trkpt>
      <trkpt lat="43.73021" lon="6.35676">
        <ele>854</ele>
        <time>2020-07-04T22:17:05Z</time>
      </trkpt>
      <trkpt lat="43.73019" lon="6.35687">
        <ele>855</ele>
        <time>2020-07-04T22:17:07Z</time>
      </trkpt>
      <trkpt lat="43.73019" lon="6.35705">
        <ele>856</ele>
        <time>2020-07-04T22:17:09Z</time>
      </trkpt>
      <trkpt lat="43.7302" lon="6.35713">
        <ele>857</ele>
        <time>2020-07-04T22:17:10Z</time>
      </trkpt>
      <trkpt lat="43.73027" lon="6.35742">
        <ele>859</ele>
        <time>2020-07-04T22:17:14Z</time>
      </trkpt>
      <trkpt lat="43.73029" lon="6.35755">
        <ele>860</ele>
        <time>2020-07-04T22:17:16Z</time>
      </trkpt>
      <trkpt lat="43.7303" lon="6.35769">
        <ele>860</ele>
        <time>2020-07-04T22:17:17Z</time>
      </trkpt>
      <trkpt lat="43.73028" lon="6.3579">
        <ele>861</ele>
        <time>2020-07-04T22:17:20Z</time>
      </trkpt>
      <trkpt lat="43.73019" lon="6.35927">
        <ele>864</ele>
        <time>2020-07-04T22:17:38Z</time>
      </trkpt>
      <trkpt lat="43.73017" lon="6.35954">
        <ele>865</ele>
        <time>2020-07-04T22:17:41Z</time>
      </trkpt>
      <trkpt lat="43.73013" lon="6.36024">
        <ele>867</ele>
        <time>2020-07-04T22:17:50Z</time>
      </trkpt>
      <trkpt lat="43.73009" lon="6.36047">
        <ele>868</ele>
        <time>2020-07-04T22:17:53Z</time>
      </trkpt>
      <trkpt lat="43.72984" lon="6.3612">
        <ele>872</ele>
        <time>2020-07-04T22:18:04Z</time>
      </trkpt>
      <trkpt lat="43.72978" lon="6.36133">
        <ele>873</ele>
        <time>2020-07-04T22:18:06Z</time>
      </trkpt>
      <trkpt lat="43.72907" lon="6.36228">
        <ele>878</ele>
        <time>2020-07-04T22:18:23Z</time>
      </trkpt>
      <trkpt lat="43.72877" lon="6.36269">
        <ele>879</ele>
        <time>2020-07-04T22:18:31Z</time>
      </trkpt>
      <trkpt lat="43.72816" lon="6.36352">
        <ele>885</ele>
        <time>2020-07-04T22:18:46Z</time>
      </trkpt>
      <trkpt lat="43.7278" lon="6.36402">
        <ele>887</ele>
        <time>2020-07-04T22:18:55Z</time>
      </trkpt>
      <trkpt lat="43.72756" lon="6.3644">
        <ele>889</ele>
        <time>2020-07-04T22:19:02Z</time>
      </trkpt>
      <trkpt lat="43.72751" lon="6.36451">
        <ele>889</ele>
        <time>2020-07-04T22:19:03Z</time>
      </trkpt>
      <trkpt lat="43.72748" lon="6.36471">
        <ele>891</ele>
        <time>2020-07-04T22:19:06Z</time>
      </trkpt>
      <trkpt lat="43.72751" lon="6.36487">
        <ele>893</ele>
        <time>2020-07-04T22:19:08Z</time>
      </trkpt>
      <trkpt lat="43.72755" lon="6.36493">
        <ele>894</ele>
        <time>2020-07-04T22:19:09Z</time>
      </trkpt>
      <trkpt lat="43.72758" lon="6.36495">
        <ele>894</ele>
        <time>2020-07-04T22:19:10Z</time>
      </trkpt>
      <trkpt lat="43.72761" lon="6.36497">
        <ele>895</ele>
        <time>2020-07-04T22:19:10Z</time>
      </trkpt>
      <trkpt lat="43.72772" lon="6.36501">
        <ele>896</ele>
        <time>2020-07-04T22:19:12Z</time>
      </trkpt>
      <trkpt lat="43.72778" lon="6.365">
        <ele>897</ele>
        <time>2020-07-04T22:19:13Z</time>
      </trkpt>
      <trkpt lat="43.72785" lon="6.36497">
        <ele>897</ele>
        <time>2020-07-04T22:19:15Z</time>
      </trkpt>
      <trkpt lat="43.7281" lon="6.36468">
        <ele>896</ele>
        <time>2020-07-04T22:19:20Z</time>
      </trkpt>
      <trkpt lat="43.72834" lon="6.36455">
        <ele>897</ele>
        <time>2020-07-04T22:19:25Z</time>
      </trkpt>
      <trkpt lat="43.72844" lon="6.36452">
        <ele>897</ele>
        <time>2020-07-04T22:19:27Z</time>
      </trkpt>
      <trkpt lat="43.72855" lon="6.36451">
        <ele>898</ele>
        <time>2020-07-04T22:19:29Z</time>
      </trkpt>
      <trkpt lat="43.72911" lon="6.36452">
        <ele>902</ele>
        <time>2020-07-04T22:19:39Z</time>
      </trkpt>
      <trkpt lat="43.73058" lon="6.3643">
        <ele>911</ele>
        <time>2020-07-04T22:20:05Z</time>
      </trkpt>
      <trkpt lat="43.73225" lon="6.36378">
        <ele>919</ele>
        <time>2020-07-04T22:20:36Z</time>
      </trkpt>
      <trkpt lat="43.7328" lon="6.36363">
        <ele>922</ele>
        <time>2020-07-04T22:20:46Z</time>
      </trkpt>
      <trkpt lat="43.73375" lon="6.36351">
        <ele>927</ele>
        <time>2020-07-04T22:21:03Z</time>
      </trkpt>
      <trkpt lat="43.73426" lon="6.3635">
        <ele>930</ele>
        <time>2020-07-04T22:21:12Z</time>
      </trkpt>
      <trkpt lat="43.73456" lon="6.36351">
        <ele>929</ele>
        <time>2020-07-04T22:21:17Z</time>
      </trkpt>
      <trkpt lat="43.73462" lon="6.36353">
        <ele>929</ele>
        <time>2020-07-04T22:21:18Z</time>
      </trkpt>
      <trkpt lat="43.73468" lon="6.36356">
        <ele>930</ele>
        <time>2020-07-04T22:21:19Z</time>
      </trkpt>
      <trkpt lat="43.73484" lon="6.36369">
        <ele>934</ele>
        <time>2020-07-04T22:21:22Z</time>
      </trkpt>
      <trkpt lat="43.73495" lon="6.36387">
        <ele>940</ele>
        <time>2020-07-04T22:21:25Z</time>
      </trkpt>
      <trkpt lat="43.735" lon="6.36398">
        <ele>944</ele>
        <time>2020-07-04T22:21:27Z</time>
      </trkpt>
      <trkpt lat="43.73534" lon="6.36488">
        <ele>916</ele>
        <time>2020-07-04T22:21:40Z</time>
      </trkpt>
      <trkpt lat="43.73537" lon="6.3651">
        <ele>919</ele>
        <time>2020-07-04T22:21:43Z</time>
      </trkpt>
      <trkpt lat="43.73537" lon="6.36521">
        <ele>921</ele>
        <time>2020-07-04T22:21:45Z</time>
      </trkpt>
      <trkpt lat="43.73536" lon="6.3655">
        <ele>928</ele>
        <time>2020-07-04T22:21:48Z</time>
      </trkpt>
      <trkpt lat="43.73534" lon="6.36579">
        <ele>936</ele>
        <time>2020-07-04T22:21:52Z</time>
      </trkpt>
      <trkpt lat="43.73535" lon="6.3659">
        <ele>935</ele>
        <time>2020-07-04T22:21:53Z</time>
      </trkpt>
      <trkpt lat="43.73544" lon="6.36617">
        <ele>928</ele>
        <time>2020-07-04T22:21:57Z</time>
      </trkpt>
      <trkpt lat="43.73547" lon="6.36631">
        <ele>927</ele>
        <time>2020-07-04T22:21:59Z</time>
      </trkpt>
      <trkpt lat="43.7355" lon="6.36666">
        <ele>928</ele>
        <time>2020-07-04T22:22:04Z</time>
      </trkpt>
      <trkpt lat="43.73554" lon="6.36703">
        <ele>920</ele>
        <time>2020-07-04T22:22:08Z</time>
      </trkpt>
      <trkpt lat="43.73553" lon="6.36721">
        <ele>917</ele>
        <time>2020-07-04T22:22:11Z</time>
      </trkpt>
      <trkpt lat="43.7355" lon="6.36734">
        <ele>917</ele>
        <time>2020-07-04T22:22:13Z</time>
      </trkpt>
      <trkpt lat="43.73543" lon="6.36748">
        <ele>917</ele>
        <time>2020-07-04T22:22:15Z</time>
      </trkpt>
      <trkpt lat="43.73513" lon="6.36794">
        <ele>917</ele>
        <time>2020-07-04T22:22:23Z</time>
      </trkpt>
      <trkpt lat="43.73487" lon="6.36841">
        <ele>915</ele>
        <time>2020-07-04T22:22:30Z</time>
      </trkpt>
      <trkpt lat="43.73475" lon="6.36868">
        <ele>914</ele>
        <time>2020-07-04T22:22:34Z</time>
      </trkpt>
      <trkpt lat="43.73445" lon="6.36951">
        <ele>907</ele>
        <time>2020-07-04T22:22:46Z</time>
      </trkpt>
      <trkpt lat="43.73428" lon="6.36988">
        <ele>905</ele>
        <time>2020-07-04T22:22:52Z</time>
      </trkpt>
      <trkpt lat="43.73368" lon="6.37088">
        <ele>898</ele>
        <time>2020-07-04T22:23:09Z</time>
      </trkpt>
      <trkpt lat="43.73296" lon="6.37181">
        <ele>894</ele>
        <time>2020-07-04T22:23:26Z</time>
      </trkpt>
      <trkpt lat="43.73271" lon="6.37226">
        <ele>889</ele>
        <time>2020-07-04T22:23:33Z</time>
      </trkpt>
      <trkpt lat="43.73246" lon="6.37281">
        <ele>884</ele>
        <time>2020-07-04T22:23:42Z</time>
      </trkpt>
      <trkpt lat="43.73234" lon="6.37289">
        <ele>885</ele>
        <time>2020-07-04T22:23:44Z</time>
      </trkpt>
      <trkpt lat="43.73226" lon="6.373">
        <ele>885</ele>
        <time>2020-07-04T22:23:46Z</time>
      </trkpt>
      <trkpt lat="43.73224" lon="6.37313">
        <ele>882</ele>
        <time>2020-07-04T22:23:48Z</time>
      </trkpt>
      <trkpt lat="43.73229" lon="6.37322">
        <ele>879</ele>
        <time>2020-07-04T22:23:49Z</time>
      </trkpt>
      <trkpt lat="43.73236" lon="6.37326">
        <ele>877</ele>
        <time>2020-07-04T22:23:51Z</time>
      </trkpt>
      <trkpt lat="43.73243" lon="6.37324">
        <ele>876</ele>
        <time>2020-07-04T22:23:52Z</time>
      </trkpt>
      <trkpt lat="43.73247" lon="6.3732">
        <ele>875</ele>
        <time>2020-07-04T22:23:53Z</time>
      </trkpt>
      <trkpt lat="43.73258" lon="6.37287">
        <ele>879</ele>
        <time>2020-07-04T22:23:58Z</time>
      </trkpt>
      <trkpt lat="43.73272" lon="6.37263">
        <ele>880</ele>
        <time>2020-07-04T22:24:02Z</time>
      </trkpt>
      <trkpt lat="43.73318" lon="6.37216">
        <ele>879</ele>
        <time>2020-07-04T22:24:12Z</time>
      </trkpt>
      <trkpt lat="43.73408" lon="6.37157">
        <ele>870</ele>
        <time>2020-07-04T22:24:29Z</time>
      </trkpt>
      <trkpt lat="43.73429" lon="6.37145">
        <ele>869</ele>
        <time>2020-07-04T22:24:33Z</time>
      </trkpt>
      <trkpt lat="43.73486" lon="6.37121">
        <ele>864</ele>
        <time>2020-07-04T22:24:44Z</time>
      </trkpt>
      <trkpt lat="43.73515" lon="6.37114">
        <ele>863</ele>
        <time>2020-07-04T22:24:49Z</time>
      </trkpt>
      <trkpt lat="43.73552" lon="6.37109">
        <ele>862</ele>
        <time>2020-07-04T22:24:56Z</time>
      </trkpt>
      <trkpt lat="43.73575" lon="6.37103">
        <ele>861</ele>
        <time>2020-07-04T22:25:00Z</time>
      </trkpt>
      <trkpt lat="43.73664" lon="6.37059">
        <ele>863</ele>
        <time>2020-07-04T22:25:17Z</time>
      </trkpt>
      <trkpt lat="43.737" lon="6.37048">
        <ele>864</ele>
        <time>2020-07-04T22:25:23Z</time>
      </trkpt>
      <trkpt lat="43.73723" lon="6.37045">
        <ele>864</ele>
        <time>2020-07-04T22:25:28Z</time>
      </trkpt>
      <trkpt lat="43.73763" lon="6.37045">
        <ele>865</ele>
        <time>2020-07-04T22:25:35Z</time>
      </trkpt>
      <trkpt lat="43.73794" lon="6.3705">
        <ele>866</ele>
        <time>2020-07-04T22:25:40Z</time>
      </trkpt>
      <trkpt lat="43.73815" lon="6.37061">
        <ele>868</ele>
        <time>2020-07-04T22:25:44Z</time>
      </trkpt>
      <trkpt lat="43.73916" lon="6.37127">
        <ele>870</ele>
        <time>2020-07-04T22:26:04Z</time>
      </trkpt>
      <trkpt lat="43.73921" lon="6.37137">
        <ele>870</ele>
        <time>2020-07-04T22:26:06Z</time>
      </trkpt>
      <trkpt lat="43.73928" lon="6.37179">
        <ele>873</ele>
        <time>2020-07-04T22:26:11Z</time>
      </trkpt>
      <trkpt lat="43.73928" lon="6.37196">
        <ele>874</ele>
        <time>2020-07-04T22:26:13Z</time>
      </trkpt>
      <trkpt lat="43.73923" lon="6.37219">
        <ele>878</ele>
        <time>2020-07-04T22:26:16Z</time>
      </trkpt>
      <trkpt lat="43.73915" lon="6.37245">
        <ele>884</ele>
        <time>2020-07-04T22:26:20Z</time>
      </trkpt>
      <trkpt lat="43.739" lon="6.37264">
        <ele>890</ele>
        <time>2020-07-04T22:26:24Z</time>
      </trkpt>
      <trkpt lat="43.73899" lon="6.37271">
        <ele>890</ele>
        <time>2020-07-04T22:26:25Z</time>
      </trkpt>
      <trkpt lat="43.739" lon="6.37279">
        <ele>890</ele>
        <time>2020-07-04T22:26:26Z</time>
      </trkpt>
      <trkpt lat="43.73903" lon="6.37283">
        <ele>889</ele>
        <time>2020-07-04T22:26:26Z</time>
      </trkpt>
      <trkpt lat="43.73907" lon="6.37285">
        <ele>888</ele>
        <time>2020-07-04T22:26:27Z</time>
      </trkpt>
      <trkpt lat="43.73923" lon="6.37285">
        <ele>883</ele>
        <time>2020-07-04T22:26:30Z</time>
      </trkpt>
      <trkpt lat="43.73973" lon="6.37306">
        <ele>866</ele>
        <time>2020-07-04T22:26:39Z</time>
      </trkpt>
      <trkpt lat="43.73984" lon="6.37315">
        <ele>864</ele>
        <time>2020-07-04T22:26:42Z</time>
      </trkpt>
      <trkpt lat="43.73992" lon="6.37319">
        <ele>862</ele>
        <time>2020-07-04T22:26:43Z</time>
      </trkpt>
      <trkpt lat="43.74017" lon="6.37323">
        <ele>855</ele>
        <time>2020-07-04T22:26:48Z</time>
      </trkpt>
      <trkpt lat="43.74024" lon="6.3733">
        <ele>854</ele>
        <time>2020-07-04T22:26:49Z</time>
      </trkpt>
      <trkpt lat="43.74026" lon="6.37336">
        <ele>853</ele>
        <time>2020-07-04T22:26:50Z</time>
      </trkpt>
      <trkpt lat="43.74025" lon="6.37342">
        <ele>851</ele>
        <time>2020-07-04T22:26:51Z</time>
      </trkpt>
      <trkpt lat="43.74022" lon="6.37347">
        <ele>851</ele>
        <time>2020-07-04T22:26:52Z</time>
      </trkpt>
      <trkpt lat="43.74" lon="6.37365">
        <ele>856</ele>
        <time>2020-07-04T22:26:56Z</time>
      </trkpt>
      <trkpt lat="43.73978" lon="6.37385">
        <ele>859</ele>
        <time>2020-07-04T22:27:01Z</time>
      </trkpt>
      <trkpt lat="43.73896" lon="6.37483">
        <ele>858</ele>
        <time>2020-07-04T22:27:20Z</time>
      </trkpt>
      <trkpt lat="43.73872" lon="6.37507">
        <ele>856</ele>
        <time>2020-07-04T22:27:25Z</time>
      </trkpt>
      <trkpt lat="43.73793" lon="6.37564">
        <ele>857</ele>
        <time>2020-07-04T22:27:41Z</time>
      </trkpt>
      <trkpt lat="43.73786" lon="6.3757">
        <ele>857</ele>
        <time>2020-07-04T22:27:43Z</time>
      </trkpt>
      <trkpt lat="43.73778" lon="6.37584">
        <ele>853</ele>
        <time>2020-07-04T22:27:45Z</time>
      </trkpt>
      <trkpt lat="43.73759" lon="6.37638">
        <ele>841</ele>
        <time>2020-07-04T22:27:53Z</time>
      </trkpt>
      <trkpt lat="43.73748" lon="6.37652">
        <ele>839</ele>
        <time>2020-07-04T22:27:55Z</time>
      </trkpt>
      <trkpt lat="43.73733" lon="6.37666">
        <ele>835</ele>
        <time>2020-07-04T22:27:59Z</time>
      </trkpt>
      <trkpt lat="43.73672" lon="6.37693">
        <ele>830</ele>
        <time>2020-07-04T22:28:10Z</time>
      </trkpt>
      <trkpt lat="43.73649" lon="6.37687">
        <ele>831</ele>
        <time>2020-07-04T22:28:14Z</time>
      </trkpt>
      <trkpt lat="43.7363" lon="6.37685">
        <ele>830</ele>
        <time>2020-07-04T22:28:18Z</time>
      </trkpt>
      <trkpt lat="43.73561" lon="6.37685">
        <ele>824</ele>
        <time>2020-07-04T22:28:30Z</time>
      </trkpt>
      <trkpt lat="43.73546" lon="6.37687">
        <ele>822</ele>
        <time>2020-07-04T22:28:32Z</time>
      </trkpt>
      <trkpt lat="43.73494" lon="6.37697">
        <ele>814</ele>
        <time>2020-07-04T22:28:42Z</time>
      </trkpt>
      <trkpt lat="43.73472" lon="6.37695">
        <ele>810</ele>
        <time>2020-07-04T22:28:46Z</time>
      </trkpt>
      <trkpt lat="43.73392" lon="6.37673">
        <ele>802</ele>
        <time>2020-07-04T22:29:00Z</time>
      </trkpt>
      <trkpt lat="43.73376" lon="6.37663">
        <ele>802</ele>
        <time>2020-07-04T22:29:03Z</time>
      </trkpt>
      <trkpt lat="43.7337" lon="6.37656">
        <ele>803</ele>
        <time>2020-07-04T22:29:05Z</time>
      </trkpt>
      <trkpt lat="43.73346" lon="6.37621">
        <ele>807</ele>
        <time>2020-07-04T22:29:11Z</time>
      </trkpt>
      <trkpt lat="43.73341" lon="6.37615">
        <ele>807</ele>
        <time>2020-07-04T22:29:12Z</time>
      </trkpt>
      <trkpt lat="43.73335" lon="6.37612">
        <ele>807</ele>
        <time>2020-07-04T22:29:13Z</time>
      </trkpt>
      <trkpt lat="43.73326" lon="6.37612">
        <ele>808</ele>
        <time>2020-07-04T22:29:15Z</time>
      </trkpt>
      <trkpt lat="43.73313" lon="6.37616">
        <ele>809</ele>
        <time>2020-07-04T22:29:17Z</time>
      </trkpt>
      <trkpt lat="43.73303" lon="6.37626">
        <ele>808</ele>
        <time>2020-07-04T22:29:19Z</time>
      </trkpt>
      <trkpt lat="43.73295" lon="6.3764">
        <ele>805</ele>
        <time>2020-07-04T22:29:22Z</time>
      </trkpt>
      <trkpt lat="43.73286" lon="6.37674">
        <ele>799</ele>
        <time>2020-07-04T22:29:26Z</time>
      </trkpt>
      <trkpt lat="43.73268" lon="6.37698">
        <ele>799</ele>
        <time>2020-07-04T22:29:31Z</time>
      </trkpt>
      <trkpt lat="43.73265" lon="6.37712">
        <ele>798</ele>
        <time>2020-07-04T22:29:33Z</time>
      </trkpt>
      <trkpt lat="43.73268" lon="6.37732">
        <ele>796</ele>
        <time>2020-07-04T22:29:35Z</time>
      </trkpt>
      <trkpt lat="43.73313" lon="6.37903">
        <ele>781</ele>
        <time>2020-07-04T22:29:59Z</time>
      </trkpt>
      <trkpt lat="43.73316" lon="6.37926">
        <ele>780</ele>
        <time>2020-07-04T22:30:02Z</time>
      </trkpt>
      <trkpt lat="43.7332" lon="6.38105">
        <ele>773</ele>
        <time>2020-07-04T22:30:25Z</time>
      </trkpt>
      <trkpt lat="43.73319" lon="6.38125">
        <ele>772</ele>
        <time>2020-07-04T22:30:27Z</time>
      </trkpt>
      <trkpt lat="43.73295" lon="6.38302">
        <ele>762</ele>
        <time>2020-07-04T22:30:51Z</time>
      </trkpt>
      <trkpt lat="43.73292" lon="6.38334">
        <ele>759</ele>
        <time>2020-07-04T22:30:55Z</time>
      </trkpt>
      <trkpt lat="43.73292" lon="6.38353">
        <ele>758</ele>
        <time>2020-07-04T22:30:57Z</time>
      </trkpt>
      <trkpt lat="43.73301" lon="6.38426">
        <ele>753</ele>
        <time>2020-07-04T22:31:07Z</time>
      </trkpt>
      <trkpt lat="43.73304" lon="6.38507">
        <ele>748</ele>
        <time>2020-07-04T22:31:17Z</time>
      </trkpt>
      <trkpt lat="43.73303" lon="6.38525">
        <ele>748</ele>
        <time>2020-07-04T22:31:19Z</time>
      </trkpt>
      <trkpt lat="43.73295" lon="6.38565">
        <ele>748</ele>
        <time>2020-07-04T22:31:25Z</time>
      </trkpt>
      <trkpt lat="43.73299" lon="6.3862">
        <ele>740</ele>
        <time>2020-07-04T22:31:32Z</time>
      </trkpt>
      <trkpt lat="43.73296" lon="6.38659">
        <ele>734</ele>
        <time>2020-07-04T22:31:37Z</time>
      </trkpt>
      <trkpt lat="43.73299" lon="6.38691">
        <ele>723</ele>
        <time>2020-07-04T22:31:41Z</time>
      </trkpt>
      <trkpt lat="43.73298" lon="6.38709">
        <ele>718</ele>
        <time>2020-07-04T22:31:43Z</time>
      </trkpt>
      <trkpt lat="43.73288" lon="6.38729">
        <ele>714</ele>
        <time>2020-07-04T22:31:46Z</time>
      </trkpt>
      <trkpt lat="43.73278" lon="6.38738">
        <ele>715</ele>
        <time>2020-07-04T22:31:49Z</time>
      </trkpt>
      <trkpt lat="43.7324" lon="6.38734">
        <ele>726</ele>
        <time>2020-07-04T22:31:55Z</time>
      </trkpt>
      <trkpt lat="43.73204" lon="6.38725">
        <ele>728</ele>
        <time>2020-07-04T22:32:02Z</time>
      </trkpt>
      <trkpt lat="43.73192" lon="6.38727">
        <ele>727</ele>
        <time>2020-07-04T22:32:04Z</time>
      </trkpt>
      <trkpt lat="43.73174" lon="6.38735">
        <ele>724</ele>
        <time>2020-07-04T22:32:07Z</time>
      </trkpt>
      <trkpt lat="43.73159" lon="6.38736">
        <ele>722</ele>
        <time>2020-07-04T22:32:10Z</time>
      </trkpt>
      <trkpt lat="43.73153" lon="6.38734">
        <ele>722</ele>
        <time>2020-07-04T22:32:11Z</time>
      </trkpt>
      <trkpt lat="43.73143" lon="6.38724">
        <ele>722</ele>
        <time>2020-07-04T22:32:13Z</time>
      </trkpt>
      <trkpt lat="43.73125" lon="6.38698">
        <ele>723</ele>
        <time>2020-07-04T22:32:18Z</time>
      </trkpt>
      <trkpt lat="43.73088" lon="6.38654">
        <ele>722</ele>
        <time>2020-07-04T22:32:27Z</time>
      </trkpt>
      <trkpt lat="43.7308" lon="6.38647">
        <ele>722</ele>
        <time>2020-07-04T22:32:28Z</time>
      </trkpt>
      <trkpt lat="43.73073" lon="6.38643">
        <ele>720</ele>
        <time>2020-07-04T22:32:30Z</time>
      </trkpt>
      <trkpt lat="43.73061" lon="6.38642">
        <ele>717</ele>
        <time>2020-07-04T22:32:32Z</time>
      </trkpt>
      <trkpt lat="43.73055" lon="6.38645">
        <ele>714</ele>
        <time>2020-07-04T22:32:33Z</time>
      </trkpt>
      <trkpt lat="43.73052" lon="6.3865">
        <ele>712</ele>
        <time>2020-07-04T22:32:34Z</time>
      </trkpt>
      <trkpt lat="43.7298" lon="6.38768">
        <ele>717</ele>
        <time>2020-07-04T22:32:54Z</time>
      </trkpt>
      <trkpt lat="43.72977" lon="6.38775">
        <ele>718</ele>
        <time>2020-07-04T22:32:55Z</time>
      </trkpt>
      <trkpt lat="43.72968" lon="6.38805">
        <ele>726</ele>
        <time>2020-07-04T22:32:59Z</time>
      </trkpt>
      <trkpt lat="43.72968" lon="6.3883">
        <ele>731</ele>
        <time>2020-07-04T22:33:02Z</time>
      </trkpt>
      <trkpt lat="43.72969" lon="6.38838">
        <ele>733</ele>
        <time>2020-07-04T22:33:03Z</time>
      </trkpt>
      <trkpt lat="43.72972" lon="6.38847">
        <ele>734</ele>
        <time>2020-07-04T22:33:04Z</time>
      </trkpt>
      <trkpt lat="43.72992" lon="6.38884">
        <ele>739</ele>
        <time>2020-07-04T22:33:10Z</time>
      </trkpt>
      <trkpt lat="43.73005" lon="6.38903">
        <ele>741</ele>
        <time>2020-07-04T22:33:14Z</time>
      </trkpt>
      <trkpt lat="43.73064" lon="6.38948">
        <ele>742</ele>
        <time>2020-07-04T22:33:26Z</time>
      </trkpt>
      <trkpt lat="43.73105" lon="6.38974">
        <ele>748</ele>
        <time>2020-07-04T22:33:34Z</time>
      </trkpt>
      <trkpt lat="43.73112" lon="6.38977">
        <ele>749</ele>
        <time>2020-07-04T22:33:35Z</time>
      </trkpt>
      <trkpt lat="43.73175" lon="6.38986">
        <ele>752</ele>
        <time>2020-07-04T22:33:46Z</time>
      </trkpt>
      <trkpt lat="43.73191" lon="6.38993">
        <ele>752</ele>
        <time>2020-07-04T22:33:49Z</time>
      </trkpt>
      <trkpt lat="43.73203" lon="6.39001">
        <ele>752</ele>
        <time>2020-07-04T22:33:52Z</time>
      </trkpt>
      <trkpt lat="43.7321" lon="6.39015">
        <ele>753</ele>
        <time>2020-07-04T22:33:54Z</time>
      </trkpt>
      <trkpt lat="43.73226" lon="6.39076">
        <ele>761</ele>
        <time>2020-07-04T22:34:02Z</time>
      </trkpt>
      <trkpt lat="43.73233" lon="6.39089">
        <ele>762</ele>
        <time>2020-07-04T22:34:04Z</time>
      </trkpt>
      <trkpt lat="43.73335" lon="6.39186">
        <ele>769</ele>
        <time>2020-07-04T22:34:26Z</time>
      </trkpt>
      <trkpt lat="43.7337" lon="6.39214">
        <ele>775</ele>
        <time>2020-07-04T22:34:33Z</time>
      </trkpt>
      <trkpt lat="43.7339" lon="6.39235">
        <ele>777</ele>
        <time>2020-07-04T22:34:38Z</time>
      </trkpt>
      <trkpt lat="43.73424" lon="6.39278">
        <ele>781</ele>
        <time>2020-07-04T22:34:46Z</time>
      </trkpt>
      <trkpt lat="43.7343" lon="6.39297">
        <ele>783</ele>
        <time>2020-07-04T22:34:49Z</time>
      </trkpt>
      <trkpt lat="43.7344" lon="6.39345">
        <ele>787</ele>
        <time>2020-07-04T22:34:55Z</time>
      </trkpt>
      <trkpt lat="43.73444" lon="6.39355">
        <ele>788</ele>
        <time>2020-07-04T22:34:57Z</time>
      </trkpt>
      <trkpt lat="43.73456" lon="6.39368">
        <ele>790</ele>
        <time>2020-07-04T22:34:59Z</time>
      </trkpt>
      <trkpt lat="43.7347" lon="6.3937">
        <ele>790</ele>
        <time>2020-07-04T22:35:02Z</time>
      </trkpt>
      <trkpt lat="43.73476" lon="6.39368">
        <ele>791</ele>
        <time>2020-07-04T22:35:03Z</time>
      </trkpt>
      <trkpt lat="43.73479" lon="6.39366">
        <ele>791</ele>
        <time>2020-07-04T22:35:04Z</time>
      </trkpt>
      <trkpt lat="43.73484" lon="6.3936">
        <ele>791</ele>
        <time>2020-07-04T22:35:05Z</time>
      </trkpt>
      <trkpt lat="43.73591" lon="6.39166">
        <ele>800</ele>
        <time>2020-07-04T22:35:36Z</time>
      </trkpt>
      <trkpt lat="43.73773" lon="6.38843">
        <ele>797</ele>
        <time>2020-07-04T22:36:29Z</time>
      </trkpt>
      <trkpt lat="43.7378" lon="6.38835">
        <ele>796</ele>
        <time>2020-07-04T22:36:30Z</time>
      </trkpt>
      <trkpt lat="43.73788" lon="6.38829">
        <ele>796</ele>
        <time>2020-07-04T22:36:32Z</time>
      </trkpt>
      <trkpt lat="43.73818" lon="6.38814">
        <ele>795</ele>
        <time>2020-07-04T22:36:38Z</time>
      </trkpt>
      <trkpt lat="43.73853" lon="6.388">
        <ele>796</ele>
        <time>2020-07-04T22:36:44Z</time>
      </trkpt>
      <trkpt lat="43.7386" lon="6.38795">
        <ele>797</ele>
        <time>2020-07-04T22:36:46Z</time>
      </trkpt>
      <trkpt lat="43.73864" lon="6.3879">
        <ele>797</ele>
        <time>2020-07-04T22:36:47Z</time>
      </trkpt>
      <trkpt lat="43.73881" lon="6.38753">
        <ele>797</ele>
        <time>2020-07-04T22:36:52Z</time>
      </trkpt>
      <trkpt lat="43.73883" lon="6.38735">
        <ele>798</ele>
        <time>2020-07-04T22:36:55Z</time>
      </trkpt>
      <trkpt lat="43.73883" lon="6.38708">
        <ele>797</ele>
        <time>2020-07-04T22:36:58Z</time>
      </trkpt>
      <trkpt lat="43.73882" lon="6.3868">
        <ele>797</ele>
        <time>2020-07-04T22:37:02Z</time>
      </trkpt>
      <trkpt lat="43.73882" lon="6.38664">
        <ele>797</ele>
        <time>2020-07-04T22:37:04Z</time>
      </trkpt>
      <trkpt lat="43.73878" lon="6.38643">
        <ele>796</ele>
        <time>2020-07-04T22:37:06Z</time>
      </trkpt>
      <trkpt lat="43.73856" lon="6.38584">
        <ele>794</ele>
        <time>2020-07-04T22:37:15Z</time>
      </trkpt>
      <trkpt lat="43.7375" lon="6.38391">
        <ele>782</ele>
        <time>2020-07-04T22:37:46Z</time>
      </trkpt>
      <trkpt lat="43.73744" lon="6.38368">
        <ele>782</ele>
        <time>2020-07-04T22:37:49Z</time>
      </trkpt>
      <trkpt lat="43.73743" lon="6.38338">
        <ele>782</ele>
        <time>2020-07-04T22:37:53Z</time>
      </trkpt>
      <trkpt lat="43.73747" lon="6.3832">
        <ele>781</ele>
        <time>2020-07-04T22:37:56Z</time>
      </trkpt>
      <trkpt lat="43.73753" lon="6.38306">
        <ele>781</ele>
        <time>2020-07-04T22:37:58Z</time>
      </trkpt>
      <trkpt lat="43.73776" lon="6.38263">
        <ele>777</ele>
        <time>2020-07-04T22:38:05Z</time>
      </trkpt>
      <trkpt lat="43.73784" lon="6.38253">
        <ele>777</ele>
        <time>2020-07-04T22:38:07Z</time>
      </trkpt>
      <trkpt lat="43.73823" lon="6.38213">
        <ele>773</ele>
        <time>2020-07-04T22:38:15Z</time>
      </trkpt>
      <trkpt lat="43.73864" lon="6.38161">
        <ele>768</ele>
        <time>2020-07-04T22:38:25Z</time>
      </trkpt>
      <trkpt lat="43.7388" lon="6.38143">
        <ele>761</ele>
        <time>2020-07-04T22:38:29Z</time>
      </trkpt>
      <trkpt lat="43.73893" lon="6.38137">
        <ele>759</ele>
        <time>2020-07-04T22:38:31Z</time>
      </trkpt>
      <trkpt lat="43.73915" lon="6.38132">
        <ele>759</ele>
        <time>2020-07-04T22:38:35Z</time>
      </trkpt>
      <trkpt lat="43.73921" lon="6.38133">
        <ele>760</ele>
        <time>2020-07-04T22:38:36Z</time>
      </trkpt>
      <trkpt lat="43.73929" lon="6.38135">
        <ele>763</ele>
        <time>2020-07-04T22:38:38Z</time>
      </trkpt>
      <trkpt lat="43.73963" lon="6.38153">
        <ele>776</ele>
        <time>2020-07-04T22:38:44Z</time>
      </trkpt>
      <trkpt lat="43.74015" lon="6.38192">
        <ele>787</ele>
        <time>2020-07-04T22:38:55Z</time>
      </trkpt>
      <trkpt lat="43.74054" lon="6.38197">
        <ele>789</ele>
        <time>2020-07-04T22:39:02Z</time>
      </trkpt>
      <trkpt lat="43.74067" lon="6.382">
        <ele>790</ele>
        <time>2020-07-04T22:39:04Z</time>
      </trkpt>
      <trkpt lat="43.74104" lon="6.38215">
        <ele>795</ele>
        <time>2020-07-04T22:39:11Z</time>
      </trkpt>
      <trkpt lat="43.74112" lon="6.38216">
        <ele>795</ele>
        <time>2020-07-04T22:39:12Z</time>
      </trkpt>
      <trkpt lat="43.74124" lon="6.38214">
        <ele>796</ele>
        <time>2020-07-04T22:39:14Z</time>
      </trkpt>
      <trkpt lat="43.74152" lon="6.38197">
        <ele>795</ele>
        <time>2020-07-04T22:39:20Z</time>
      </trkpt>
      <trkpt lat="43.74158" lon="6.38195">
        <ele>795</ele>
        <time>2020-07-04T22:39:21Z</time>
      </trkpt>
      <trkpt lat="43.74172" lon="6.38195">
        <ele>796</ele>
        <time>2020-07-04T22:39:23Z</time>
      </trkpt>
      <trkpt lat="43.74214" lon="6.38208">
        <ele>801</ele>
        <time>2020-07-04T22:39:31Z</time>
      </trkpt>
      <trkpt lat="43.74234" lon="6.38218">
        <ele>805</ele>
        <time>2020-07-04T22:39:35Z</time>
      </trkpt>
      <trkpt lat="43.74239" lon="6.38223">
        <ele>806</ele>
        <time>2020-07-04T22:39:36Z</time>
      </trkpt>
      <trkpt lat="43.74245" lon="6.38241">
        <ele>808</ele>
        <time>2020-07-04T22:39:39Z</time>
      </trkpt>
      <trkpt lat="43.74247" lon="6.38251">
        <ele>810</ele>
        <time>2020-07-04T22:39:40Z</time>
      </trkpt>
      <trkpt lat="43.74246" lon="6.38265">
        <ele>811</ele>
        <time>2020-07-04T22:39:42Z</time>
      </trkpt>
      <trkpt lat="43.74243" lon="6.38274">
        <ele>811</ele>
        <time>2020-07-04T22:39:43Z</time>
      </trkpt>
      <trkpt lat="43.74224" lon="6.38313">
        <ele>813</ele>
        <time>2020-07-04T22:39:49Z</time>
      </trkpt>
      <trkpt lat="43.74207" lon="6.38361">
        <ele>814</ele>
        <time>2020-07-04T22:39:56Z</time>
      </trkpt>
      <trkpt lat="43.74202" lon="6.38377">
        <ele>815</ele>
        <time>2020-07-04T22:39:58Z</time>
      </trkpt>
      <trkpt lat="43.7419" lon="6.38441">
        <ele>817</ele>
        <time>2020-07-04T22:40:07Z</time>
      </trkpt>
      <trkpt lat="43.74189" lon="6.38459">
        <ele>818</ele>
        <time>2020-07-04T22:40:09Z</time>
      </trkpt>
      <trkpt lat="43.74186" lon="6.38514">
        <ele>821</ele>
        <time>2020-07-04T22:40:16Z</time>
      </trkpt>
      <trkpt lat="43.74185" lon="6.38556">
        <ele>823</ele>
        <time>2020-07-04T22:40:21Z</time>
      </trkpt>
      <trkpt lat="43.74186" lon="6.38566">
        <ele>824</ele>
        <time>2020-07-04T22:40:23Z</time>
      </trkpt>
      <trkpt lat="43.74191" lon="6.38585">
        <ele>825</ele>
        <time>2020-07-04T22:40:25Z</time>
      </trkpt>
      <trkpt lat="43.74214" lon="6.38647">
        <ele>830</ele>
        <time>2020-07-04T22:40:34Z</time>
      </trkpt>
      <trkpt lat="43.7422" lon="6.38667">
        <ele>831</ele>
        <time>2020-07-04T22:40:37Z</time>
      </trkpt>
      <trkpt lat="43.74221" lon="6.38677">
        <ele>832</ele>
        <time>2020-07-04T22:40:38Z</time>
      </trkpt>
      <trkpt lat="43.7422" lon="6.38689">
        <ele>832</ele>
        <time>2020-07-04T22:40:40Z</time>
      </trkpt>
      <trkpt lat="43.74214" lon="6.38731">
        <ele>833</ele>
        <time>2020-07-04T22:40:45Z</time>
      </trkpt>
      <trkpt lat="43.74203" lon="6.38794">
        <ele>835</ele>
        <time>2020-07-04T22:40:54Z</time>
      </trkpt>
      <trkpt lat="43.74199" lon="6.38846">
        <ele>837</ele>
        <time>2020-07-04T22:41:00Z</time>
      </trkpt>
      <trkpt lat="43.742" lon="6.38872">
        <ele>838</ele>
        <time>2020-07-04T22:41:04Z</time>
      </trkpt>
      <trkpt lat="43.74201" lon="6.38898">
        <ele>839</ele>
        <time>2020-07-04T22:41:07Z</time>
      </trkpt>
      <trkpt lat="43.74202" lon="6.38914">
        <ele>840</ele>
        <time>2020-07-04T22:41:09Z</time>
      </trkpt>
      <trkpt lat="43.74222" lon="6.38992">
        <ele>844</ele>
        <time>2020-07-04T22:41:20Z</time>
      </trkpt>
      <trkpt lat="43.74251" lon="6.39065">
        <ele>848</ele>
        <time>2020-07-04T22:41:31Z</time>
      </trkpt>
      <trkpt lat="43.74268" lon="6.39101">
        <ele>851</ele>
        <time>2020-07-04T22:41:36Z</time>
      </trkpt>
      <trkpt lat="43.74276" lon="6.39114">
        <ele>851</ele>
        <time>2020-07-04T22:41:38Z</time>
      </trkpt>
      <trkpt lat="43.7429" lon="6.39129">
        <ele>853</ele>
        <time>2020-07-04T22:41:41Z</time>
      </trkpt>
      <trkpt lat="43.74358" lon="6.39178">
        <ele>861</ele>
        <time>2020-07-04T22:41:55Z</time>
      </trkpt>
      <trkpt lat="43.74372" lon="6.39182">
        <ele>863</ele>
        <time>2020-07-04T22:41:58Z</time>
      </trkpt>
      <trkpt lat="43.74384" lon="6.3918">
        <ele>864</ele>
        <time>2020-07-04T22:42:00Z</time>
      </trkpt>
      <trkpt lat="43.7439" lon="6.39176">
        <ele>865</ele>
        <time>2020-07-04T22:42:01Z</time>
      </trkpt>
      <trkpt lat="43.74441" lon="6.39113">
        <ele>872</ele>
        <time>2020-07-04T22:42:13Z</time>
      </trkpt>
      <trkpt lat="43.74491" lon="6.39078">
        <ele>875</ele>
        <time>2020-07-04T22:42:23Z</time>
      </trkpt>
      <trkpt lat="43.74509" lon="6.3907">
        <ele>876</ele>
        <time>2020-07-04T22:42:26Z</time>
      </trkpt>
      <trkpt lat="43.74521" lon="6.39071">
        <ele>877</ele>
        <time>2020-07-04T22:42:29Z</time>
      </trkpt>
      <trkpt lat="43.74527" lon="6.39075">
        <ele>877</ele>
        <time>2020-07-04T22:42:30Z</time>
      </trkpt>
      <trkpt lat="43.74534" lon="6.3908">
        <ele>878</ele>
        <time>2020-07-04T22:42:31Z</time>
      </trkpt>
      <trkpt lat="43.74539" lon="6.39084">
        <ele>878</ele>
        <time>2020-07-04T22:42:32Z</time>
      </trkpt>
      <trkpt lat="43.74544" lon="6.3909">
        <ele>879</ele>
        <time>2020-07-04T22:42:33Z</time>
      </trkpt>
      <trkpt lat="43.74555" lon="6.39111">
        <ele>880</ele>
        <time>2020-07-04T22:42:37Z</time>
      </trkpt>
      <trkpt lat="43.74581" lon="6.39191">
        <ele>884</ele>
        <time>2020-07-04T22:42:48Z</time>
      </trkpt>
      <trkpt lat="43.74589" lon="6.39212">
        <ele>885</ele>
        <time>2020-07-04T22:42:51Z</time>
      </trkpt>
      <trkpt lat="43.74594" lon="6.39221">
        <ele>886</ele>
        <time>2020-07-04T22:42:52Z</time>
      </trkpt>
      <trkpt lat="43.74605" lon="6.39235">
        <ele>888</ele>
        <time>2020-07-04T22:42:55Z</time>
      </trkpt>
      <trkpt lat="43.74619" lon="6.39243">
        <ele>890</ele>
        <time>2020-07-04T22:42:58Z</time>
      </trkpt>
      <trkpt lat="43.74644" lon="6.39247">
        <ele>892</ele>
        <time>2020-07-04T22:43:02Z</time>
      </trkpt>
      <trkpt lat="43.74659" lon="6.39252">
        <ele>894</ele>
        <time>2020-07-04T22:43:05Z</time>
      </trkpt>
      <trkpt lat="43.74675" lon="6.39272">
        <ele>896</ele>
        <time>2020-07-04T22:43:09Z</time>
      </trkpt>
      <trkpt lat="43.74705" lon="6.39318">
        <ele>901</ele>
        <time>2020-07-04T22:43:17Z</time>
      </trkpt>
      <trkpt lat="43.74768" lon="6.39446">
        <ele>910</ele>
        <time>2020-07-04T22:43:37Z</time>
      </trkpt>
      <trkpt lat="43.74795" lon="6.3949">
        <ele>913</ele>
        <time>2020-07-04T22:43:44Z</time>
      </trkpt>
      <trkpt lat="43.74826" lon="6.39551">
        <ele>918</ele>
        <time>2020-07-04T22:43:54Z</time>
      </trkpt>
      <trkpt lat="43.74858" lon="6.39599">
        <ele>926</ele>
        <time>2020-07-04T22:44:02Z</time>
      </trkpt>
      <trkpt lat="43.74889" lon="6.39675">
        <ele>931</ele>
        <time>2020-07-04T22:44:13Z</time>
      </trkpt>
      <trkpt lat="43.74899" lon="6.39723">
        <ele>932</ele>
        <time>2020-07-04T22:44:20Z</time>
      </trkpt>
      <trkpt lat="43.74902" lon="6.39733">
        <ele>932</ele>
        <time>2020-07-04T22:44:21Z</time>
      </trkpt>
      <trkpt lat="43.74908" lon="6.39742">
        <ele>932</ele>
        <time>2020-07-04T22:44:23Z</time>
      </trkpt>
      <trkpt lat="43.74917" lon="6.39753">
        <ele>932</ele>
        <time>2020-07-04T22:44:25Z</time>
      </trkpt>
      <trkpt lat="43.74945" lon="6.39773">
        <ele>941</ele>
        <time>2020-07-04T22:44:31Z</time>
      </trkpt>
      <trkpt lat="43.74958" lon="6.39785">
        <ele>943</ele>
        <time>2020-07-04T22:44:33Z</time>
      </trkpt>
      <trkpt lat="43.74995" lon="6.39849">
        <ele>943</ele>
        <time>2020-07-04T22:44:44Z</time>
      </trkpt>
      <trkpt lat="43.75001" lon="6.39858">
        <ele>943</ele>
        <time>2020-07-04T22:44:45Z</time>
      </trkpt>
      <trkpt lat="43.75013" lon="6.39871">
        <ele>947</ele>
        <time>2020-07-04T22:44:48Z</time>
      </trkpt>
      <trkpt lat="43.75096" lon="6.39965">
        <ele>961</ele>
        <time>2020-07-04T22:45:07Z</time>
      </trkpt>
      <trkpt lat="43.75102" lon="6.39974">
        <ele>961</ele>
        <time>2020-07-04T22:45:09Z</time>
      </trkpt>
      <trkpt lat="43.75115" lon="6.40014">
        <ele>961</ele>
        <time>2020-07-04T22:45:14Z</time>
      </trkpt>
      <trkpt lat="43.75126" lon="6.40032">
        <ele>963</ele>
        <time>2020-07-04T22:45:17Z</time>
      </trkpt>
      <trkpt lat="43.75147" lon="6.40054">
        <ele>964</ele>
        <time>2020-07-04T22:45:22Z</time>
      </trkpt>
      <trkpt lat="43.75171" lon="6.40072">
        <ele>963</ele>
        <time>2020-07-04T22:45:27Z</time>
      </trkpt>
      <trkpt lat="43.75181" lon="6.40078">
        <ele>965</ele>
        <time>2020-07-04T22:45:29Z</time>
      </trkpt>
      <trkpt lat="43.75207" lon="6.4009">
        <ele>970</ele>
        <time>2020-07-04T22:45:34Z</time>
      </trkpt>
      <trkpt lat="43.75218" lon="6.40099">
        <ele>973</ele>
        <time>2020-07-04T22:45:36Z</time>
      </trkpt>
      <trkpt lat="43.75258" lon="6.40179">
        <ele>972</ele>
        <time>2020-07-04T22:45:49Z</time>
      </trkpt>
      <trkpt lat="43.75305" lon="6.40262">
        <ele>979</ele>
        <time>2020-07-04T22:46:02Z</time>
      </trkpt>
      <trkpt lat="43.75312" lon="6.40281">
        <ele>980</ele>
        <time>2020-07-04T22:46:05Z</time>
      </trkpt>
      <trkpt lat="43.75313" lon="6.403">
        <ele>980</ele>
        <time>2020-07-04T22:46:07Z</time>
      </trkpt>
      <trkpt lat="43.75305" lon="6.40402">
        <ele>983</ele>
        <time>2020-07-04T22:46:21Z</time>
      </trkpt>
      <trkpt lat="43.75298" lon="6.40429">
        <ele>983</ele>
        <time>2020-07-04T22:46:24Z</time>
      </trkpt>
      <trkpt lat="43.75266" lon="6.4052">
        <ele>980</ele>
        <time>2020-07-04T22:46:37Z</time>
      </trkpt>
      <trkpt lat="43.75256" lon="6.40553">
        <ele>979</ele>
        <time>2020-07-04T22:46:42Z</time>
      </trkpt>
      <trkpt lat="43.75255" lon="6.40565">
        <ele>979</ele>
        <time>2020-07-04T22:46:43Z</time>
      </trkpt>
      <trkpt lat="43.75257" lon="6.40625">
        <ele>980</ele>
        <time>2020-07-04T22:46:51Z</time>
      </trkpt>
      <trkpt lat="43.75259" lon="6.40667">
        <ele>980</ele>
        <time>2020-07-04T22:46:56Z</time>
      </trkpt>
      <trkpt lat="43.75261" lon="6.40726">
        <ele>980</ele>
        <time>2020-07-04T22:47:04Z</time>
      </trkpt>
      <trkpt lat="43.75262" lon="6.4075">
        <ele>981</ele>
        <time>2020-07-04T22:47:07Z</time>
      </trkpt>
      <trkpt lat="43.75264" lon="6.40789">
        <ele>981</ele>
        <time>2020-07-04T22:47:12Z</time>
      </trkpt>
      <trkpt lat="43.75264" lon="6.40803">
        <ele>981</ele>
        <time>2020-07-04T22:47:14Z</time>
      </trkpt>
      <trkpt lat="43.75262" lon="6.40835">
        <ele>981</ele>
        <time>2020-07-04T22:47:18Z</time>
      </trkpt>
      <trkpt lat="43.75232" lon="6.40962">
        <ele>986</ele>
        <time>2020-07-04T22:47:35Z</time>
      </trkpt>
      <trkpt lat="43.75216" lon="6.41039">
        <ele>989</ele>
        <time>2020-07-04T22:47:46Z</time>
      </trkpt>
      <trkpt lat="43.75214" lon="6.4107">
        <ele>991</ele>
        <time>2020-07-04T22:47:50Z</time>
      </trkpt>
      <trkpt lat="43.75215" lon="6.41155">
        <ele>995</ele>
        <time>2020-07-04T22:48:01Z</time>
      </trkpt>
      <trkpt lat="43.75216" lon="6.41193">
        <ele>997</ele>
        <time>2020-07-04T22:48:05Z</time>
      </trkpt>
      <trkpt lat="43.75216" lon="6.41249">
        <ele>999</ele>
        <time>2020-07-04T22:48:13Z</time>
      </trkpt>
      <trkpt lat="43.75218" lon="6.41313">
        <ele>1000</ele>
        <time>2020-07-04T22:48:21Z</time>
      </trkpt>
      <trkpt lat="43.75216" lon="6.41336">
        <ele>1000</ele>
        <time>2020-07-04T22:48:24Z</time>
      </trkpt>
      <trkpt lat="43.75211" lon="6.41355">
        <ele>1003</ele>
        <time>2020-07-04T22:48:26Z</time>
      </trkpt>
      <trkpt lat="43.75202" lon="6.41369">
        <ele>1004</ele>
        <time>2020-07-04T22:48:29Z</time>
      </trkpt>
      <trkpt lat="43.75166" lon="6.41398">
        <ele>1005</ele>
        <time>2020-07-04T22:48:36Z</time>
      </trkpt>
      <trkpt lat="43.7515" lon="6.41415">
        <ele>1006</ele>
        <time>2020-07-04T22:48:40Z</time>
      </trkpt>
      <trkpt lat="43.75139" lon="6.41434">
        <ele>1005</ele>
        <time>2020-07-04T22:48:43Z</time>
      </trkpt>
      <trkpt lat="43.75129" lon="6.41458">
        <ele>1005</ele>
        <time>2020-07-04T22:48:47Z</time>
      </trkpt>
      <trkpt lat="43.75121" lon="6.41497">
        <ele>1005</ele>
        <time>2020-07-04T22:48:52Z</time>
      </trkpt>
      <trkpt lat="43.75122" lon="6.41517">
        <ele>1005</ele>
        <time>2020-07-04T22:48:54Z</time>
      </trkpt>
      <trkpt lat="43.75129" lon="6.4154">
        <ele>1007</ele>
        <time>2020-07-04T22:48:58Z</time>
      </trkpt>
      <trkpt lat="43.75161" lon="6.41602">
        <ele>1010</ele>
        <time>2020-07-04T22:49:07Z</time>
      </trkpt>
      <trkpt lat="43.7518" lon="6.41648">
        <ele>1009</ele>
        <time>2020-07-04T22:49:14Z</time>
      </trkpt>
      <trkpt lat="43.75183" lon="6.4166">
        <ele>1008</ele>
        <time>2020-07-04T22:49:16Z</time>
      </trkpt>
      <trkpt lat="43.75185" lon="6.41686">
        <ele>1008</ele>
        <time>2020-07-04T22:49:19Z</time>
      </trkpt>
      <trkpt lat="43.75187" lon="6.41728">
        <ele>1006</ele>
        <time>2020-07-04T22:49:25Z</time>
      </trkpt>
      <trkpt lat="43.75187" lon="6.41735">
        <ele>1006</ele>
        <time>2020-07-04T22:49:25Z</time>
      </trkpt>
      <trkpt lat="43.75187" lon="6.41747">
        <ele>1006</ele>
        <time>2020-07-04T22:49:27Z</time>
      </trkpt>
      <trkpt lat="43.75185" lon="6.41759">
        <ele>1005</ele>
        <time>2020-07-04T22:49:29Z</time>
      </trkpt>
      <trkpt lat="43.75176" lon="6.4179">
        <ele>1004</ele>
        <time>2020-07-04T22:49:33Z</time>
      </trkpt>
      <trkpt lat="43.75159" lon="6.41831">
        <ele>1003</ele>
        <time>2020-07-04T22:49:39Z</time>
      </trkpt>
      <trkpt lat="43.75152" lon="6.41842">
        <ele>1003</ele>
        <time>2020-07-04T22:49:41Z</time>
      </trkpt>
      <trkpt lat="43.75132" lon="6.41871">
        <ele>1001</ele>
        <time>2020-07-04T22:49:46Z</time>
      </trkpt>
      <trkpt lat="43.75117" lon="6.41886">
        <ele>1001</ele>
        <time>2020-07-04T22:49:49Z</time>
      </trkpt>
      <trkpt lat="43.75107" lon="6.41896">
        <ele>1001</ele>
        <time>2020-07-04T22:49:51Z</time>
      </trkpt>
      <trkpt lat="43.75097" lon="6.41904">
        <ele>1002</ele>
        <time>2020-07-04T22:49:53Z</time>
      </trkpt>
      <trkpt lat="43.75077" lon="6.41917">
        <ele>1002</ele>
        <time>2020-07-04T22:49:57Z</time>
      </trkpt>
      <trkpt lat="43.75054" lon="6.41925">
        <ele>1001</ele>
        <time>2020-07-04T22:50:02Z</time>
      </trkpt>
      <trkpt lat="43.7504" lon="6.41927">
        <ele>1001</ele>
        <time>2020-07-04T22:50:04Z</time>
      </trkpt>
      <trkpt lat="43.74965" lon="6.41931">
        <ele>999</ele>
        <time>2020-07-04T22:50:17Z</time>
      </trkpt>
      <trkpt lat="43.74934" lon="6.41926">
        <ele>999</ele>
        <time>2020-07-04T22:50:23Z</time>
      </trkpt>
      <trkpt lat="43.74921" lon="6.41921">
        <ele>999</ele>
        <time>2020-07-04T22:50:25Z</time>
      </trkpt>
      <trkpt lat="43.74895" lon="6.41908">
        <ele>999</ele>
        <time>2020-07-04T22:50:30Z</time>
      </trkpt>
      <trkpt lat="43.74872" lon="6.41893">
        <ele>1000</ele>
        <time>2020-07-04T22:50:35Z</time>
      </trkpt>
      <trkpt lat="43.74849" lon="6.41883">
        <ele>1001</ele>
        <time>2020-07-04T22:50:39Z</time>
      </trkpt>
      <trkpt lat="43.74839" lon="6.41881">
        <ele>1001</ele>
        <time>2020-07-04T22:50:41Z</time>
      </trkpt>
      <trkpt lat="43.74821" lon="6.41882">
        <ele>1001</ele>
        <time>2020-07-04T22:50:44Z</time>
      </trkpt>
      <trkpt lat="43.7477" lon="6.41897">
        <ele>1001</ele>
        <time>2020-07-04T22:50:53Z</time>
      </trkpt>
      <trkpt lat="43.74739" lon="6.4191">
        <ele>1001</ele>
        <time>2020-07-04T22:50:59Z</time>
      </trkpt>
      <trkpt lat="43.74687" lon="6.41966">
        <ele>999</ele>
        <time>2020-07-04T22:51:11Z</time>
      </trkpt>
      <trkpt lat="43.74643" lon="6.42004">
        <ele>997</ele>
        <time>2020-07-04T22:51:20Z</time>
      </trkpt>
      <trkpt lat="43.74622" lon="6.42022">
        <ele>997</ele>
        <time>2020-07-04T22:51:25Z</time>
      </trkpt>
      <trkpt lat="43.74611" lon="6.42032">
        <ele>997</ele>
        <time>2020-07-04T22:51:27Z</time>
      </trkpt>
      <trkpt lat="43.74515" lon="6.42119">
        <ele>996</ele>
        <time>2020-07-04T22:51:47Z</time>
      </trkpt>
      <trkpt lat="43.74503" lon="6.4214">
        <ele>995</ele>
        <time>2020-07-04T22:51:51Z</time>
      </trkpt>
      <trkpt lat="43.74478" lon="6.42191">
        <ele>994</ele>
        <time>2020-07-04T22:51:59Z</time>
      </trkpt>
      <trkpt lat="43.74461" lon="6.42217">
        <ele>993</ele>
        <time>2020-07-04T22:52:03Z</time>
      </trkpt>
      <trkpt lat="43.74442" lon="6.42238">
        <ele>993</ele>
        <time>2020-07-04T22:52:08Z</time>
      </trkpt>
      <trkpt lat="43.74417" lon="6.42254">
        <ele>994</ele>
        <time>2020-07-04T22:52:12Z</time>
      </trkpt>
      <trkpt lat="43.74389" lon="6.42264">
        <ele>993</ele>
        <time>2020-07-04T22:52:18Z</time>
      </trkpt>
      <trkpt lat="43.74361" lon="6.4227">
        <ele>992</ele>
        <time>2020-07-04T22:52:23Z</time>
      </trkpt>
      <trkpt lat="43.74326" lon="6.42272">
        <ele>992</ele>
        <time>2020-07-04T22:52:29Z</time>
      </trkpt>
      <trkpt lat="43.74302" lon="6.42275">
        <ele>992</ele>
        <time>2020-07-04T22:52:33Z</time>
      </trkpt>
      <trkpt lat="43.74295" lon="6.42278">
        <ele>992</ele>
        <time>2020-07-04T22:52:34Z</time>
      </trkpt>
      <trkpt lat="43.74278" lon="6.42291">
        <ele>992</ele>
        <time>2020-07-04T22:52:38Z</time>
      </trkpt>
      <trkpt lat="43.74264" lon="6.42306">
        <ele>991</ele>
        <time>2020-07-04T22:52:41Z</time>
      </trkpt>
      <trkpt lat="43.74246" lon="6.42331">
        <ele>990</ele>
        <time>2020-07-04T22:52:46Z</time>
      </trkpt>
      <trkpt lat="43.74195" lon="6.42425">
        <ele>991</ele>
        <time>2020-07-04T22:53:01Z</time>
      </trkpt>
      <trkpt lat="43.74174" lon="6.42466">
        <ele>989</ele>
        <time>2020-07-04T22:53:07Z</time>
      </trkpt>
      <trkpt lat="43.74149" lon="6.42506">
        <ele>988</ele>
        <time>2020-07-04T22:53:14Z</time>
      </trkpt>
      <trkpt lat="43.74088" lon="6.42584">
        <ele>988</ele>
        <time>2020-07-04T22:53:29Z</time>
      </trkpt>
      <trkpt lat="43.74049" lon="6.42625">
        <ele>987</ele>
        <time>2020-07-04T22:53:37Z</time>
      </trkpt>
      <trkpt lat="43.74031" lon="6.42647">
        <ele>986</ele>
        <time>2020-07-04T22:53:42Z</time>
      </trkpt>
      <trkpt lat="43.74025" lon="6.42658">
        <ele>986</ele>
        <time>2020-07-04T22:53:43Z</time>
      </trkpt>
      <trkpt lat="43.74004" lon="6.4272">
        <ele>984</ele>
        <time>2020-07-04T22:53:52Z</time>
      </trkpt>
      <trkpt lat="43.73991" lon="6.42748">
        <ele>983</ele>
        <time>2020-07-04T22:53:57Z</time>
      </trkpt>
      <trkpt lat="43.73934" lon="6.4283">
        <ele>982</ele>
        <time>2020-07-04T22:54:11Z</time>
      </trkpt>
      <trkpt lat="43.73917" lon="6.42863">
        <ele>982</ele>
        <time>2020-07-04T22:54:16Z</time>
      </trkpt>
      <trkpt lat="43.73914" lon="6.42872">
        <ele>982</ele>
        <time>2020-07-04T22:54:18Z</time>
      </trkpt>
      <trkpt lat="43.73912" lon="6.42881">
        <ele>982</ele>
        <time>2020-07-04T22:54:19Z</time>
      </trkpt>
      <trkpt lat="43.73891" lon="6.42999">
        <ele>980</ele>
        <time>2020-07-04T22:54:35Z</time>
      </trkpt>
      <trkpt lat="43.73883" lon="6.43018">
        <ele>980</ele>
        <time>2020-07-04T22:54:37Z</time>
      </trkpt>
      <trkpt lat="43.73868" lon="6.43045">
        <ele>979</ele>
        <time>2020-07-04T22:54:42Z</time>
      </trkpt>
      <trkpt lat="43.73842" lon="6.43079">
        <ele>978</ele>
        <time>2020-07-04T22:54:48Z</time>
      </trkpt>
      <trkpt lat="43.7383" lon="6.4309">
        <ele>978</ele>
        <time>2020-07-04T22:54:51Z</time>
      </trkpt>
      <trkpt lat="43.73808" lon="6.43108">
        <ele>977</ele>
        <time>2020-07-04T22:54:55Z</time>
      </trkpt>
      <trkpt lat="43.73741" lon="6.43155">
        <ele>976</ele>
        <time>2020-07-04T22:55:09Z</time>
      </trkpt>
      <trkpt lat="43.73727" lon="6.43167">
        <ele>975</ele>
        <time>2020-07-04T22:55:11Z</time>
      </trkpt>
      <trkpt lat="43.73696" lon="6.432">
        <ele>975</ele>
        <time>2020-07-04T22:55:18Z</time>
      </trkpt>
      <trkpt lat="43.73674" lon="6.43231">
        <ele>975</ele>
        <time>2020-07-04T22:55:24Z</time>
      </trkpt>
      <trkpt lat="43.73664" lon="6.4325">
        <ele>976</ele>
        <time>2020-07-04T22:55:27Z</time>
      </trkpt>
      <trkpt lat="43.73655" lon="6.43274">
        <ele>977</ele>
        <time>2020-07-04T22:55:31Z</time>
      </trkpt>
      <trkpt lat="43.73648" lon="6.43301">
        <ele>977</ele>
        <time>2020-07-04T22:55:34Z</time>
      </trkpt>
      <trkpt lat="43.73642" lon="6.43328">
        <ele>978</ele>
        <time>2020-07-04T22:55:38Z</time>
      </trkpt>
      <trkpt lat="43.7364" lon="6.43336">
        <ele>978</ele>
        <time>2020-07-04T22:55:39Z</time>
      </trkpt>
      <trkpt lat="43.73637" lon="6.43352">
        <ele>978</ele>
        <time>2020-07-04T22:55:41Z</time>
      </trkpt>
      <trkpt lat="43.73633" lon="6.43369">
        <ele>978</ele>
        <time>2020-07-04T22:55:43Z</time>
      </trkpt>
      <trkpt lat="43.73624" lon="6.4341">
        <ele>978</ele>
        <time>2020-07-04T22:55:49Z</time>
      </trkpt>
      <trkpt lat="43.7362" lon="6.43437">
        <ele>979</ele>
        <time>2020-07-04T22:55:52Z</time>
      </trkpt>
      <trkpt lat="43.73623" lon="6.43464">
        <ele>979</ele>
        <time>2020-07-04T22:55:56Z</time>
      </trkpt>
      <trkpt lat="43.73628" lon="6.43491">
        <ele>980</ele>
        <time>2020-07-04T22:56:00Z</time>
      </trkpt>
      <trkpt lat="43.73638" lon="6.43516">
        <ele>980</ele>
        <time>2020-07-04T22:56:03Z</time>
      </trkpt>
      <trkpt lat="43.73662" lon="6.43564">
        <ele>978</ele>
        <time>2020-07-04T22:56:11Z</time>
      </trkpt>
      <trkpt lat="43.73669" lon="6.43584">
        <ele>978</ele>
        <time>2020-07-04T22:56:14Z</time>
      </trkpt>
      <trkpt lat="43.73689" lon="6.43644">
        <ele>977</ele>
        <time>2020-07-04T22:56:22Z</time>
      </trkpt>
      <trkpt lat="43.73691" lon="6.43656">
        <ele>978</ele>
        <time>2020-07-04T22:56:24Z</time>
      </trkpt>
      <trkpt lat="43.73691" lon="6.43668">
        <ele>978</ele>
        <time>2020-07-04T22:56:25Z</time>
      </trkpt>
      <trkpt lat="43.73689" lon="6.43681">
        <ele>978</ele>
        <time>2020-07-04T22:56:27Z</time>
      </trkpt>
      <trkpt lat="43.73683" lon="6.43705">
        <ele>978</ele>
        <time>2020-07-04T22:56:30Z</time>
      </trkpt>
      <trkpt lat="43.73679" lon="6.43717">
        <ele>978</ele>
        <time>2020-07-04T22:56:32Z</time>
      </trkpt>
      <trkpt lat="43.7366" lon="6.43755">
        <ele>979</ele>
        <time>2020-07-04T22:56:38Z</time>
      </trkpt>
      <trkpt lat="43.73632" lon="6.43804">
        <ele>978</ele>
        <time>2020-07-04T22:56:46Z</time>
      </trkpt>
      <trkpt lat="43.73581" lon="6.43886">
        <ele>980</ele>
        <time>2020-07-04T22:57:00Z</time>
      </trkpt>
      <trkpt lat="43.73563" lon="6.43929">
        <ele>980</ele>
        <time>2020-07-04T22:57:06Z</time>
      </trkpt>
      <trkpt lat="43.73549" lon="6.43972">
        <ele>982</ele>
        <time>2020-07-04T22:57:12Z</time>
      </trkpt>
      <trkpt lat="43.73547" lon="6.43986">
        <ele>982</ele>
        <time>2020-07-04T22:57:14Z</time>
      </trkpt>
      <trkpt lat="43.73546" lon="6.44029">
        <ele>980</ele>
        <time>2020-07-04T22:57:20Z</time>
      </trkpt>
      <trkpt lat="43.73542" lon="6.44067">
        <ele>979</ele>
        <time>2020-07-04T22:57:24Z</time>
      </trkpt>
      <trkpt lat="43.73539" lon="6.44081">
        <ele>979</ele>
        <time>2020-07-04T22:57:26Z</time>
      </trkpt>
      <trkpt lat="43.73524" lon="6.44122">
        <ele>978</ele>
        <time>2020-07-04T22:57:32Z</time>
      </trkpt>
      <trkpt lat="43.73502" lon="6.44174">
        <ele>978</ele>
        <time>2020-07-04T22:57:40Z</time>
      </trkpt>
      <trkpt lat="43.73475" lon="6.44255">
        <ele>979</ele>
        <time>2020-07-04T22:57:51Z</time>
      </trkpt>
      <trkpt lat="43.73464" lon="6.44281">
        <ele>979</ele>
        <time>2020-07-04T22:57:55Z</time>
      </trkpt>
      <trkpt lat="43.73445" lon="6.44319">
        <ele>981</ele>
        <time>2020-07-04T22:58:01Z</time>
      </trkpt>
      <trkpt lat="43.73428" lon="6.44359">
        <ele>982</ele>
        <time>2020-07-04T22:58:07Z</time>
      </trkpt>
      <trkpt lat="43.73415" lon="6.44393">
        <ele>982</ele>
        <time>2020-07-04T22:58:12Z</time>
      </trkpt>
      <trkpt lat="43.73406" lon="6.44428">
        <ele>981</ele>
        <time>2020-07-04T22:58:17Z</time>
      </trkpt>
      <trkpt lat="43.73395" lon="6.44482">
        <ele>982</ele>
        <time>2020-07-04T22:58:24Z</time>
      </trkpt>
      <trkpt lat="43.7339" lon="6.44554">
        <ele>979</ele>
        <time>2020-07-04T22:58:33Z</time>
      </trkpt>
      <trkpt lat="43.73385" lon="6.4458">
        <ele>978</ele>
        <time>2020-07-04T22:58:37Z</time>
      </trkpt>
      <trkpt lat="43.73369" lon="6.44623">
        <ele>978</ele>
        <time>2020-07-04T22:58:43Z</time>
      </trkpt>
      <trkpt lat="43.73354" lon="6.44651">
        <ele>979</ele>
        <time>2020-07-04T22:58:48Z</time>
      </trkpt>
      <trkpt lat="43.73333" lon="6.44696">
        <ele>979</ele>
        <time>2020-07-04T22:58:55Z</time>
      </trkpt>
      <trkpt lat="43.73302" lon="6.44778">
        <ele>979</ele>
        <time>2020-07-04T22:59:06Z</time>
      </trkpt>
      <trkpt lat="43.73241" lon="6.44927">
        <ele>981</ele>
        <time>2020-07-04T22:59:28Z</time>
      </trkpt>
      <trkpt lat="43.73227" lon="6.44956">
        <ele>981</ele>
        <time>2020-07-04T22:59:33Z</time>
      </trkpt>
      <trkpt lat="43.73218" lon="6.44971">
        <ele>981</ele>
        <time>2020-07-04T22:59:35Z</time>
      </trkpt>
      <trkpt lat="43.73169" lon="6.4504">
        <ele>983</ele>
        <time>2020-07-04T22:59:48Z</time>
      </trkpt>
      <trkpt lat="43.73151" lon="6.45074">
        <ele>983</ele>
        <time>2020-07-04T22:59:53Z</time>
      </trkpt>
      <trkpt lat="43.73126" lon="6.45131">
        <ele>984</ele>
        <time>2020-07-04T23:00:02Z</time>
      </trkpt>
      <trkpt lat="43.73093" lon="6.45222">
        <ele>986</ele>
        <time>2020-07-04T23:00:15Z</time>
      </trkpt>
      <trkpt lat="43.73083" lon="6.4526">
        <ele>986</ele>
        <time>2020-07-04T23:00:20Z</time>
      </trkpt>
      <trkpt lat="43.73073" lon="6.45317">
        <ele>987</ele>
        <time>2020-07-04T23:00:28Z</time>
      </trkpt>
      <trkpt lat="43.73072" lon="6.45394">
        <ele>985</ele>
        <time>2020-07-04T23:00:38Z</time>
      </trkpt>
      <trkpt lat="43.73068" lon="6.4543">
        <ele>985</ele>
        <time>2020-07-04T23:00:42Z</time>
      </trkpt>
      <trkpt lat="43.73061" lon="6.45466">
        <ele>986</ele>
        <time>2020-07-04T23:00:47Z</time>
      </trkpt>
      <trkpt lat="43.73057" lon="6.45502">
        <ele>986</ele>
        <time>2020-07-04T23:00:52Z</time>
      </trkpt>
      <trkpt lat="43.73056" lon="6.45559">
        <ele>985</ele>
        <time>2020-07-04T23:00:59Z</time>
      </trkpt>
      <trkpt lat="43.73053" lon="6.45597">
        <ele>984</ele>
        <time>2020-07-04T23:01:04Z</time>
      </trkpt>
      <trkpt lat="43.73043" lon="6.45633">
        <ele>983</ele>
        <time>2020-07-04T23:01:09Z</time>
      </trkpt>
      <trkpt lat="43.72986" lon="6.45761">
        <ele>986</ele>
        <time>2020-07-04T23:01:28Z</time>
      </trkpt>
      <trkpt lat="43.72941" lon="6.4587">
        <ele>985</ele>
        <time>2020-07-04T23:01:44Z</time>
      </trkpt>
      <trkpt lat="43.72935" lon="6.45887">
        <ele>985</ele>
        <time>2020-07-04T23:01:47Z</time>
      </trkpt>
      <trkpt lat="43.72918" lon="6.45943">
        <ele>985</ele>
        <time>2020-07-04T23:01:55Z</time>
      </trkpt>
      <trkpt lat="43.72892" lon="6.46016">
        <ele>986</ele>
        <time>2020-07-04T23:02:05Z</time>
      </trkpt>
      <trkpt lat="43.72876" lon="6.46051">
        <ele>986</ele>
        <time>2020-07-04T23:02:10Z</time>
      </trkpt>
      <trkpt lat="43.72854" lon="6.46107">
        <ele>988</ele>
        <time>2020-07-04T23:02:19Z</time>
      </trkpt>
      <trkpt lat="43.72839" lon="6.46172">
        <ele>991</ele>
        <time>2020-07-04T23:02:27Z</time>
      </trkpt>
      <trkpt lat="43.72824" lon="6.46258">
        <ele>989</ele>
        <time>2020-07-04T23:02:39Z</time>
      </trkpt>
      <trkpt lat="43.72815" lon="6.463">
        <ele>988</ele>
        <time>2020-07-04T23:02:44Z</time>
      </trkpt>
      <trkpt lat="43.72779" lon="6.46422">
        <ele>989</ele>
        <time>2020-07-04T23:03:01Z</time>
      </trkpt>
      <trkpt lat="43.72766" lon="6.46457">
        <ele>990</ele>
        <time>2020-07-04T23:03:06Z</time>
      </trkpt>
      <trkpt lat="43.72751" lon="6.4649">
        <ele>991</ele>
        <time>2020-07-04T23:03:11Z</time>
      </trkpt>
      <trkpt lat="43.72733" lon="6.46507">
        <ele>991</ele>
        <time>2020-07-04T23:03:15Z</time>
      </trkpt>
      <trkpt lat="43.72714" lon="6.46509">
        <ele>991</ele>
        <time>2020-07-04T23:03:19Z</time>
      </trkpt>
      <trkpt lat="43.72682" lon="6.46507">
        <ele>992</ele>
        <time>2020-07-04T23:03:24Z</time>
      </trkpt>
      <trkpt lat="43.72661" lon="6.46516">
        <ele>993</ele>
        <time>2020-07-04T23:03:28Z</time>
      </trkpt>
      <trkpt lat="43.72636" lon="6.46544">
        <ele>993</ele>
        <time>2020-07-04T23:03:34Z</time>
      </trkpt>
      <trkpt lat="43.72613" lon="6.46583">
        <ele>993</ele>
        <time>2020-07-04T23:03:41Z</time>
      </trkpt>
      <trkpt lat="43.72584" lon="6.46639">
        <ele>993</ele>
        <time>2020-07-04T23:03:49Z</time>
      </trkpt>
      <trkpt lat="43.72567" lon="6.46666">
        <ele>993</ele>
        <time>2020-07-04T23:03:54Z</time>
      </trkpt>
      <trkpt lat="43.72548" lon="6.46693">
        <ele>992</ele>
        <time>2020-07-04T23:03:59Z</time>
      </trkpt>
      <trkpt lat="43.72539" lon="6.46704">
        <ele>992</ele>
        <time>2020-07-04T23:04:01Z</time>
      </trkpt>
      <trkpt lat="43.7253" lon="6.46711">
        <ele>992</ele>
        <time>2020-07-04T23:04:03Z</time>
      </trkpt>
      <trkpt lat="43.72519" lon="6.46714">
        <ele>992</ele>
        <time>2020-07-04T23:04:05Z</time>
      </trkpt>
      <trkpt lat="43.72469" lon="6.46706">
        <ele>993</ele>
        <time>2020-07-04T23:04:14Z</time>
      </trkpt>
      <trkpt lat="43.72437" lon="6.46693">
        <ele>994</ele>
        <time>2020-07-04T23:04:20Z</time>
      </trkpt>
      <trkpt lat="43.72416" lon="6.46688">
        <ele>994</ele>
        <time>2020-07-04T23:04:23Z</time>
      </trkpt>
      <trkpt lat="43.72395" lon="6.46693">
        <ele>994</ele>
        <time>2020-07-04T23:04:27Z</time>
      </trkpt>
      <trkpt lat="43.72385" lon="6.467">
        <ele>993</ele>
        <time>2020-07-04T23:04:29Z</time>
      </trkpt>
      <trkpt lat="43.72368" lon="6.46718">
        <ele>993</ele>
        <time>2020-07-04T23:04:33Z</time>
      </trkpt>
      <trkpt lat="43.72349" lon="6.46753">
        <ele>993</ele>
        <time>2020-07-04T23:04:39Z</time>
      </trkpt>
      <trkpt lat="43.72342" lon="6.46784">
        <ele>993</ele>
        <time>2020-07-04T23:04:43Z</time>
      </trkpt>
      <trkpt lat="43.72329" lon="6.46833">
        <ele>994</ele>
        <time>2020-07-04T23:04:50Z</time>
      </trkpt>
      <trkpt lat="43.72311" lon="6.46882">
        <ele>994</ele>
        <time>2020-07-04T23:04:57Z</time>
      </trkpt>
      <trkpt lat="43.72295" lon="6.46937">
        <ele>993</ele>
        <time>2020-07-04T23:05:04Z</time>
      </trkpt>
      <trkpt lat="43.72283" lon="6.46998">
        <ele>991</ele>
        <time>2020-07-04T23:05:12Z</time>
      </trkpt>
      <trkpt lat="43.72272" lon="6.47083">
        <ele>987</ele>
        <time>2020-07-04T23:05:24Z</time>
      </trkpt>
      <trkpt lat="43.72264" lon="6.4717">
        <ele>985</ele>
        <time>2020-07-04T23:05:35Z</time>
      </trkpt>
      <trkpt lat="43.72254" lon="6.47236">
        <ele>985</ele>
        <time>2020-07-04T23:05:43Z</time>
      </trkpt>
      <trkpt lat="43.72234" lon="6.47323">
        <ele>984</ele>
        <time>2020-07-04T23:05:55Z</time>
      </trkpt>
      <trkpt lat="43.72212" lon="6.47434">
        <ele>984</ele>
        <time>2020-07-04T23:06:10Z</time>
      </trkpt>
      <trkpt lat="43.72181" lon="6.47563">
        <ele>981</ele>
        <time>2020-07-04T23:06:27Z</time>
      </trkpt>
      <trkpt lat="43.7216" lon="6.47625">
        <ele>980</ele>
        <time>2020-07-04T23:06:36Z</time>
      </trkpt>
      <trkpt lat="43.72105" lon="6.47769">
        <ele>975</ele>
        <time>2020-07-04T23:06:57Z</time>
      </trkpt>
      <trkpt lat="43.72087" lon="6.47805">
        <ele>973</ele>
        <time>2020-07-04T23:07:03Z</time>
      </trkpt>
      <trkpt lat="43.72037" lon="6.47892">
        <ele>970</ele>
        <time>2020-07-04T23:07:17Z</time>
      </trkpt>
      <trkpt lat="43.72012" lon="6.47927">
        <ele>969</ele>
        <time>2020-07-04T23:07:23Z</time>
      </trkpt>
      <trkpt lat="43.72004" lon="6.4794">
        <ele>968</ele>
        <time>2020-07-04T23:07:26Z</time>
      </trkpt>
      <trkpt lat="43.72002" lon="6.47941">
        <ele>968</ele>
        <time>2020-07-04T23:07:26Z</time>
      </trkpt>
      <trkpt lat="43.71997" lon="6.47947">
        <ele>967</ele>
        <time>2020-07-04T23:07:27Z</time>
      </trkpt>
      <trkpt lat="43.71985" lon="6.47957">
        <ele>967</ele>
        <time>2020-07-04T23:07:30Z</time>
      </trkpt>
      <trkpt lat="43.71934" lon="6.4798">
        <ele>967</ele>
        <time>2020-07-04T23:07:39Z</time>
      </trkpt>
      <trkpt lat="43.71909" lon="6.47997">
        <ele>969</ele>
        <time>2020-07-04T23:07:44Z</time>
      </trkpt>
      <trkpt lat="43.71888" lon="6.48018">
        <ele>970</ele>
        <time>2020-07-04T23:07:49Z</time>
      </trkpt>
      <trkpt lat="43.71853" lon="6.48063">
        <ele>969</ele>
        <time>2020-07-04T23:07:57Z</time>
      </trkpt>
      <trkpt lat="43.718" lon="6.48106">
        <ele>970</ele>
        <time>2020-07-04T23:08:08Z</time>
      </trkpt>
      <trkpt lat="43.71755" lon="6.48147">
        <ele>964</ele>
        <time>2020-07-04T23:08:18Z</time>
      </trkpt>
      <trkpt lat="43.71718" lon="6.48176">
        <ele>960</ele>
        <time>2020-07-04T23:08:25Z</time>
      </trkpt>
      <trkpt lat="43.71678" lon="6.48198">
        <ele>959</ele>
        <time>2020-07-04T23:08:33Z</time>
      </trkpt>
      <trkpt lat="43.71635" lon="6.48211">
        <ele>958</ele>
        <time>2020-07-04T23:08:41Z</time>
      </trkpt>
      <trkpt lat="43.71591" lon="6.48221">
        <ele>957</ele>
        <time>2020-07-04T23:08:49Z</time>
      </trkpt>
      <trkpt lat="43.71577" lon="6.48226">
        <ele>957</ele>
        <time>2020-07-04T23:08:51Z</time>
      </trkpt>
      <trkpt lat="43.71561" lon="6.48235">
        <ele>955</ele>
        <time>2020-07-04T23:08:55Z</time>
      </trkpt>
      <trkpt lat="43.71537" lon="6.48259">
        <ele>952</ele>
        <time>2020-07-04T23:09:00Z</time>
      </trkpt>
      <trkpt lat="43.71515" lon="6.48288">
        <ele>949</ele>
        <time>2020-07-04T23:09:05Z</time>
      </trkpt>
      <trkpt lat="43.71477" lon="6.48344">
        <ele>945</ele>
        <time>2020-07-04T23:09:15Z</time>
      </trkpt>
      <trkpt lat="43.71463" lon="6.4837">
        <ele>943</ele>
        <time>2020-07-04T23:09:19Z</time>
      </trkpt>
      <trkpt lat="43.71452" lon="6.48395">
        <ele>942</ele>
        <time>2020-07-04T23:09:23Z</time>
      </trkpt>
      <trkpt lat="43.7145" lon="6.48421">
        <ele>940</ele>
        <time>2020-07-04T23:09:26Z</time>
      </trkpt>
      <trkpt lat="43.71454" lon="6.48446">
        <ele>940</ele>
        <time>2020-07-04T23:09:30Z</time>
      </trkpt>
      <trkpt lat="43.7148" lon="6.48541">
        <ele>937</ele>
        <time>2020-07-04T23:09:43Z</time>
      </trkpt>
      <trkpt lat="43.71485" lon="6.48565">
        <ele>935</ele>
        <time>2020-07-04T23:09:46Z</time>
      </trkpt>
      <trkpt lat="43.71485" lon="6.48581">
        <ele>935</ele>
        <time>2020-07-04T23:09:48Z</time>
      </trkpt>
      <trkpt lat="43.71476" lon="6.48627">
        <ele>933</ele>
        <time>2020-07-04T23:09:54Z</time>
      </trkpt>
      <trkpt lat="43.7147" lon="6.48644">
        <ele>933</ele>
        <time>2020-07-04T23:09:57Z</time>
      </trkpt>
      <trkpt lat="43.71412" lon="6.48732">
        <ele>930</ele>
        <time>2020-07-04T23:10:12Z</time>
      </trkpt>
      <trkpt lat="43.71374" lon="6.48781">
        <ele>931</ele>
        <time>2020-07-04T23:10:21Z</time>
      </trkpt>
      <trkpt lat="43.71365" lon="6.48795">
        <ele>931</ele>
        <time>2020-07-04T23:10:24Z</time>
      </trkpt>
      <trkpt lat="43.71335" lon="6.48857">
        <ele>929</ele>
        <time>2020-07-04T23:10:33Z</time>
      </trkpt>
      <trkpt lat="43.71323" lon="6.48889">
        <ele>929</ele>
        <time>2020-07-04T23:10:38Z</time>
      </trkpt>
      <trkpt lat="43.71314" lon="6.48923">
        <ele>929</ele>
        <time>2020-07-04T23:10:42Z</time>
      </trkpt>
      <trkpt lat="43.71311" lon="6.4894">
        <ele>929</ele>
        <time>2020-07-04T23:10:45Z</time>
      </trkpt>
      <trkpt lat="43.71309" lon="6.48961">
        <ele>929</ele>
        <time>2020-07-04T23:10:47Z</time>
      </trkpt>
      <trkpt lat="43.71315" lon="6.48991">
        <ele>927</ele>
        <time>2020-07-04T23:10:51Z</time>
      </trkpt>
      <trkpt lat="43.7133" lon="6.49037">
        <ele>922</ele>
        <time>2020-07-04T23:10:58Z</time>
      </trkpt>
      <trkpt lat="43.71333" lon="6.49055">
        <ele>921</ele>
        <time>2020-07-04T23:11:00Z</time>
      </trkpt>
      <trkpt lat="43.71329" lon="6.49069">
        <ele>922</ele>
        <time>2020-07-04T23:11:02Z</time>
      </trkpt>
      <trkpt lat="43.71324" lon="6.49079">
        <ele>924</ele>
        <time>2020-07-04T23:11:04Z</time>
      </trkpt>
      <trkpt lat="43.71303" lon="6.49137">
        <ele>927</ele>
        <time>2020-07-04T23:11:12Z</time>
      </trkpt>
      <trkpt lat="43.71301" lon="6.49158">
        <ele>926</ele>
        <time>2020-07-04T23:11:15Z</time>
      </trkpt>
      <trkpt lat="43.71303" lon="6.49196">
        <ele>925</ele>
        <time>2020-07-04T23:11:20Z</time>
      </trkpt>
      <trkpt lat="43.71302" lon="6.49219">
        <ele>925</ele>
        <time>2020-07-04T23:11:23Z</time>
      </trkpt>
      <trkpt lat="43.71296" lon="6.49275">
        <ele>924</ele>
        <time>2020-07-04T23:11:30Z</time>
      </trkpt>
      <trkpt lat="43.7128" lon="6.49494">
        <ele>923</ele>
        <time>2020-07-04T23:11:58Z</time>
      </trkpt>
      <trkpt lat="43.71276" lon="6.49527">
        <ele>923</ele>
        <time>2020-07-04T23:12:03Z</time>
      </trkpt>
      <trkpt lat="43.71274" lon="6.49556">
        <ele>922</ele>
        <time>2020-07-04T23:12:06Z</time>
      </trkpt>
      <trkpt lat="43.7127" lon="6.49589">
        <ele>921</ele>
        <time>2020-07-04T23:12:11Z</time>
      </trkpt>
      <trkpt lat="43.7126" lon="6.49657">
        <ele>922</ele>
        <time>2020-07-04T23:12:20Z</time>
      </trkpt>
      <trkpt lat="43.71259" lon="6.49683">
        <ele>921</ele>
        <time>2020-07-04T23:12:23Z</time>
      </trkpt>
      <trkpt lat="43.71248" lon="6.49757">
        <ele>917</ele>
        <time>2020-07-04T23:12:33Z</time>
      </trkpt>
      <trkpt lat="43.71194" lon="6.49972">
        <ele>916</ele>
        <time>2020-07-04T23:13:02Z</time>
      </trkpt>
      <trkpt lat="43.71172" lon="6.50073">
        <ele>914</ele>
        <time>2020-07-04T23:13:15Z</time>
      </trkpt>
      <trkpt lat="43.7117" lon="6.50088">
        <ele>913</ele>
        <time>2020-07-04T23:13:17Z</time>
      </trkpt>
      <trkpt lat="43.71166" lon="6.50111">
        <ele>911</ele>
        <time>2020-07-04T23:13:20Z</time>
      </trkpt>
      <trkpt lat="43.71152" lon="6.50189">
        <ele>910</ele>
        <time>2020-07-04T23:13:31Z</time>
      </trkpt>
      <trkpt lat="43.7114" lon="6.50244">
        <ele>911</ele>
        <time>2020-07-04T23:13:38Z</time>
      </trkpt>
      <trkpt lat="43.71104" lon="6.50372">
        <ele>910</ele>
        <time>2020-07-04T23:13:56Z</time>
      </trkpt>
      <trkpt lat="43.711" lon="6.50398">
        <ele>909</ele>
        <time>2020-07-04T23:13:59Z</time>
      </trkpt>
      <trkpt lat="43.71084" lon="6.50486">
        <ele>906</ele>
        <time>2020-07-04T23:14:11Z</time>
      </trkpt>
      <trkpt lat="43.7105" lon="6.50625">
        <ele>905</ele>
        <time>2020-07-04T23:14:30Z</time>
      </trkpt>
      <trkpt lat="43.71041" lon="6.50657">
        <ele>904</ele>
        <time>2020-07-04T23:14:34Z</time>
      </trkpt>
      <trkpt lat="43.71057" lon="6.50673">
        <ele>901</ele>
        <time>2020-07-04T23:14:38Z</time>
      </trkpt>
      <trkpt lat="43.7107" lon="6.50682">
        <ele>898</ele>
        <time>2020-07-04T23:14:40Z</time>
      </trkpt>
      <trkpt lat="43.71106" lon="6.50642">
        <ele>896</ele>
        <time>2020-07-04T23:14:49Z</time>
      </trkpt>
      <trkpt lat="43.7113" lon="6.50604">
        <ele>894</ele>
        <time>2020-07-04T23:14:55Z</time>
      </trkpt>
      <trkpt lat="43.71136" lon="6.50598">
        <ele>894</ele>
        <time>2020-07-04T23:14:56Z</time>
      </trkpt>
      <trkpt lat="43.71173" lon="6.50582">
        <ele>891</ele>
        <time>2020-07-04T23:15:03Z</time>
      </trkpt>
      <trkpt lat="43.71191" lon="6.50572">
        <ele>892</ele>
        <time>2020-07-04T23:15:07Z</time>
      </trkpt>
      <trkpt lat="43.71212" lon="6.50564">
        <ele>893</ele>
        <time>2020-07-04T23:15:11Z</time>
      </trkpt>
      <trkpt lat="43.71223" lon="6.50558">
        <ele>894</ele>
        <time>2020-07-04T23:15:13Z</time>
      </trkpt>
      <trkpt lat="43.71241" lon="6.50557">
        <ele>895</ele>
        <time>2020-07-04T23:15:16Z</time>
      </trkpt>
      <trkpt lat="43.71245" lon="6.50557">
        <ele>895</ele>
        <time>2020-07-04T23:15:17Z</time>
      </trkpt>
      <trkpt lat="43.71248" lon="6.50556">
        <ele>895</ele>
        <time>2020-07-04T23:15:17Z</time>
      </trkpt>
      <trkpt lat="43.7125" lon="6.50555">
        <ele>895</ele>
        <time>2020-07-04T23:15:18Z</time>
      </trkpt>
      <trkpt lat="43.71252" lon="6.50553">
        <ele>895</ele>
        <time>2020-07-04T23:15:18Z</time>
      </trkpt>
      <trkpt lat="43.71255" lon="6.50547">
        <ele>894</ele>
        <time>2020-07-04T23:15:19Z</time>
      </trkpt>
      <trkpt lat="43.71259" lon="6.50531">
        <ele>894</ele>
        <time>2020-07-04T23:15:21Z</time>
      </trkpt>
      <trkpt lat="43.71262" lon="6.50526">
        <ele>893</ele>
        <time>2020-07-04T23:15:22Z</time>
      </trkpt>
      <trkpt lat="43.71272" lon="6.50516">
        <ele>892</ele>
        <time>2020-07-04T23:15:24Z</time>
      </trkpt>
      <trkpt lat="43.71284" lon="6.50508">
        <ele>892</ele>
        <time>2020-07-04T23:15:26Z</time>
      </trkpt>
      <trkpt lat="43.71291" lon="6.50502">
        <ele>892</ele>
        <time>2020-07-04T23:15:28Z</time>
      </trkpt>
      <trkpt lat="43.71292" lon="6.50501">
        <ele>891</ele>
        <time>2020-07-04T23:15:28Z</time>
      </trkpt>
      <trkpt lat="43.71303" lon="6.50486">
        <ele>892</ele>
        <time>2020-07-04T23:15:31Z</time>
      </trkpt>
      <trkpt lat="43.71309" lon="6.50473">
        <ele>893</ele>
        <time>2020-07-04T23:15:33Z</time>
      </trkpt>
      <trkpt lat="43.71316" lon="6.50453">
        <ele>895</ele>
        <time>2020-07-04T23:15:36Z</time>
      </trkpt>
      <trkpt lat="43.71323" lon="6.50433">
        <ele>896</ele>
        <time>2020-07-04T23:15:39Z</time>
      </trkpt>
      <trkpt lat="43.71333" lon="6.50412">
        <ele>899</ele>
        <time>2020-07-04T23:15:42Z</time>
      </trkpt>
      <trkpt lat="43.7134" lon="6.50404">
        <ele>899</ele>
        <time>2020-07-04T23:15:43Z</time>
      </trkpt>
      <trkpt lat="43.7144" lon="6.50331">
        <ele>906</ele>
        <time>2020-07-04T23:16:04Z</time>
      </trkpt>
      <trkpt lat="43.71472" lon="6.50311">
        <ele>908</ele>
        <time>2020-07-04T23:16:10Z</time>
      </trkpt>
      <trkpt lat="43.71506" lon="6.50296">
        <ele>910</ele>
        <time>2020-07-04T23:16:16Z</time>
      </trkpt>
      <trkpt lat="43.71595" lon="6.5027">
        <ele>917</ele>
        <time>2020-07-04T23:16:32Z</time>
      </trkpt>
      <trkpt lat="43.71639" lon="6.50255">
        <ele>920</ele>
        <time>2020-07-04T23:16:40Z</time>
      </trkpt>
      <trkpt lat="43.71669" lon="6.50252">
        <ele>921</ele>
        <time>2020-07-04T23:16:46Z</time>
      </trkpt>
      <trkpt lat="43.71725" lon="6.50257">
        <ele>925</ele>
        <time>2020-07-04T23:16:56Z</time>
      </trkpt>
      <trkpt lat="43.71751" lon="6.50267">
        <ele>924</ele>
        <time>2020-07-04T23:17:01Z</time>
      </trkpt>
      <trkpt lat="43.7179" lon="6.5029">
        <ele>922</ele>
        <time>2020-07-04T23:17:08Z</time>
      </trkpt>
      <trkpt lat="43.71804" lon="6.50295">
        <ele>922</ele>
        <time>2020-07-04T23:17:11Z</time>
      </trkpt>
      <trkpt lat="43.71864" lon="6.50307">
        <ele>920</ele>
        <time>2020-07-04T23:17:21Z</time>
      </trkpt>
      <trkpt lat="43.71884" lon="6.50309">
        <ele>918</ele>
        <time>2020-07-04T23:17:25Z</time>
      </trkpt>
      <trkpt lat="43.71896" lon="6.50307">
        <ele>919</ele>
        <time>2020-07-04T23:17:27Z</time>
      </trkpt>
      <trkpt lat="43.71928" lon="6.50297">
        <ele>918</ele>
        <time>2020-07-04T23:17:33Z</time>
      </trkpt>
      <trkpt lat="43.71947" lon="6.50286">
        <ele>916</ele>
        <time>2020-07-04T23:17:37Z</time>
      </trkpt>
      <trkpt lat="43.71954" lon="6.50279">
        <ele>916</ele>
        <time>2020-07-04T23:17:38Z</time>
      </trkpt>
      <trkpt lat="43.71971" lon="6.50256">
        <ele>917</ele>
        <time>2020-07-04T23:17:42Z</time>
      </trkpt>
      <trkpt lat="43.71983" lon="6.50233">
        <ele>919</ele>
        <time>2020-07-04T23:17:46Z</time>
      </trkpt>
      <trkpt lat="43.71994" lon="6.50187">
        <ele>924</ele>
        <time>2020-07-04T23:17:52Z</time>
      </trkpt>
      <trkpt lat="43.71999" lon="6.50175">
        <ele>925</ele>
        <time>2020-07-04T23:17:54Z</time>
      </trkpt>
      <trkpt lat="43.72011" lon="6.50161">
        <ele>925</ele>
        <time>2020-07-04T23:17:57Z</time>
      </trkpt>
      <trkpt lat="43.7202" lon="6.50156">
        <ele>924</ele>
        <time>2020-07-04T23:17:59Z</time>
      </trkpt>
      <trkpt lat="43.72069" lon="6.50146">
        <ele>918</ele>
        <time>2020-07-04T23:18:07Z</time>
      </trkpt>
      <trkpt lat="43.72119" lon="6.50119">
        <ele>921</ele>
        <time>2020-07-04T23:18:17Z</time>
      </trkpt>
      <trkpt lat="43.72128" lon="6.50117">
        <ele>921</ele>
        <time>2020-07-04T23:18:19Z</time>
      </trkpt>
      <trkpt lat="43.72139" lon="6.50117">
        <ele>920</ele>
        <time>2020-07-04T23:18:21Z</time>
      </trkpt>
      <trkpt lat="43.72149" lon="6.50123">
        <ele>919</ele>
        <time>2020-07-04T23:18:23Z</time>
      </trkpt>
      <trkpt lat="43.72153" lon="6.5013">
        <ele>918</ele>
        <time>2020-07-04T23:18:24Z</time>
      </trkpt>
      <trkpt lat="43.72158" lon="6.50146">
        <ele>916</ele>
        <time>2020-07-04T23:18:26Z</time>
      </trkpt>
      <trkpt lat="43.72161" lon="6.50166">
        <ele>914</ele>
        <time>2020-07-04T23:18:29Z</time>
      </trkpt>
      <trkpt lat="43.7216" lon="6.50175">
        <ele>914</ele>
        <time>2020-07-04T23:18:30Z</time>
      </trkpt>
      <trkpt lat="43.72157" lon="6.50186">
        <ele>913</ele>
        <time>2020-07-04T23:18:31Z</time>
      </trkpt>
      <trkpt lat="43.72141" lon="6.50223">
        <ele>910</ele>
        <time>2020-07-04T23:18:37Z</time>
      </trkpt>
      <trkpt lat="43.72136" lon="6.50244">
        <ele>908</ele>
        <time>2020-07-04T23:18:40Z</time>
      </trkpt>
      <trkpt lat="43.72135" lon="6.50271">
        <ele>907</ele>
        <time>2020-07-04T23:18:43Z</time>
      </trkpt>
      <trkpt lat="43.72135" lon="6.50323">
        <ele>906</ele>
        <time>2020-07-04T23:18:50Z</time>
      </trkpt>
      <trkpt lat="43.72138" lon="6.50347">
        <ele>905</ele>
        <time>2020-07-04T23:18:53Z</time>
      </trkpt>
      <trkpt lat="43.72141" lon="6.50358">
        <ele>904</ele>
        <time>2020-07-04T23:18:54Z</time>
      </trkpt>
      <trkpt lat="43.72151" lon="6.50375">
        <ele>905</ele>
        <time>2020-07-04T23:18:57Z</time>
      </trkpt>
      <trkpt lat="43.72167" lon="6.50394">
        <ele>907</ele>
        <time>2020-07-04T23:19:01Z</time>
      </trkpt>
      <trkpt lat="43.72203" lon="6.50416">
        <ele>909</ele>
        <time>2020-07-04T23:19:08Z</time>
      </trkpt>
      <trkpt lat="43.72246" lon="6.50439">
        <ele>912</ele>
        <time>2020-07-04T23:19:16Z</time>
      </trkpt>
      <trkpt lat="43.7226" lon="6.5045">
        <ele>912</ele>
        <time>2020-07-04T23:19:19Z</time>
      </trkpt>
      <trkpt lat="43.72266" lon="6.50456">
        <ele>911</ele>
        <time>2020-07-04T23:19:20Z</time>
      </trkpt>
      <trkpt lat="43.72277" lon="6.50472">
        <ele>910</ele>
        <time>2020-07-04T23:19:23Z</time>
      </trkpt>
      <trkpt lat="43.72285" lon="6.50495">
        <ele>906</ele>
        <time>2020-07-04T23:19:26Z</time>
      </trkpt>
      <trkpt lat="43.72294" lon="6.50543">
        <ele>901</ele>
        <time>2020-07-04T23:19:33Z</time>
      </trkpt>
      <trkpt lat="43.72298" lon="6.50554">
        <ele>900</ele>
        <time>2020-07-04T23:19:34Z</time>
      </trkpt>
      <trkpt lat="43.72308" lon="6.50569">
        <ele>900</ele>
        <time>2020-07-04T23:19:37Z</time>
      </trkpt>
      <trkpt lat="43.72314" lon="6.50574">
        <ele>900</ele>
        <time>2020-07-04T23:19:38Z</time>
      </trkpt>
      <trkpt lat="43.72321" lon="6.50578">
        <ele>900</ele>
        <time>2020-07-04T23:19:40Z</time>
      </trkpt>
      <trkpt lat="43.72329" lon="6.50579">
        <ele>901</ele>
        <time>2020-07-04T23:19:41Z</time>
      </trkpt>
      <trkpt lat="43.72337" lon="6.5058">
        <ele>901</ele>
        <time>2020-07-04T23:19:43Z</time>
      </trkpt>
      <trkpt lat="43.72355" lon="6.50578">
        <ele>901</ele>
        <time>2020-07-04T23:19:46Z</time>
      </trkpt>
      <trkpt lat="43.72369" lon="6.50574">
        <ele>901</ele>
        <time>2020-07-04T23:19:48Z</time>
      </trkpt>
      <trkpt lat="43.72411" lon="6.50563">
        <ele>900</ele>
        <time>2020-07-04T23:19:56Z</time>
      </trkpt>
      <trkpt lat="43.72451" lon="6.50552">
        <ele>900</ele>
        <time>2020-07-04T23:20:03Z</time>
      </trkpt>
      <trkpt lat="43.72481" lon="6.50544">
        <ele>899</ele>
        <time>2020-07-04T23:20:09Z</time>
      </trkpt>
      <trkpt lat="43.72509" lon="6.50536">
        <ele>898</ele>
        <time>2020-07-04T23:20:14Z</time>
      </trkpt>
      <trkpt lat="43.7253" lon="6.50519">
        <ele>900</ele>
        <time>2020-07-04T23:20:18Z</time>
      </trkpt>
      <trkpt lat="43.72624" lon="6.50423">
        <ele>893</ele>
        <time>2020-07-04T23:20:39Z</time>
      </trkpt>
      <trkpt lat="43.72675" lon="6.50367">
        <ele>884</ele>
        <time>2020-07-04T23:20:50Z</time>
      </trkpt>
      <trkpt lat="43.72696" lon="6.50352">
        <ele>883</ele>
        <time>2020-07-04T23:20:55Z</time>
      </trkpt>
      <trkpt lat="43.72699" lon="6.50349">
        <ele>882</ele>
        <time>2020-07-04T23:20:55Z</time>
      </trkpt>
      <trkpt lat="43.72715" lon="6.50337">
        <ele>881</ele>
        <time>2020-07-04T23:20:58Z</time>
      </trkpt>
      <trkpt lat="43.72729" lon="6.50323">
        <ele>881</ele>
        <time>2020-07-04T23:21:02Z</time>
      </trkpt>
      <trkpt lat="43.72744" lon="6.50284">
        <ele>878</ele>
        <time>2020-07-04T23:21:07Z</time>
      </trkpt>
      <trkpt lat="43.72747" lon="6.50279">
        <ele>877</ele>
        <time>2020-07-04T23:21:08Z</time>
      </trkpt>
      <trkpt lat="43.7275" lon="6.50274">
        <ele>877</ele>
        <time>2020-07-04T23:21:09Z</time>
      </trkpt>
      <trkpt lat="43.72763" lon="6.50254">
        <ele>877</ele>
        <time>2020-07-04T23:21:12Z</time>
      </trkpt>
      <trkpt lat="43.72799" lon="6.5022">
        <ele>879</ele>
        <time>2020-07-04T23:21:20Z</time>
      </trkpt>
      <trkpt lat="43.72817" lon="6.502">
        <ele>878</ele>
        <time>2020-07-04T23:21:24Z</time>
      </trkpt>
      <trkpt lat="43.72874" lon="6.50079">
        <ele>868</ele>
        <time>2020-07-04T23:21:43Z</time>
      </trkpt>
      <trkpt lat="43.72901" lon="6.50044">
        <ele>866</ele>
        <time>2020-07-04T23:21:49Z</time>
      </trkpt>
      <trkpt lat="43.72916" lon="6.50032">
        <ele>864</ele>
        <time>2020-07-04T23:21:52Z</time>
      </trkpt>
      <trkpt lat="43.72924" lon="6.50028">
        <ele>863</ele>
        <time>2020-07-04T23:21:54Z</time>
      </trkpt>
      <trkpt lat="43.72954" lon="6.50025">
        <ele>862</ele>
        <time>2020-07-04T23:21:59Z</time>
      </trkpt>
      <trkpt lat="43.72997" lon="6.50013">
        <ele>856</ele>
        <time>2020-07-04T23:22:07Z</time>
      </trkpt>
      <trkpt lat="43.73068" lon="6.50016">
        <ele>852</ele>
        <time>2020-07-04T23:22:20Z</time>
      </trkpt>
      <trkpt lat="43.73175" lon="6.50004">
        <ele>844</ele>
        <time>2020-07-04T23:22:39Z</time>
      </trkpt>
      <trkpt lat="43.73191" lon="6.50005">
        <ele>842</ele>
        <time>2020-07-04T23:22:42Z</time>
      </trkpt>
      <trkpt lat="43.73256" lon="6.50036">
        <ele>839</ele>
        <time>2020-07-04T23:22:54Z</time>
      </trkpt>
      <trkpt lat="43.7328" lon="6.50051">
        <ele>838</ele>
        <time>2020-07-04T23:22:59Z</time>
      </trkpt>
      <trkpt lat="43.73288" lon="6.5006">
        <ele>838</ele>
        <time>2020-07-04T23:23:00Z</time>
      </trkpt>
      <trkpt lat="43.73311" lon="6.50098">
        <ele>843</ele>
        <time>2020-07-04T23:23:07Z</time>
      </trkpt>
      <trkpt lat="43.73317" lon="6.50105">
        <ele>843</ele>
        <time>2020-07-04T23:23:08Z</time>
      </trkpt>
      <trkpt lat="43.73326" lon="6.5011">
        <ele>842</ele>
        <time>2020-07-04T23:23:10Z</time>
      </trkpt>
      <trkpt lat="43.73339" lon="6.50115">
        <ele>840</ele>
        <time>2020-07-04T23:23:12Z</time>
      </trkpt>
      <trkpt lat="43.73381" lon="6.50131">
        <ele>836</ele>
        <time>2020-07-04T23:23:20Z</time>
      </trkpt>
      <trkpt lat="43.73396" lon="6.50137">
        <ele>834</ele>
        <time>2020-07-04T23:23:23Z</time>
      </trkpt>
      <trkpt lat="43.7341" lon="6.50145">
        <ele>834</ele>
        <time>2020-07-04T23:23:26Z</time>
      </trkpt>
      <trkpt lat="43.73426" lon="6.50157">
        <ele>833</ele>
        <time>2020-07-04T23:23:29Z</time>
      </trkpt>
      <trkpt lat="43.73507" lon="6.50226">
        <ele>834</ele>
        <time>2020-07-04T23:23:46Z</time>
      </trkpt>
      <trkpt lat="43.73532" lon="6.50241">
        <ele>833</ele>
        <time>2020-07-04T23:23:51Z</time>
      </trkpt>
      <trkpt lat="43.73563" lon="6.50252">
        <ele>827</ele>
        <time>2020-07-04T23:23:56Z</time>
      </trkpt>
      <trkpt lat="43.7357" lon="6.50257">
        <ele>826</ele>
        <time>2020-07-04T23:23:58Z</time>
      </trkpt>
      <trkpt lat="43.73616" lon="6.5032">
        <ele>828</ele>
        <time>2020-07-04T23:24:09Z</time>
      </trkpt>
      <trkpt lat="43.73682" lon="6.50399">
        <ele>827</ele>
        <time>2020-07-04T23:24:25Z</time>
      </trkpt>
      <trkpt lat="43.73691" lon="6.50408">
        <ele>829</ele>
        <time>2020-07-04T23:24:27Z</time>
      </trkpt>
      <trkpt lat="43.73695" lon="6.5041">
        <ele>830</ele>
        <time>2020-07-04T23:24:27Z</time>
      </trkpt>
      <trkpt lat="43.73704" lon="6.50407">
        <ele>831</ele>
        <time>2020-07-04T23:24:29Z</time>
      </trkpt>
      <trkpt lat="43.73708" lon="6.50403">
        <ele>831</ele>
        <time>2020-07-04T23:24:30Z</time>
      </trkpt>
      <trkpt lat="43.7371" lon="6.50397">
        <ele>831</ele>
        <time>2020-07-04T23:24:31Z</time>
      </trkpt>
      <trkpt lat="43.73712" lon="6.50385">
        <ele>830</ele>
        <time>2020-07-04T23:24:32Z</time>
      </trkpt>
      <trkpt lat="43.73711" lon="6.50379">
        <ele>829</ele>
        <time>2020-07-04T23:24:33Z</time>
      </trkpt>
      <trkpt lat="43.73695" lon="6.50334">
        <ele>823</ele>
        <time>2020-07-04T23:24:40Z</time>
      </trkpt>
      <trkpt lat="43.73682" lon="6.50289">
        <ele>817</ele>
        <time>2020-07-04T23:24:46Z</time>
      </trkpt>
      <trkpt lat="43.7368" lon="6.5026">
        <ele>814</ele>
        <time>2020-07-04T23:24:50Z</time>
      </trkpt>
      <trkpt lat="43.73681" lon="6.50232">
        <ele>812</ele>
        <time>2020-07-04T23:24:53Z</time>
      </trkpt>
      <trkpt lat="43.73679" lon="6.50218">
        <ele>810</ele>
        <time>2020-07-04T23:24:55Z</time>
      </trkpt>
      <trkpt lat="43.73673" lon="6.50179">
        <ele>805</ele>
        <time>2020-07-04T23:25:00Z</time>
      </trkpt>
      <trkpt lat="43.73657" lon="6.50104">
        <ele>796</ele>
        <time>2020-07-04T23:25:10Z</time>
      </trkpt>
      <trkpt lat="43.73659" lon="6.50091">
        <ele>795</ele>
        <time>2020-07-04T23:25:12Z</time>
      </trkpt>
      <trkpt lat="43.73666" lon="6.5008">
        <ele>794</ele>
        <time>2020-07-04T23:25:14Z</time>
      </trkpt>
      <trkpt lat="43.73675" lon="6.50074">
        <ele>793</ele>
        <time>2020-07-04T23:25:16Z</time>
      </trkpt>
      <trkpt lat="43.73709" lon="6.50077">
        <ele>793</ele>
        <time>2020-07-04T23:25:22Z</time>
      </trkpt>
      <trkpt lat="43.73716" lon="6.50077">
        <ele>793</ele>
        <time>2020-07-04T23:25:23Z</time>
      </trkpt>
      <trkpt lat="43.73729" lon="6.50071">
        <ele>792</ele>
        <time>2020-07-04T23:25:25Z</time>
      </trkpt>
      <trkpt lat="43.73821" lon="6.49977">
        <ele>787</ele>
        <time>2020-07-04T23:25:46Z</time>
      </trkpt>
      <trkpt lat="43.73834" lon="6.49962">
        <ele>786</ele>
        <time>2020-07-04T23:25:49Z</time>
      </trkpt>
      <trkpt lat="43.73849" lon="6.49947">
        <ele>785</ele>
        <time>2020-07-04T23:25:52Z</time>
      </trkpt>
      <trkpt lat="43.73886" lon="6.49913">
        <ele>780</ele>
        <time>2020-07-04T23:26:00Z</time>
      </trkpt>
      <trkpt lat="43.7392" lon="6.49887">
        <ele>777</ele>
        <time>2020-07-04T23:26:07Z</time>
      </trkpt>
      <trkpt lat="43.73941" lon="6.49875">
        <ele>776</ele>
        <time>2020-07-04T23:26:11Z</time>
      </trkpt>
      <trkpt lat="43.73953" lon="6.4987">
        <ele>775</ele>
        <time>2020-07-04T23:26:13Z</time>
      </trkpt>
      <trkpt lat="43.73974" lon="6.49867">
        <ele>775</ele>
        <time>2020-07-04T23:26:17Z</time>
      </trkpt>
      <trkpt lat="43.73982" lon="6.49868">
        <ele>775</ele>
        <time>2020-07-04T23:26:18Z</time>
      </trkpt>
      <trkpt lat="43.73999" lon="6.49874">
        <ele>777</ele>
        <time>2020-07-04T23:26:21Z</time>
      </trkpt>
      <trkpt lat="43.74007" lon="6.49877">
        <ele>777</ele>
        <time>2020-07-04T23:26:23Z</time>
      </trkpt>
      <trkpt lat="43.74013" lon="6.4988">
        <ele>777</ele>
        <time>2020-07-04T23:26:24Z</time>
      </trkpt>
      <trkpt lat="43.7406" lon="6.49914">
        <ele>779</ele>
        <time>2020-07-04T23:26:33Z</time>
      </trkpt>
      <trkpt lat="43.74081" lon="6.49923">
        <ele>778</ele>
        <time>2020-07-04T23:26:37Z</time>
      </trkpt>
      <trkpt lat="43.74109" lon="6.49933">
        <ele>774</ele>
        <time>2020-07-04T23:26:43Z</time>
      </trkpt>
      <trkpt lat="43.74124" lon="6.49938">
        <ele>771</ele>
        <time>2020-07-04T23:26:45Z</time>
      </trkpt>
      <trkpt lat="43.74158" lon="6.49947">
        <ele>763</ele>
        <time>2020-07-04T23:26:51Z</time>
      </trkpt>
      <trkpt lat="43.74172" lon="6.49951">
        <ele>761</ele>
        <time>2020-07-04T23:26:54Z</time>
      </trkpt>
      <trkpt lat="43.74197" lon="6.49955">
        <ele>763</ele>
        <time>2020-07-04T23:26:58Z</time>
      </trkpt>
      <trkpt lat="43.74202" lon="6.49954">
        <ele>763</ele>
        <time>2020-07-04T23:26:59Z</time>
      </trkpt>
      <trkpt lat="43.74209" lon="6.4995">
        <ele>763</ele>
        <time>2020-07-04T23:27:01Z</time>
      </trkpt>
      <trkpt lat="43.74213" lon="6.49957">
        <ele>763</ele>
        <time>2020-07-04T23:27:02Z</time>
      </trkpt>
      <trkpt lat="43.74225" lon="6.49953">
        <ele>764</ele>
        <time>2020-07-04T23:27:04Z</time>
      </trkpt>
      <trkpt lat="43.74248" lon="6.49954">
        <ele>765</ele>
        <time>2020-07-04T23:27:08Z</time>
      </trkpt>
      <trkpt lat="43.74253" lon="6.49952">
        <ele>766</ele>
        <time>2020-07-04T23:27:09Z</time>
      </trkpt>
      <trkpt lat="43.74262" lon="6.49976">
        <ele>768</ele>
        <time>2020-07-04T23:27:13Z</time>
      </trkpt>
      <trkpt lat="43.74279" lon="6.49966">
        <ele>770</ele>
        <time>2020-07-04T23:27:16Z</time>
      </trkpt>
      <trkpt lat="43.74294" lon="6.4996">
        <ele>772</ele>
        <time>2020-07-04T23:27:19Z</time>
      </trkpt>
      <trkpt lat="43.743" lon="6.49951">
        <ele>773</ele>
        <time>2020-07-04T23:27:20Z</time>
      </trkpt>
      <trkpt lat="43.74308" lon="6.49944">
        <ele>774</ele>
        <time>2020-07-04T23:27:22Z</time>
      </trkpt>
      <trkpt lat="43.74317" lon="6.49937">
        <ele>774</ele>
        <time>2020-07-04T23:27:24Z</time>
      </trkpt>
      <trkpt lat="43.74415" lon="6.49892">
        <ele>788</ele>
        <time>2020-07-04T23:27:42Z</time>
      </trkpt>
      <trkpt lat="43.74425" lon="6.49888">
        <ele>789</ele>
        <time>2020-07-04T23:27:44Z</time>
      </trkpt>
      <trkpt lat="43.74436" lon="6.49888">
        <ele>789</ele>
        <time>2020-07-04T23:27:46Z</time>
      </trkpt>
      <trkpt lat="43.74447" lon="6.4989">
        <ele>790</ele>
        <time>2020-07-04T23:27:48Z</time>
      </trkpt>
      <trkpt lat="43.74467" lon="6.499">
        <ele>791</ele>
        <time>2020-07-04T23:27:52Z</time>
      </trkpt>
      <trkpt lat="43.74487" lon="6.49912">
        <ele>792</ele>
        <time>2020-07-04T23:27:55Z</time>
      </trkpt>
      <trkpt lat="43.74497" lon="6.49915">
        <ele>793</ele>
        <time>2020-07-04T23:27:57Z</time>
      </trkpt>
      <trkpt lat="43.74525" lon="6.49913">
        <ele>792</ele>
        <time>2020-07-04T23:28:02Z</time>
      </trkpt>
      <trkpt lat="43.7455" lon="6.49909">
        <ele>790</ele>
        <time>2020-07-04T23:28:07Z</time>
      </trkpt>
      <trkpt lat="43.74589" lon="6.49902">
        <ele>789</ele>
        <time>2020-07-04T23:28:14Z</time>
      </trkpt>
      <trkpt lat="43.74636" lon="6.49895">
        <ele>788</ele>
        <time>2020-07-04T23:28:22Z</time>
      </trkpt>
      <trkpt lat="43.74719" lon="6.49901">
        <ele>785</ele>
        <time>2020-07-04T23:28:37Z</time>
      </trkpt>
      <trkpt lat="43.74733" lon="6.49905">
        <ele>784</ele>
        <time>2020-07-04T23:28:40Z</time>
      </trkpt>
      <trkpt lat="43.74744" lon="6.49913">
        <ele>783</ele>
        <time>2020-07-04T23:28:42Z</time>
      </trkpt>
      <trkpt lat="43.74807" lon="6.4997">
        <ele>778</ele>
        <time>2020-07-04T23:28:55Z</time>
      </trkpt>
      <trkpt lat="43.7482" lon="6.49979">
        <ele>778</ele>
        <time>2020-07-04T23:28:58Z</time>
      </trkpt>
      <trkpt lat="43.74827" lon="6.49981">
        <ele>778</ele>
        <time>2020-07-04T23:28:59Z</time>
      </trkpt>
      <trkpt lat="43.74838" lon="6.49981">
        <ele>778</ele>
        <time>2020-07-04T23:29:01Z</time>
      </trkpt>
      <trkpt lat="43.74848" lon="6.49976">
        <ele>778</ele>
        <time>2020-07-04T23:29:03Z</time>
      </trkpt>
      <trkpt lat="43.74878" lon="6.49942">
        <ele>781</ele>
        <time>2020-07-04T23:29:10Z</time>
      </trkpt>
      <trkpt lat="43.7489" lon="6.49936">
        <ele>781</ele>
        <time>2020-07-04T23:29:12Z</time>
      </trkpt>
      <trkpt lat="43.74933" lon="6.49924">
        <ele>782</ele>
        <time>2020-07-04T23:29:20Z</time>
      </trkpt>
      <trkpt lat="43.74979" lon="6.49918">
        <ele>783</ele>
        <time>2020-07-04T23:29:28Z</time>
      </trkpt>
      <trkpt lat="43.74989" lon="6.49919">
        <ele>783</ele>
        <time>2020-07-04T23:29:30Z</time>
      </trkpt>
      <trkpt lat="43.75007" lon="6.49924">
        <ele>783</ele>
        <time>2020-07-04T23:29:33Z</time>
      </trkpt>
      <trkpt lat="43.7502" lon="6.49932">
        <ele>783</ele>
        <time>2020-07-04T23:29:36Z</time>
      </trkpt>
      <trkpt lat="43.75055" lon="6.49957">
        <ele>783</ele>
        <time>2020-07-04T23:29:43Z</time>
      </trkpt>
      <trkpt lat="43.75066" lon="6.4997">
        <ele>783</ele>
        <time>2020-07-04T23:29:45Z</time>
      </trkpt>
      <trkpt lat="43.75072" lon="6.49983">
        <ele>782</ele>
        <time>2020-07-04T23:29:47Z</time>
      </trkpt>
      <trkpt lat="43.7508" lon="6.50005">
        <ele>780</ele>
        <time>2020-07-04T23:29:50Z</time>
      </trkpt>
      <trkpt lat="43.7509" lon="6.50035">
        <ele>779</ele>
        <time>2020-07-04T23:29:55Z</time>
      </trkpt>
      <trkpt lat="43.75101" lon="6.50059">
        <ele>779</ele>
        <time>2020-07-04T23:29:58Z</time>
      </trkpt>
      <trkpt lat="43.75186" lon="6.502">
        <ele>782</ele>
        <time>2020-07-04T23:30:22Z</time>
      </trkpt>
      <trkpt lat="43.75197" lon="6.50224">
        <ele>783</ele>
        <time>2020-07-04T23:30:25Z</time>
      </trkpt>
      <trkpt lat="43.75213" lon="6.50276">
        <ele>781</ele>
        <time>2020-07-04T23:30:33Z</time>
      </trkpt>
      <trkpt lat="43.75218" lon="6.503">
        <ele>780</ele>
        <time>2020-07-04T23:30:36Z</time>
      </trkpt>
      <trkpt lat="43.75227" lon="6.50386">
        <ele>779</ele>
        <time>2020-07-04T23:30:47Z</time>
      </trkpt>
      <trkpt lat="43.7523" lon="6.50432">
        <ele>779</ele>
        <time>2020-07-04T23:30:53Z</time>
      </trkpt>
      <trkpt lat="43.75229" lon="6.50476">
        <ele>778</ele>
        <time>2020-07-04T23:30:59Z</time>
      </trkpt>
      <trkpt lat="43.75224" lon="6.50516">
        <ele>778</ele>
        <time>2020-07-04T23:31:04Z</time>
      </trkpt>
      <trkpt lat="43.75225" lon="6.50544">
        <ele>780</ele>
        <time>2020-07-04T23:31:08Z</time>
      </trkpt>
      <trkpt lat="43.75222" lon="6.50574">
        <ele>781</ele>
        <time>2020-07-04T23:31:11Z</time>
      </trkpt>
      <trkpt lat="43.75201" lon="6.5066">
        <ele>782</ele>
        <time>2020-07-04T23:31:23Z</time>
      </trkpt>
      <trkpt lat="43.75187" lon="6.5071">
        <ele>782</ele>
        <time>2020-07-04T23:31:30Z</time>
      </trkpt>
      <trkpt lat="43.75181" lon="6.50734">
        <ele>782</ele>
        <time>2020-07-04T23:31:33Z</time>
      </trkpt>
      <trkpt lat="43.75178" lon="6.50757">
        <ele>782</ele>
        <time>2020-07-04T23:31:36Z</time>
      </trkpt>
      <trkpt lat="43.75177" lon="6.5087">
        <ele>783</ele>
        <time>2020-07-04T23:31:51Z</time>
      </trkpt>
      <trkpt lat="43.75179" lon="6.50896">
        <ele>783</ele>
        <time>2020-07-04T23:31:54Z</time>
      </trkpt>
      <trkpt lat="43.75182" lon="6.50902">
        <ele>784</ele>
        <time>2020-07-04T23:31:55Z</time>
      </trkpt>
      <trkpt lat="43.75213" lon="6.50935">
        <ele>789</ele>
        <time>2020-07-04T23:32:02Z</time>
      </trkpt>
      <trkpt lat="43.75231" lon="6.50963">
        <ele>789</ele>
        <time>2020-07-04T23:32:07Z</time>
      </trkpt>
      <trkpt lat="43.75252" lon="6.5099">
        <ele>787</ele>
        <time>2020-07-04T23:32:12Z</time>
      </trkpt>
      <trkpt lat="43.7529" lon="6.51027">
        <ele>792</ele>
        <time>2020-07-04T23:32:20Z</time>
      </trkpt>
      <trkpt lat="43.75324" lon="6.51073">
        <ele>789</ele>
        <time>2020-07-04T23:32:29Z</time>
      </trkpt>
      <trkpt lat="43.75476" lon="6.51244">
        <ele>797</ele>
        <time>2020-07-04T23:33:04Z</time>
      </trkpt>
      <trkpt lat="43.75494" lon="6.51269">
        <ele>798</ele>
        <time>2020-07-04T23:33:08Z</time>
      </trkpt>
      <trkpt lat="43.75505" lon="6.51278">
        <ele>799</ele>
        <time>2020-07-04T23:33:10Z</time>
      </trkpt>
      <trkpt lat="43.75598" lon="6.51328">
        <ele>797</ele>
        <time>2020-07-04T23:33:28Z</time>
      </trkpt>
      <trkpt lat="43.75603" lon="6.51334">
        <ele>796</ele>
        <time>2020-07-04T23:33:29Z</time>
      </trkpt>
      <trkpt lat="43.75606" lon="6.5134">
        <ele>797</ele>
        <time>2020-07-04T23:33:30Z</time>
      </trkpt>
      <trkpt lat="43.75613" lon="6.51365">
        <ele>801</ele>
        <time>2020-07-04T23:33:34Z</time>
      </trkpt>
      <trkpt lat="43.75617" lon="6.51373">
        <ele>802</ele>
        <time>2020-07-04T23:33:35Z</time>
      </trkpt>
      <trkpt lat="43.75622" lon="6.5138">
        <ele>802</ele>
        <time>2020-07-04T23:33:36Z</time>
      </trkpt>
      <trkpt lat="43.75676" lon="6.51417">
        <ele>798</ele>
        <time>2020-07-04T23:33:47Z</time>
      </trkpt>
      <trkpt lat="43.75693" lon="6.51426">
        <ele>801</ele>
        <time>2020-07-04T23:33:50Z</time>
      </trkpt>
      <trkpt lat="43.7572" lon="6.51432">
        <ele>802</ele>
        <time>2020-07-04T23:33:55Z</time>
      </trkpt>
      <trkpt lat="43.7577" lon="6.51452">
        <ele>806</ele>
        <time>2020-07-04T23:34:04Z</time>
      </trkpt>
      <trkpt lat="43.75835" lon="6.51445">
        <ele>804</ele>
        <time>2020-07-04T23:34:16Z</time>
      </trkpt>
      <trkpt lat="43.75864" lon="6.51446">
        <ele>804</ele>
        <time>2020-07-04T23:34:21Z</time>
      </trkpt>
      <trkpt lat="43.75879" lon="6.51448">
        <ele>804</ele>
        <time>2020-07-04T23:34:24Z</time>
      </trkpt>
      <trkpt lat="43.75916" lon="6.51466">
        <ele>809</ele>
        <time>2020-07-04T23:34:31Z</time>
      </trkpt>
      <trkpt lat="43.75984" lon="6.51472">
        <ele>806</ele>
        <time>2020-07-04T23:34:43Z</time>
      </trkpt>
      <trkpt lat="43.76012" lon="6.51484">
        <ele>806</ele>
        <time>2020-07-04T23:34:48Z</time>
      </trkpt>
      <trkpt lat="43.76047" lon="6.51522">
        <ele>811</ele>
        <time>2020-07-04T23:34:56Z</time>
      </trkpt>
      <trkpt lat="43.76094" lon="6.51556">
        <ele>813</ele>
        <time>2020-07-04T23:35:05Z</time>
      </trkpt>
      <trkpt lat="43.76105" lon="6.51561">
        <ele>813</ele>
        <time>2020-07-04T23:35:07Z</time>
      </trkpt>
      <trkpt lat="43.76155" lon="6.51575">
        <ele>808</ele>
        <time>2020-07-04T23:35:17Z</time>
      </trkpt>
      <trkpt lat="43.76168" lon="6.51577">
        <ele>806</ele>
        <time>2020-07-04T23:35:19Z</time>
      </trkpt>
      <trkpt lat="43.76194" lon="6.51577">
        <ele>804</ele>
        <time>2020-07-04T23:35:23Z</time>
      </trkpt>
      <trkpt lat="43.76218" lon="6.51587">
        <ele>803</ele>
        <time>2020-07-04T23:35:28Z</time>
      </trkpt>
      <trkpt lat="43.76239" lon="6.51606">
        <ele>804</ele>
        <time>2020-07-04T23:35:32Z</time>
      </trkpt>
      <trkpt lat="43.76266" lon="6.51643">
        <ele>808</ele>
        <time>2020-07-04T23:35:39Z</time>
      </trkpt>
      <trkpt lat="43.76287" lon="6.51667">
        <ele>809</ele>
        <time>2020-07-04T23:35:44Z</time>
      </trkpt>
      <trkpt lat="43.76322" lon="6.51698">
        <ele>812</ele>
        <time>2020-07-04T23:35:51Z</time>
      </trkpt>
      <trkpt lat="43.76359" lon="6.51726">
        <ele>814</ele>
        <time>2020-07-04T23:35:59Z</time>
      </trkpt>
      <trkpt lat="43.76371" lon="6.51733">
        <ele>815</ele>
        <time>2020-07-04T23:36:01Z</time>
      </trkpt>
      <trkpt lat="43.7646" lon="6.51755">
        <ele>808</ele>
        <time>2020-07-04T23:36:17Z</time>
      </trkpt>
      <trkpt lat="43.7647" lon="6.51761">
        <ele>808</ele>
        <time>2020-07-04T23:36:19Z</time>
      </trkpt>
      <trkpt lat="43.76478" lon="6.51771">
        <ele>810</ele>
        <time>2020-07-04T23:36:21Z</time>
      </trkpt>
      <trkpt lat="43.76505" lon="6.51813">
        <ele>814</ele>
        <time>2020-07-04T23:36:28Z</time>
      </trkpt>
      <trkpt lat="43.76521" lon="6.51834">
        <ele>815</ele>
        <time>2020-07-04T23:36:32Z</time>
      </trkpt>
      <trkpt lat="43.76567" lon="6.51878">
        <ele>813</ele>
        <time>2020-07-04T23:36:42Z</time>
      </trkpt>
      <trkpt lat="43.76585" lon="6.51902">
        <ele>811</ele>
        <time>2020-07-04T23:36:47Z</time>
      </trkpt>
      <trkpt lat="43.76603" lon="6.51928">
        <ele>812</ele>
        <time>2020-07-04T23:36:51Z</time>
      </trkpt>
      <trkpt lat="43.76628" lon="6.51987">
        <ele>816</ele>
        <time>2020-07-04T23:37:00Z</time>
      </trkpt>
      <trkpt lat="43.76636" lon="6.52003">
        <ele>817</ele>
        <time>2020-07-04T23:37:03Z</time>
      </trkpt>
      <trkpt lat="43.76642" lon="6.52012">
        <ele>817</ele>
        <time>2020-07-04T23:37:04Z</time>
      </trkpt>
      <trkpt lat="43.76663" lon="6.52026">
        <ele>814</ele>
        <time>2020-07-04T23:37:08Z</time>
      </trkpt>
      <trkpt lat="43.76672" lon="6.52035">
        <ele>813</ele>
        <time>2020-07-04T23:37:10Z</time>
      </trkpt>
      <trkpt lat="43.76697" lon="6.52074">
        <ele>815</ele>
        <time>2020-07-04T23:37:17Z</time>
      </trkpt>
      <trkpt lat="43.76707" lon="6.52085">
        <ele>814</ele>
        <time>2020-07-04T23:37:19Z</time>
      </trkpt>
      <trkpt lat="43.76716" lon="6.52079">
        <ele>812</ele>
        <time>2020-07-04T23:37:21Z</time>
      </trkpt>
      <trkpt lat="43.76719" lon="6.52076">
        <ele>811</ele>
        <time>2020-07-04T23:37:22Z</time>
      </trkpt>
      <trkpt lat="43.76744" lon="6.52057">
        <ele>807</ele>
        <time>2020-07-04T23:37:27Z</time>
      </trkpt>
      <trkpt lat="43.76811" lon="6.52008">
        <ele>813</ele>
        <time>2020-07-04T23:37:40Z</time>
      </trkpt>
      <trkpt lat="43.76823" lon="6.52004">
        <ele>814</ele>
        <time>2020-07-04T23:37:42Z</time>
      </trkpt>
      <trkpt lat="43.7685" lon="6.52">
        <ele>818</ele>
        <time>2020-07-04T23:37:47Z</time>
      </trkpt>
      <trkpt lat="43.76864" lon="6.52">
        <ele>820</ele>
        <time>2020-07-04T23:37:50Z</time>
      </trkpt>
      <trkpt lat="43.7688" lon="6.52002">
        <ele>822</ele>
        <time>2020-07-04T23:37:53Z</time>
      </trkpt>
      <trkpt lat="43.76914" lon="6.52014">
        <ele>824</ele>
        <time>2020-07-04T23:37:59Z</time>
      </trkpt>
      <trkpt lat="43.76951" lon="6.52021">
        <ele>827</ele>
        <time>2020-07-04T23:38:06Z</time>
      </trkpt>
      <trkpt lat="43.76965" lon="6.52028">
        <ele>827</ele>
        <time>2020-07-04T23:38:08Z</time>
      </trkpt>
      <trkpt lat="43.77019" lon="6.52061">
        <ele>823</ele>
        <time>2020-07-04T23:38:19Z</time>
      </trkpt>
      <trkpt lat="43.77052" lon="6.52087">
        <ele>819</ele>
        <time>2020-07-04T23:38:25Z</time>
      </trkpt>
      <trkpt lat="43.77064" lon="6.52091">
        <ele>819</ele>
        <time>2020-07-04T23:38:28Z</time>
      </trkpt>
      <trkpt lat="43.7709" lon="6.52093">
        <ele>819</ele>
        <time>2020-07-04T23:38:32Z</time>
      </trkpt>
      <trkpt lat="43.77162" lon="6.52088">
        <ele>819</ele>
        <time>2020-07-04T23:38:45Z</time>
      </trkpt>
      <trkpt lat="43.77232" lon="6.5209">
        <ele>818</ele>
        <time>2020-07-04T23:38:58Z</time>
      </trkpt>
      <trkpt lat="43.77428" lon="6.52107">
        <ele>833</ele>
        <time>2020-07-04T23:39:32Z</time>
      </trkpt>
      <trkpt lat="43.77503" lon="6.5212">
        <ele>835</ele>
        <time>2020-07-04T23:39:46Z</time>
      </trkpt>
      <trkpt lat="43.77534" lon="6.52119">
        <ele>834</ele>
        <time>2020-07-04T23:39:51Z</time>
      </trkpt>
      <trkpt lat="43.77543" lon="6.52121">
        <ele>833</ele>
        <time>2020-07-04T23:39:53Z</time>
      </trkpt>
      <trkpt lat="43.77568" lon="6.52143">
        <ele>830</ele>
        <time>2020-07-04T23:39:58Z</time>
      </trkpt>
      <trkpt lat="43.77591" lon="6.52152">
        <ele>831</ele>
        <time>2020-07-04T23:40:03Z</time>
      </trkpt>
      <trkpt lat="43.77601" lon="6.52159">
        <ele>832</ele>
        <time>2020-07-04T23:40:05Z</time>
      </trkpt>
      <trkpt lat="43.77609" lon="6.52167">
        <ele>833</ele>
        <time>2020-07-04T23:40:06Z</time>
      </trkpt>
      <trkpt lat="43.77644" lon="6.52213">
        <ele>835</ele>
        <time>2020-07-04T23:40:15Z</time>
      </trkpt>
      <trkpt lat="43.77652" lon="6.5222">
        <ele>836</ele>
        <time>2020-07-04T23:40:17Z</time>
      </trkpt>
      <trkpt lat="43.77669" lon="6.52226">
        <ele>837</ele>
        <time>2020-07-04T23:40:20Z</time>
      </trkpt>
      <trkpt lat="43.77678" lon="6.52226">
        <ele>836</ele>
        <time>2020-07-04T23:40:21Z</time>
      </trkpt>
      <trkpt lat="43.77697" lon="6.52222">
        <ele>836</ele>
        <time>2020-07-04T23:40:25Z</time>
      </trkpt>
      <trkpt lat="43.77718" lon="6.52213">
        <ele>836</ele>
        <time>2020-07-04T23:40:29Z</time>
      </trkpt>
      <trkpt lat="43.77812" lon="6.52161">
        <ele>836</ele>
        <time>2020-07-04T23:40:47Z</time>
      </trkpt>
      <trkpt lat="43.77858" lon="6.52145">
        <ele>840</ele>
        <time>2020-07-04T23:40:55Z</time>
      </trkpt>
      <trkpt lat="43.77886" lon="6.52144">
        <ele>843</ele>
        <time>2020-07-04T23:41:00Z</time>
      </trkpt>
      <trkpt lat="43.77896" lon="6.52147">
        <ele>843</ele>
        <time>2020-07-04T23:41:02Z</time>
      </trkpt>
      <trkpt lat="43.77932" lon="6.52169">
        <ele>841</ele>
        <time>2020-07-04T23:41:09Z</time>
      </trkpt>
      <trkpt lat="43.7795" lon="6.52172">
        <ele>841</ele>
        <time>2020-07-04T23:41:12Z</time>
      </trkpt>
      <trkpt lat="43.77959" lon="6.52171">
        <ele>842</ele>
        <time>2020-07-04T23:41:14Z</time>
      </trkpt>
      <trkpt lat="43.78018" lon="6.52132">
        <ele>848</ele>
        <time>2020-07-04T23:41:25Z</time>
      </trkpt>
      <trkpt lat="43.78152" lon="6.52054">
        <ele>839</ele>
        <time>2020-07-04T23:41:51Z</time>
      </trkpt>
      <trkpt lat="43.78175" lon="6.52038">
        <ele>838</ele>
        <time>2020-07-04T23:41:56Z</time>
      </trkpt>
      <trkpt lat="43.78194" lon="6.52018">
        <ele>838</ele>
        <time>2020-07-04T23:42:00Z</time>
      </trkpt>
      <trkpt lat="43.78262" lon="6.51937">
        <ele>839</ele>
        <time>2020-07-04T23:42:16Z</time>
      </trkpt>
      <trkpt lat="43.78272" lon="6.51921">
        <ele>840</ele>
        <time>2020-07-04T23:42:19Z</time>
      </trkpt>
      <trkpt lat="43.78282" lon="6.51888">
        <ele>844</ele>
        <time>2020-07-04T23:42:23Z</time>
      </trkpt>
      <trkpt lat="43.78285" lon="6.51884">
        <ele>844</ele>
        <time>2020-07-04T23:42:24Z</time>
      </trkpt>
      <trkpt lat="43.78298" lon="6.51879">
        <ele>845</ele>
        <time>2020-07-04T23:42:26Z</time>
      </trkpt>
      <trkpt lat="43.78365" lon="6.51863">
        <ele>846</ele>
        <time>2020-07-04T23:42:39Z</time>
      </trkpt>
      <trkpt lat="43.78395" lon="6.51852">
        <ele>846</ele>
        <time>2020-07-04T23:42:44Z</time>
      </trkpt>
      <trkpt lat="43.78401" lon="6.51848">
        <ele>846</ele>
        <time>2020-07-04T23:42:45Z</time>
      </trkpt>
      <trkpt lat="43.78413" lon="6.51845">
        <ele>846</ele>
        <time>2020-07-04T23:42:47Z</time>
      </trkpt>
      <trkpt lat="43.78422" lon="6.51846">
        <ele>846</ele>
        <time>2020-07-04T23:42:49Z</time>
      </trkpt>
      <trkpt lat="43.78435" lon="6.51852">
        <ele>847</ele>
        <time>2020-07-04T23:42:52Z</time>
      </trkpt>
      <trkpt lat="43.78441" lon="6.51858">
        <ele>848</ele>
        <time>2020-07-04T23:42:53Z</time>
      </trkpt>
      <trkpt lat="43.78457" lon="6.51868">
        <ele>849</ele>
        <time>2020-07-04T23:42:56Z</time>
      </trkpt>
      <trkpt lat="43.78509" lon="6.51892">
        <ele>851</ele>
        <time>2020-07-04T23:43:06Z</time>
      </trkpt>
      <trkpt lat="43.78539" lon="6.51918">
        <ele>852</ele>
        <time>2020-07-04T23:43:12Z</time>
      </trkpt>
      <trkpt lat="43.78548" lon="6.51923">
        <ele>852</ele>
        <time>2020-07-04T23:43:14Z</time>
      </trkpt>
      <trkpt lat="43.78568" lon="6.51929">
        <ele>851</ele>
        <time>2020-07-04T23:43:17Z</time>
      </trkpt>
      <trkpt lat="43.78659" lon="6.51946">
        <ele>854</ele>
        <time>2020-07-04T23:43:34Z</time>
      </trkpt>
      <trkpt lat="43.78717" lon="6.51953">
        <ele>855</ele>
        <time>2020-07-04T23:43:44Z</time>
      </trkpt>
      <trkpt lat="43.7874" lon="6.51954">
        <ele>855</ele>
        <time>2020-07-04T23:43:48Z</time>
      </trkpt>
      <trkpt lat="43.78761" lon="6.51952">
        <ele>856</ele>
        <time>2020-07-04T23:43:52Z</time>
      </trkpt>
      <trkpt lat="43.78824" lon="6.5194">
        <ele>858</ele>
        <time>2020-07-04T23:44:03Z</time>
      </trkpt>
      <trkpt lat="43.78866" lon="6.5193">
        <ele>860</ele>
        <time>2020-07-04T23:44:11Z</time>
      </trkpt>
      <trkpt lat="43.7888" lon="6.51924">
        <ele>861</ele>
        <time>2020-07-04T23:44:13Z</time>
      </trkpt>
      <trkpt lat="43.78913" lon="6.519">
        <ele>864</ele>
        <time>2020-07-04T23:44:20Z</time>
      </trkpt>
      <trkpt lat="43.78922" lon="6.51896">
        <ele>865</ele>
        <time>2020-07-04T23:44:22Z</time>
      </trkpt>
      <trkpt lat="43.78933" lon="6.51895">
        <ele>865</ele>
        <time>2020-07-04T23:44:24Z</time>
      </trkpt>
      <trkpt lat="43.78977" lon="6.51896">
        <ele>867</ele>
        <time>2020-07-04T23:44:32Z</time>
      </trkpt>
      <trkpt lat="43.78987" lon="6.51894">
        <ele>868</ele>
        <time>2020-07-04T23:44:33Z</time>
      </trkpt>
      <trkpt lat="43.79017" lon="6.51877">
        <ele>871</ele>
        <time>2020-07-04T23:44:39Z</time>
      </trkpt>
      <trkpt lat="43.79028" lon="6.51872">
        <ele>872</ele>
        <time>2020-07-04T23:44:41Z</time>
      </trkpt>
      <trkpt lat="43.79078" lon="6.51861">
        <ele>873</ele>
        <time>2020-07-04T23:44:50Z</time>
      </trkpt>
      <trkpt lat="43.79128" lon="6.51839">
        <ele>878</ele>
        <time>2020-07-04T23:44:59Z</time>
      </trkpt>
      <trkpt lat="43.79141" lon="6.51836">
        <ele>879</ele>
        <time>2020-07-04T23:45:02Z</time>
      </trkpt>
      <trkpt lat="43.79255" lon="6.5183">
        <ele>884</ele>
        <time>2020-07-04T23:45:22Z</time>
      </trkpt>
      <trkpt lat="43.79335" lon="6.51817">
        <ele>891</ele>
        <time>2020-07-04T23:45:36Z</time>
      </trkpt>
      <trkpt lat="43.7936" lon="6.51817">
        <ele>892</ele>
        <time>2020-07-04T23:45:41Z</time>
      </trkpt>
      <trkpt lat="43.7941" lon="6.51822">
        <ele>894</ele>
        <time>2020-07-04T23:45:50Z</time>
      </trkpt>
      <trkpt lat="43.79433" lon="6.51819">
        <ele>895</ele>
        <time>2020-07-04T23:45:54Z</time>
      </trkpt>
      <trkpt lat="43.79468" lon="6.51811">
        <ele>896</ele>
        <time>2020-07-04T23:46:00Z</time>
      </trkpt>
      <trkpt lat="43.79477" lon="6.51807">
        <ele>897</ele>
        <time>2020-07-04T23:46:02Z</time>
      </trkpt>
      <trkpt lat="43.79498" lon="6.51793">
        <ele>899</ele>
        <time>2020-07-04T23:46:06Z</time>
      </trkpt>
      <trkpt lat="43.79523" lon="6.5177">
        <ele>904</ele>
        <time>2020-07-04T23:46:11Z</time>
      </trkpt>
      <trkpt lat="43.79532" lon="6.51764">
        <ele>905</ele>
        <time>2020-07-04T23:46:13Z</time>
      </trkpt>
      <trkpt lat="43.79561" lon="6.51757">
        <ele>907</ele>
        <time>2020-07-04T23:46:18Z</time>
      </trkpt>
      <trkpt lat="43.79604" lon="6.51739">
        <ele>912</ele>
        <time>2020-07-04T23:46:26Z</time>
      </trkpt>
      <trkpt lat="43.79619" lon="6.51738">
        <ele>912</ele>
        <time>2020-07-04T23:46:29Z</time>
      </trkpt>
      <trkpt lat="43.79645" lon="6.51749">
        <ele>910</ele>
        <time>2020-07-04T23:46:34Z</time>
      </trkpt>
      <trkpt lat="43.79654" lon="6.51749">
        <ele>911</ele>
        <time>2020-07-04T23:46:36Z</time>
      </trkpt>
      <trkpt lat="43.79663" lon="6.51747">
        <ele>912</ele>
        <time>2020-07-04T23:46:37Z</time>
      </trkpt>
      <trkpt lat="43.79703" lon="6.51724">
        <ele>915</ele>
        <time>2020-07-04T23:46:45Z</time>
      </trkpt>
      <trkpt lat="43.79768" lon="6.51681">
        <ele>921</ele>
        <time>2020-07-04T23:46:58Z</time>
      </trkpt>
      <trkpt lat="43.79802" lon="6.51668">
        <ele>922</ele>
        <time>2020-07-04T23:47:04Z</time>
      </trkpt>
      <trkpt lat="43.79823" lon="6.51657">
        <ele>924</ele>
        <time>2020-07-04T23:47:08Z</time>
      </trkpt>
      <trkpt lat="43.79843" lon="6.51645">
        <ele>926</ele>
        <time>2020-07-04T23:47:12Z</time>
      </trkpt>
      <trkpt lat="43.7987" lon="6.51621">
        <ele>929</ele>
        <time>2020-07-04T23:47:18Z</time>
      </trkpt>
      <trkpt lat="43.79898" lon="6.51602">
        <ele>931</ele>
        <time>2020-07-04T23:47:23Z</time>
      </trkpt>
      <trkpt lat="43.79926" lon="6.51591">
        <ele>931</ele>
        <time>2020-07-04T23:47:28Z</time>
      </trkpt>
      <trkpt lat="43.79935" lon="6.51585">
        <ele>931</ele>
        <time>2020-07-04T23:47:30Z</time>
      </trkpt>
      <trkpt lat="43.79949" lon="6.5157">
        <ele>931</ele>
        <time>2020-07-04T23:47:33Z</time>
      </trkpt>
      <trkpt lat="43.79979" lon="6.51531">
        <ele>931</ele>
        <time>2020-07-04T23:47:41Z</time>
      </trkpt>
      <trkpt lat="43.79986" lon="6.51516">
        <ele>932</ele>
        <time>2020-07-04T23:47:43Z</time>
      </trkpt>
      <trkpt lat="43.79986" lon="6.51505">
        <ele>933</ele>
        <time>2020-07-04T23:47:44Z</time>
      </trkpt>
      <trkpt lat="43.79979" lon="6.51482">
        <ele>939</ele>
        <time>2020-07-04T23:47:47Z</time>
      </trkpt>
      <trkpt lat="43.79976" lon="6.51468">
        <ele>941</ele>
        <time>2020-07-04T23:47:49Z</time>
      </trkpt>
      <trkpt lat="43.79982" lon="6.51442">
        <ele>944</ele>
        <time>2020-07-04T23:47:53Z</time>
      </trkpt>
      <trkpt lat="43.79991" lon="6.51417">
        <ele>947</ele>
        <time>2020-07-04T23:47:56Z</time>
      </trkpt>
      <trkpt lat="43.80003" lon="6.51396">
        <ele>949</ele>
        <time>2020-07-04T23:48:00Z</time>
      </trkpt>
      <trkpt lat="43.8001" lon="6.51388">
        <ele>949</ele>
        <time>2020-07-04T23:48:01Z</time>
      </trkpt>
      <trkpt lat="43.80051" lon="6.51352">
        <ele>950</ele>
        <time>2020-07-04T23:48:10Z</time>
      </trkpt>
      <trkpt lat="43.80069" lon="6.51343">
        <ele>949</ele>
        <time>2020-07-04T23:48:13Z</time>
      </trkpt>
      <trkpt lat="43.80095" lon="6.51341">
        <ele>948</ele>
        <time>2020-07-04T23:48:18Z</time>
      </trkpt>
      <trkpt lat="43.80103" lon="6.51338">
        <ele>949</ele>
        <time>2020-07-04T23:48:20Z</time>
      </trkpt>
      <trkpt lat="43.80117" lon="6.51325">
        <ele>951</ele>
        <time>2020-07-04T23:48:23Z</time>
      </trkpt>
      <trkpt lat="43.80123" lon="6.51316">
        <ele>952</ele>
        <time>2020-07-04T23:48:24Z</time>
      </trkpt>
      <trkpt lat="43.80127" lon="6.51304">
        <ele>953</ele>
        <time>2020-07-04T23:48:26Z</time>
      </trkpt>
      <trkpt lat="43.80132" lon="6.51279">
        <ele>956</ele>
        <time>2020-07-04T23:48:29Z</time>
      </trkpt>
      <trkpt lat="43.80132" lon="6.51266">
        <ele>958</ele>
        <time>2020-07-04T23:48:31Z</time>
      </trkpt>
      <trkpt lat="43.80128" lon="6.51214">
        <ele>962</ele>
        <time>2020-07-04T23:48:38Z</time>
      </trkpt>
      <trkpt lat="43.80129" lon="6.51188">
        <ele>964</ele>
        <time>2020-07-04T23:48:41Z</time>
      </trkpt>
      <trkpt lat="43.80135" lon="6.51164">
        <ele>965</ele>
        <time>2020-07-04T23:48:44Z</time>
      </trkpt>
      <trkpt lat="43.80139" lon="6.51153">
        <ele>964</ele>
        <time>2020-07-04T23:48:46Z</time>
      </trkpt>
      <trkpt lat="43.80149" lon="6.51134">
        <ele>964</ele>
        <time>2020-07-04T23:48:49Z</time>
      </trkpt>
      <trkpt lat="43.80157" lon="6.51127">
        <ele>963</ele>
        <time>2020-07-04T23:48:50Z</time>
      </trkpt>
      <trkpt lat="43.80171" lon="6.5112">
        <ele>963</ele>
        <time>2020-07-04T23:48:53Z</time>
      </trkpt>
      <trkpt lat="43.80195" lon="6.51113">
        <ele>965</ele>
        <time>2020-07-04T23:48:57Z</time>
      </trkpt>
      <trkpt lat="43.80219" lon="6.5111">
        <ele>969</ele>
        <time>2020-07-04T23:49:02Z</time>
      </trkpt>
      <trkpt lat="43.80231" lon="6.51119">
        <ele>970</ele>
        <time>2020-07-04T23:49:04Z</time>
      </trkpt>
      <trkpt lat="43.80237" lon="6.51127">
        <ele>970</ele>
        <time>2020-07-04T23:49:06Z</time>
      </trkpt>
      <trkpt lat="43.80254" lon="6.5117">
        <ele>971</ele>
        <time>2020-07-04T23:49:12Z</time>
      </trkpt>
      <trkpt lat="43.80267" lon="6.51188">
        <ele>972</ele>
        <time>2020-07-04T23:49:15Z</time>
      </trkpt>
      <trkpt lat="43.80273" lon="6.51195">
        <ele>972</ele>
        <time>2020-07-04T23:49:17Z</time>
      </trkpt>
      <trkpt lat="43.8028" lon="6.51198">
        <ele>973</ele>
        <time>2020-07-04T23:49:18Z</time>
      </trkpt>
      <trkpt lat="43.80287" lon="6.51199">
        <ele>974</ele>
        <time>2020-07-04T23:49:19Z</time>
      </trkpt>
      <trkpt lat="43.80304" lon="6.51191">
        <ele>979</ele>
        <time>2020-07-04T23:49:22Z</time>
      </trkpt>
      <trkpt lat="43.80314" lon="6.5119">
        <ele>981</ele>
        <time>2020-07-04T23:49:24Z</time>
      </trkpt>
      <trkpt lat="43.80337" lon="6.512">
        <ele>983</ele>
        <time>2020-07-04T23:49:28Z</time>
      </trkpt>
      <trkpt lat="43.80344" lon="6.51206">
        <ele>983</ele>
        <time>2020-07-04T23:49:30Z</time>
      </trkpt>
      <trkpt lat="43.8036" lon="6.51223">
        <ele>983</ele>
        <time>2020-07-04T23:49:34Z</time>
      </trkpt>
      <trkpt lat="43.80367" lon="6.51224">
        <ele>984</ele>
        <time>2020-07-04T23:49:35Z</time>
      </trkpt>
      <trkpt lat="43.8037" lon="6.5122">
        <ele>985</ele>
        <time>2020-07-04T23:49:36Z</time>
      </trkpt>
      <trkpt lat="43.80371" lon="6.5121">
        <ele>988</ele>
        <time>2020-07-04T23:49:37Z</time>
      </trkpt>
      <trkpt lat="43.80367" lon="6.51206">
        <ele>988</ele>
        <time>2020-07-04T23:49:38Z</time>
      </trkpt>
      <trkpt lat="43.80341" lon="6.51187">
        <ele>986</ele>
        <time>2020-07-04T23:49:43Z</time>
      </trkpt>
      <trkpt lat="43.80328" lon="6.51174">
        <ele>986</ele>
        <time>2020-07-04T23:49:46Z</time>
      </trkpt>
      <trkpt lat="43.80323" lon="6.51165">
        <ele>987</ele>
        <time>2020-07-04T23:49:47Z</time>
      </trkpt>
      <trkpt lat="43.8031" lon="6.5113">
        <ele>989</ele>
        <time>2020-07-04T23:49:52Z</time>
      </trkpt>
      <trkpt lat="43.80299" lon="6.51074">
        <ele>991</ele>
        <time>2020-07-04T23:50:00Z</time>
      </trkpt>
      <trkpt lat="43.80305" lon="6.51022">
        <ele>994</ele>
        <time>2020-07-04T23:50:06Z</time>
      </trkpt>
      <trkpt lat="43.80309" lon="6.51011">
        <ele>996</ele>
        <time>2020-07-04T23:50:08Z</time>
      </trkpt>
      <trkpt lat="43.80332" lon="6.50981">
        <ele>1001</ele>
        <time>2020-07-04T23:50:14Z</time>
      </trkpt>
      <trkpt lat="43.80339" lon="6.5097">
        <ele>1002</ele>
        <time>2020-07-04T23:50:16Z</time>
      </trkpt>
      <trkpt lat="43.80352" lon="6.50932">
        <ele>1003</ele>
        <time>2020-07-04T23:50:21Z</time>
      </trkpt>
      <trkpt lat="43.80362" lon="6.50883">
        <ele>1000</ele>
        <time>2020-07-04T23:50:28Z</time>
      </trkpt>
      <trkpt lat="43.80374" lon="6.50857">
        <ele>1001</ele>
        <time>2020-07-04T23:50:31Z</time>
      </trkpt>
      <trkpt lat="43.80397" lon="6.50828">
        <ele>1006</ele>
        <time>2020-07-04T23:50:37Z</time>
      </trkpt>
      <trkpt lat="43.80408" lon="6.50799">
        <ele>1004</ele>
        <time>2020-07-04T23:50:41Z</time>
      </trkpt>
      <trkpt lat="43.80418" lon="6.50777">
        <ele>1003</ele>
        <time>2020-07-04T23:50:45Z</time>
      </trkpt>
      <trkpt lat="43.80433" lon="6.50755">
        <ele>1003</ele>
        <time>2020-07-04T23:50:48Z</time>
      </trkpt>
      <trkpt lat="43.8049" lon="6.50688">
        <ele>1005</ele>
        <time>2020-07-04T23:51:02Z</time>
      </trkpt>
      <trkpt lat="43.805" lon="6.50679">
        <ele>1006</ele>
        <time>2020-07-04T23:51:04Z</time>
      </trkpt>
      <trkpt lat="43.80513" lon="6.50675">
        <ele>1005</ele>
        <time>2020-07-04T23:51:06Z</time>
      </trkpt>
      <trkpt lat="43.80519" lon="6.50677">
        <ele>1006</ele>
        <time>2020-07-04T23:51:07Z</time>
      </trkpt>
      <trkpt lat="43.80524" lon="6.50682">
        <ele>1007</ele>
        <time>2020-07-04T23:51:08Z</time>
      </trkpt>
      <trkpt lat="43.80527" lon="6.5069">
        <ele>1009</ele>
        <time>2020-07-04T23:51:10Z</time>
      </trkpt>
      <trkpt lat="43.8053" lon="6.50713">
        <ele>1015</ele>
        <time>2020-07-04T23:51:13Z</time>
      </trkpt>
      <trkpt lat="43.80539" lon="6.50736">
        <ele>1021</ele>
        <time>2020-07-04T23:51:16Z</time>
      </trkpt>
      <trkpt lat="43.80545" lon="6.50747">
        <ele>1024</ele>
        <time>2020-07-04T23:51:18Z</time>
      </trkpt>
      <trkpt lat="43.80555" lon="6.50756">
        <ele>1026</ele>
        <time>2020-07-04T23:51:20Z</time>
      </trkpt>
      <trkpt lat="43.80568" lon="6.50755">
        <ele>1026</ele>
        <time>2020-07-04T23:51:22Z</time>
      </trkpt>
      <trkpt lat="43.80586" lon="6.5075">
        <ele>1025</ele>
        <time>2020-07-04T23:51:25Z</time>
      </trkpt>
      <trkpt lat="43.80623" lon="6.50735">
        <ele>1019</ele>
        <time>2020-07-04T23:51:32Z</time>
      </trkpt>
      <trkpt lat="43.80633" lon="6.50738">
        <ele>1020</ele>
        <time>2020-07-04T23:51:34Z</time>
      </trkpt>
      <trkpt lat="43.80645" lon="6.5075">
        <ele>1022</ele>
        <time>2020-07-04T23:51:37Z</time>
      </trkpt>
      <trkpt lat="43.8065" lon="6.50771">
        <ele>1024</ele>
        <time>2020-07-04T23:51:40Z</time>
      </trkpt>
      <trkpt lat="43.80653" lon="6.5081">
        <ele>1027</ele>
        <time>2020-07-04T23:51:45Z</time>
      </trkpt>
      <trkpt lat="43.80651" lon="6.50848">
        <ele>1032</ele>
        <time>2020-07-04T23:51:50Z</time>
      </trkpt>
      <trkpt lat="43.80656" lon="6.50878">
        <ele>1035</ele>
        <time>2020-07-04T23:51:53Z</time>
      </trkpt>
      <trkpt lat="43.80669" lon="6.5092">
        <ele>1038</ele>
        <time>2020-07-04T23:51:59Z</time>
      </trkpt>
      <trkpt lat="43.80682" lon="6.50968">
        <ele>1040</ele>
        <time>2020-07-04T23:52:06Z</time>
      </trkpt>
      <trkpt lat="43.80702" lon="6.51008">
        <ele>1040</ele>
        <time>2020-07-04T23:52:12Z</time>
      </trkpt>
      <trkpt lat="43.80714" lon="6.51034">
        <ele>1041</ele>
        <time>2020-07-04T23:52:16Z</time>
      </trkpt>
      <trkpt lat="43.80753" lon="6.51134">
        <ele>1048</ele>
        <time>2020-07-04T23:52:31Z</time>
      </trkpt>
      <trkpt lat="43.80767" lon="6.51147">
        <ele>1047</ele>
        <time>2020-07-04T23:52:34Z</time>
      </trkpt>
      <trkpt lat="43.80781" lon="6.51153">
        <ele>1046</ele>
        <time>2020-07-04T23:52:36Z</time>
      </trkpt>
      <trkpt lat="43.80787" lon="6.51157">
        <ele>1046</ele>
        <time>2020-07-04T23:52:38Z</time>
      </trkpt>
      <trkpt lat="43.80792" lon="6.51166">
        <ele>1046</ele>
        <time>2020-07-04T23:52:39Z</time>
      </trkpt>
      <trkpt lat="43.80807" lon="6.51201">
        <ele>1051</ele>
        <time>2020-07-04T23:52:44Z</time>
      </trkpt>
      <trkpt lat="43.80818" lon="6.51212">
        <ele>1053</ele>
        <time>2020-07-04T23:52:47Z</time>
      </trkpt>
      <trkpt lat="43.80832" lon="6.51217">
        <ele>1054</ele>
        <time>2020-07-04T23:52:49Z</time>
      </trkpt>
      <trkpt lat="43.80843" lon="6.51217">
        <ele>1053</ele>
        <time>2020-07-04T23:52:51Z</time>
      </trkpt>
      <trkpt lat="43.80885" lon="6.51206">
        <ele>1047</ele>
        <time>2020-07-04T23:52:59Z</time>
      </trkpt>
      <trkpt lat="43.80895" lon="6.51205">
        <ele>1045</ele>
        <time>2020-07-04T23:53:01Z</time>
      </trkpt>
      <trkpt lat="43.80905" lon="6.51208">
        <ele>1045</ele>
        <time>2020-07-04T23:53:02Z</time>
      </trkpt>
      <trkpt lat="43.80934" lon="6.51226">
        <ele>1048</ele>
        <time>2020-07-04T23:53:08Z</time>
      </trkpt>
      <trkpt lat="43.80956" lon="6.51234">
        <ele>1049</ele>
        <time>2020-07-04T23:53:12Z</time>
      </trkpt>
      <trkpt lat="43.80968" lon="6.51235">
        <ele>1049</ele>
        <time>2020-07-04T23:53:14Z</time>
      </trkpt>
      <trkpt lat="43.81037" lon="6.51223">
        <ele>1045</ele>
        <time>2020-07-04T23:53:27Z</time>
      </trkpt>
      <trkpt lat="43.81056" lon="6.51217">
        <ele>1043</ele>
        <time>2020-07-04T23:53:30Z</time>
      </trkpt>
      <trkpt lat="43.81072" lon="6.51206">
        <ele>1042</ele>
        <time>2020-07-04T23:53:33Z</time>
      </trkpt>
      <trkpt lat="43.81087" lon="6.51202">
        <ele>1041</ele>
        <time>2020-07-04T23:53:36Z</time>
      </trkpt>
      <trkpt lat="43.81124" lon="6.51203">
        <ele>1042</ele>
        <time>2020-07-04T23:53:43Z</time>
      </trkpt>
      <trkpt lat="43.8114" lon="6.51199">
        <ele>1042</ele>
        <time>2020-07-04T23:53:45Z</time>
      </trkpt>
      <trkpt lat="43.81149" lon="6.51194">
        <ele>1042</ele>
        <time>2020-07-04T23:53:47Z</time>
      </trkpt>
      <trkpt lat="43.81165" lon="6.51179">
        <ele>1043</ele>
        <time>2020-07-04T23:53:51Z</time>
      </trkpt>
      <trkpt lat="43.81173" lon="6.51168">
        <ele>1044</ele>
        <time>2020-07-04T23:53:53Z</time>
      </trkpt>
      <trkpt lat="43.8119" lon="6.51133">
        <ele>1043</ele>
        <time>2020-07-04T23:53:58Z</time>
      </trkpt>
      <trkpt lat="43.81199" lon="6.51119">
        <ele>1043</ele>
        <time>2020-07-04T23:54:00Z</time>
      </trkpt>
      <trkpt lat="43.81217" lon="6.51098">
        <ele>1043</ele>
        <time>2020-07-04T23:54:05Z</time>
      </trkpt>
      <trkpt lat="43.81249" lon="6.51068">
        <ele>1045</ele>
        <time>2020-07-04T23:54:11Z</time>
      </trkpt>
      <trkpt lat="43.81296" lon="6.51037">
        <ele>1043</ele>
        <time>2020-07-04T23:54:21Z</time>
      </trkpt>
      <trkpt lat="43.8131" lon="6.51021">
        <ele>1042</ele>
        <time>2020-07-04T23:54:24Z</time>
      </trkpt>
      <trkpt lat="43.81324" lon="6.51">
        <ele>1040</ele>
        <time>2020-07-04T23:54:28Z</time>
      </trkpt>
      <trkpt lat="43.81344" lon="6.50989">
        <ele>1040</ele>
        <time>2020-07-04T23:54:31Z</time>
      </trkpt>
      <trkpt lat="43.81357" lon="6.50987">
        <ele>1039</ele>
        <time>2020-07-04T23:54:34Z</time>
      </trkpt>
      <trkpt lat="43.8138" lon="6.50994">
        <ele>1036</ele>
        <time>2020-07-04T23:54:38Z</time>
      </trkpt>
      <trkpt lat="43.81398" lon="6.50993">
        <ele>1035</ele>
        <time>2020-07-04T23:54:41Z</time>
      </trkpt>
      <trkpt lat="43.81417" lon="6.50982">
        <ele>1033</ele>
        <time>2020-07-04T23:54:45Z</time>
      </trkpt>
      <trkpt lat="43.8143" lon="6.50967">
        <ele>1032</ele>
        <time>2020-07-04T23:54:48Z</time>
      </trkpt>
      <trkpt lat="43.81434" lon="6.50955">
        <ele>1031</ele>
        <time>2020-07-04T23:54:50Z</time>
      </trkpt>
      <trkpt lat="43.81435" lon="6.50942">
        <ele>1032</ele>
        <time>2020-07-04T23:54:51Z</time>
      </trkpt>
      <trkpt lat="43.81435" lon="6.50928">
        <ele>1032</ele>
        <time>2020-07-04T23:54:53Z</time>
      </trkpt>
      <trkpt lat="43.81433" lon="6.50912">
        <ele>1032</ele>
        <time>2020-07-04T23:54:55Z</time>
      </trkpt>
      <trkpt lat="43.81421" lon="6.50861">
        <ele>1031</ele>
        <time>2020-07-04T23:55:02Z</time>
      </trkpt>
      <trkpt lat="43.81417" lon="6.50824">
        <ele>1030</ele>
        <time>2020-07-04T23:55:07Z</time>
      </trkpt>
      <trkpt lat="43.81416" lon="6.5072">
        <ele>1028</ele>
        <time>2020-07-04T23:55:20Z</time>
      </trkpt>
      <trkpt lat="43.81432" lon="6.5063">
        <ele>1024</ele>
        <time>2020-07-04T23:55:32Z</time>
      </trkpt>
      <trkpt lat="43.81444" lon="6.50509">
        <ele>1021</ele>
        <time>2020-07-04T23:55:48Z</time>
      </trkpt>
      <trkpt lat="43.81452" lon="6.50458">
        <ele>1018</ele>
        <time>2020-07-04T23:55:54Z</time>
      </trkpt>
      <trkpt lat="43.81459" lon="6.5043">
        <ele>1016</ele>
        <time>2020-07-04T23:55:58Z</time>
      </trkpt>
      <trkpt lat="43.8148" lon="6.50376">
        <ele>1011</ele>
        <time>2020-07-04T23:56:06Z</time>
      </trkpt>
      <trkpt lat="43.8149" lon="6.50356">
        <ele>1009</ele>
        <time>2020-07-04T23:56:09Z</time>
      </trkpt>
      <trkpt lat="43.815" lon="6.50343">
        <ele>1007</ele>
        <time>2020-07-04T23:56:12Z</time>
      </trkpt>
      <trkpt lat="43.81504" lon="6.50343">
        <ele>1007</ele>
        <time>2020-07-04T23:56:12Z</time>
      </trkpt>
      <trkpt lat="43.81508" lon="6.50347">
        <ele>1006</ele>
        <time>2020-07-04T23:56:13Z</time>
      </trkpt>
      <trkpt lat="43.81508" lon="6.50354">
        <ele>1005</ele>
        <time>2020-07-04T23:56:14Z</time>
      </trkpt>
      <trkpt lat="43.81506" lon="6.50361">
        <ele>1005</ele>
        <time>2020-07-04T23:56:15Z</time>
      </trkpt>
      <trkpt lat="43.81493" lon="6.50383">
        <ele>1006</ele>
        <time>2020-07-04T23:56:19Z</time>
      </trkpt>
      <trkpt lat="43.8149" lon="6.50393">
        <ele>1006</ele>
        <time>2020-07-04T23:56:20Z</time>
      </trkpt>
      <trkpt lat="43.81486" lon="6.50419">
        <ele>1005</ele>
        <time>2020-07-04T23:56:24Z</time>
      </trkpt>
      <trkpt lat="43.81486" lon="6.50431">
        <ele>1006</ele>
        <time>2020-07-04T23:56:25Z</time>
      </trkpt>
      <trkpt lat="43.81492" lon="6.50453">
        <ele>1005</ele>
        <time>2020-07-04T23:56:28Z</time>
      </trkpt>
      <trkpt lat="43.81502" lon="6.50475">
        <ele>1003</ele>
        <time>2020-07-04T23:56:31Z</time>
      </trkpt>
      <trkpt lat="43.81517" lon="6.50497">
        <ele>1002</ele>
        <time>2020-07-04T23:56:35Z</time>
      </trkpt>
      <trkpt lat="43.81544" lon="6.50527">
        <ele>996</ele>
        <time>2020-07-04T23:56:42Z</time>
      </trkpt>
      <trkpt lat="43.8155" lon="6.50548">
        <ele>994</ele>
        <time>2020-07-04T23:56:44Z</time>
      </trkpt>
      <trkpt lat="43.81551" lon="6.50569">
        <ele>993</ele>
        <time>2020-07-04T23:56:47Z</time>
      </trkpt>
      <trkpt lat="43.81551" lon="6.50633">
        <ele>990</ele>
        <time>2020-07-04T23:56:55Z</time>
      </trkpt>
      <trkpt lat="43.81548" lon="6.5066">
        <ele>989</ele>
        <time>2020-07-04T23:56:59Z</time>
      </trkpt>
      <trkpt lat="43.81536" lon="6.50706">
        <ele>992</ele>
        <time>2020-07-04T23:57:05Z</time>
      </trkpt>
      <trkpt lat="43.81536" lon="6.50716">
        <ele>991</ele>
        <time>2020-07-04T23:57:06Z</time>
      </trkpt>
      <trkpt lat="43.81539" lon="6.50724">
        <ele>990</ele>
        <time>2020-07-04T23:57:08Z</time>
      </trkpt>
      <trkpt lat="43.81574" lon="6.50758">
        <ele>979</ele>
        <time>2020-07-04T23:57:15Z</time>
      </trkpt>
      <trkpt lat="43.81595" lon="6.5079">
        <ele>979</ele>
        <time>2020-07-04T23:57:21Z</time>
      </trkpt>
      <trkpt lat="43.81645" lon="6.50895">
        <ele>969</ele>
        <time>2020-07-04T23:57:37Z</time>
      </trkpt>
      <trkpt lat="43.81648" lon="6.50903">
        <ele>968</ele>
        <time>2020-07-04T23:57:38Z</time>
      </trkpt>
      <trkpt lat="43.81654" lon="6.50932">
        <ele>964</ele>
        <time>2020-07-04T23:57:42Z</time>
      </trkpt>
      <trkpt lat="43.8166" lon="6.50938">
        <ele>960</ele>
        <time>2020-07-04T23:57:43Z</time>
      </trkpt>
      <trkpt lat="43.81663" lon="6.50937">
        <ele>959</ele>
        <time>2020-07-04T23:57:44Z</time>
      </trkpt>
      <trkpt lat="43.81667" lon="6.50931">
        <ele>958</ele>
        <time>2020-07-04T23:57:45Z</time>
      </trkpt>
      <trkpt lat="43.81667" lon="6.50922">
        <ele>958</ele>
        <time>2020-07-04T23:57:46Z</time>
      </trkpt>
      <trkpt lat="43.81664" lon="6.50906">
        <ele>960</ele>
        <time>2020-07-04T23:57:48Z</time>
      </trkpt>
      <trkpt lat="43.8165" lon="6.5086">
        <ele>965</ele>
        <time>2020-07-04T23:57:55Z</time>
      </trkpt>
      <trkpt lat="43.81643" lon="6.50829">
        <ele>967</ele>
        <time>2020-07-04T23:57:59Z</time>
      </trkpt>
      <trkpt lat="43.81637" lon="6.50796">
        <ele>969</ele>
        <time>2020-07-04T23:58:03Z</time>
      </trkpt>
      <trkpt lat="43.81621" lon="6.50754">
        <ele>972</ele>
        <time>2020-07-04T23:58:09Z</time>
      </trkpt>
      <trkpt lat="43.81622" lon="6.50745">
        <ele>972</ele>
        <time>2020-07-04T23:58:10Z</time>
      </trkpt>
      <trkpt lat="43.81624" lon="6.50739">
        <ele>972</ele>
        <time>2020-07-04T23:58:11Z</time>
      </trkpt>
      <trkpt lat="43.81628" lon="6.50737">
        <ele>972</ele>
        <time>2020-07-04T23:58:12Z</time>
      </trkpt>
      <trkpt lat="43.81636" lon="6.50739">
        <ele>971</ele>
        <time>2020-07-04T23:58:13Z</time>
      </trkpt>
      <trkpt lat="43.81641" lon="6.50744">
        <ele>970</ele>
        <time>2020-07-04T23:58:14Z</time>
      </trkpt>
      <trkpt lat="43.81663" lon="6.5077">
        <ele>965</ele>
        <time>2020-07-04T23:58:20Z</time>
      </trkpt>
      <trkpt lat="43.81681" lon="6.50796">
        <ele>961</ele>
        <time>2020-07-04T23:58:24Z</time>
      </trkpt>
      <trkpt lat="43.81705" lon="6.5084">
        <ele>955</ele>
        <time>2020-07-04T23:58:31Z</time>
      </trkpt>
      <trkpt lat="43.81724" lon="6.50893">
        <ele>946</ele>
        <time>2020-07-04T23:58:39Z</time>
      </trkpt>
      <trkpt lat="43.8173" lon="6.50903">
        <ele>944</ele>
        <time>2020-07-04T23:58:41Z</time>
      </trkpt>
      <trkpt lat="43.81737" lon="6.5091">
        <ele>941</ele>
        <time>2020-07-04T23:58:42Z</time>
      </trkpt>
      <trkpt lat="43.81744" lon="6.50912">
        <ele>939</ele>
        <time>2020-07-04T23:58:43Z</time>
      </trkpt>
      <trkpt lat="43.81751" lon="6.5091">
        <ele>937</ele>
        <time>2020-07-04T23:58:45Z</time>
      </trkpt>
      <trkpt lat="43.81766" lon="6.50897">
        <ele>938</ele>
        <time>2020-07-04T23:58:48Z</time>
      </trkpt>
      <trkpt lat="43.81789" lon="6.50864">
        <ele>941</ele>
        <time>2020-07-04T23:58:54Z</time>
      </trkpt>
      <trkpt lat="43.81797" lon="6.50856">
        <ele>941</ele>
        <time>2020-07-04T23:58:55Z</time>
      </trkpt>
      <trkpt lat="43.81806" lon="6.50852">
        <ele>940</ele>
        <time>2020-07-04T23:58:57Z</time>
      </trkpt>
      <trkpt lat="43.81836" lon="6.50848">
        <ele>936</ele>
        <time>2020-07-04T23:59:03Z</time>
      </trkpt>
      <trkpt lat="43.81859" lon="6.5083">
        <ele>939</ele>
        <time>2020-07-04T23:59:07Z</time>
      </trkpt>
      <trkpt lat="43.81868" lon="6.50827">
        <ele>939</ele>
        <time>2020-07-04T23:59:09Z</time>
      </trkpt>
      <trkpt lat="43.81876" lon="6.50828">
        <ele>939</ele>
        <time>2020-07-04T23:59:10Z</time>
      </trkpt>
      <trkpt lat="43.81883" lon="6.50832">
        <ele>938</ele>
        <time>2020-07-04T23:59:12Z</time>
      </trkpt>
      <trkpt lat="43.81911" lon="6.50881">
        <ele>929</ele>
        <time>2020-07-04T23:59:20Z</time>
      </trkpt>
      <trkpt lat="43.8192" lon="6.50888">
        <ele>928</ele>
        <time>2020-07-04T23:59:21Z</time>
      </trkpt>
      <trkpt lat="43.81936" lon="6.50889">
        <ele>927</ele>
        <time>2020-07-04T23:59:24Z</time>
      </trkpt>
      <trkpt lat="43.81968" lon="6.5088">
        <ele>928</ele>
        <time>2020-07-04T23:59:30Z</time>
      </trkpt>
      <trkpt lat="43.81978" lon="6.50875">
        <ele>929</ele>
        <time>2020-07-04T23:59:32Z</time>
      </trkpt>
      <trkpt lat="43.82009" lon="6.50841">
        <ele>930</ele>
        <time>2020-07-04T23:59:39Z</time>
      </trkpt>
      <trkpt lat="43.82024" lon="6.50825">
        <ele>929</ele>
        <time>2020-07-04T23:59:42Z</time>
      </trkpt>
      <trkpt lat="43.82034" lon="6.50819">
        <ele>929</ele>
        <time>2020-07-04T23:59:44Z</time>
      </trkpt>
      <trkpt lat="43.82043" lon="6.50814">
        <ele>928</ele>
        <time>2020-07-04T23:59:46Z</time>
      </trkpt>
      <trkpt lat="43.82059" lon="6.50816">
        <ele>924</ele>
        <time>2020-07-04T23:59:49Z</time>
      </trkpt>
      <trkpt lat="43.82077" lon="6.50816">
        <ele>920</ele>
        <time>2020-07-04T23:59:52Z</time>
      </trkpt>
      <trkpt lat="43.82088" lon="6.50811">
        <ele>919</ele>
        <time>2020-07-04T23:59:54Z</time>
      </trkpt>
      <trkpt lat="43.82096" lon="6.50798">
        <ele>920</ele>
        <time>2020-07-04T23:59:56Z</time>
      </trkpt>
      <trkpt lat="43.82104" lon="6.50775">
        <ele>922</ele>
        <time>2020-07-05T00:00:00Z</time>
      </trkpt>
      <trkpt lat="43.82119" lon="6.5072">
        <ele>921</ele>
        <time>2020-07-05T00:00:07Z</time>
      </trkpt>
      <trkpt lat="43.82131" lon="6.50701">
        <ele>918</ele>
        <time>2020-07-05T00:00:10Z</time>
      </trkpt>
      <trkpt lat="43.82142" lon="6.5068">
        <ele>915</ele>
        <time>2020-07-05T00:00:14Z</time>
      </trkpt>
      <trkpt lat="43.82145" lon="6.5066">
        <ele>915</ele>
        <time>2020-07-05T00:00:16Z</time>
      </trkpt>
      <trkpt lat="43.8215" lon="6.50644">
        <ele>916</ele>
        <time>2020-07-05T00:00:19Z</time>
      </trkpt>
      <trkpt lat="43.82155" lon="6.50638">
        <ele>915</ele>
        <time>2020-07-05T00:00:20Z</time>
      </trkpt>
      <trkpt lat="43.82175" lon="6.50631">
        <ele>914</ele>
        <time>2020-07-05T00:00:24Z</time>
      </trkpt>
      <trkpt lat="43.82216" lon="6.50625">
        <ele>912</ele>
        <time>2020-07-05T00:00:31Z</time>
      </trkpt>
      <trkpt lat="43.82271" lon="6.50593">
        <ele>907</ele>
        <time>2020-07-05T00:00:41Z</time>
      </trkpt>
      <trkpt lat="43.82275" lon="6.50585">
        <ele>907</ele>
        <time>2020-07-05T00:00:43Z</time>
      </trkpt>
      <trkpt lat="43.82278" lon="6.50576">
        <ele>907</ele>
        <time>2020-07-05T00:00:44Z</time>
      </trkpt>
      <trkpt lat="43.82279" lon="6.50559">
        <ele>908</ele>
        <time>2020-07-05T00:00:46Z</time>
      </trkpt>
      <trkpt lat="43.82283" lon="6.50541">
        <ele>909</ele>
        <time>2020-07-05T00:00:49Z</time>
      </trkpt>
      <trkpt lat="43.82289" lon="6.5053">
        <ele>909</ele>
        <time>2020-07-05T00:00:50Z</time>
      </trkpt>
      <trkpt lat="43.82298" lon="6.5052">
        <ele>907</ele>
        <time>2020-07-05T00:00:52Z</time>
      </trkpt>
      <trkpt lat="43.82333" lon="6.50496">
        <ele>900</ele>
        <time>2020-07-05T00:00:59Z</time>
      </trkpt>
      <trkpt lat="43.82374" lon="6.50452">
        <ele>910</ele>
        <time>2020-07-05T00:01:09Z</time>
      </trkpt>
      <trkpt lat="43.82381" lon="6.50449">
        <ele>909</ele>
        <time>2020-07-05T00:01:10Z</time>
      </trkpt>
      <trkpt lat="43.82386" lon="6.5045">
        <ele>909</ele>
        <time>2020-07-05T00:01:11Z</time>
      </trkpt>
      <trkpt lat="43.8241" lon="6.50472">
        <ele>903</ele>
        <time>2020-07-05T00:01:16Z</time>
      </trkpt>
      <trkpt lat="43.82421" lon="6.50473">
        <ele>903</ele>
        <time>2020-07-05T00:01:18Z</time>
      </trkpt>
      <trkpt lat="43.82426" lon="6.50468">
        <ele>903</ele>
        <time>2020-07-05T00:01:19Z</time>
      </trkpt>
      <trkpt lat="43.82437" lon="6.50454">
        <ele>903</ele>
        <time>2020-07-05T00:01:22Z</time>
      </trkpt>
      <trkpt lat="43.82441" lon="6.50446">
        <ele>903</ele>
        <time>2020-07-05T00:01:23Z</time>
      </trkpt>
      <trkpt lat="43.82463" lon="6.50413">
        <ele>899</ele>
        <time>2020-07-05T00:01:29Z</time>
      </trkpt>
      <trkpt lat="43.82474" lon="6.50385">
        <ele>903</ele>
        <time>2020-07-05T00:01:33Z</time>
      </trkpt>
      <trkpt lat="43.8248" lon="6.50374">
        <ele>904</ele>
        <time>2020-07-05T00:01:35Z</time>
      </trkpt>
      <trkpt lat="43.82486" lon="6.50369">
        <ele>903</ele>
        <time>2020-07-05T00:01:36Z</time>
      </trkpt>
      <trkpt lat="43.82493" lon="6.50368">
        <ele>901</ele>
        <time>2020-07-05T00:01:37Z</time>
      </trkpt>
      <trkpt lat="43.82516" lon="6.50368">
        <ele>898</ele>
        <time>2020-07-05T00:01:41Z</time>
      </trkpt>
      <trkpt lat="43.82554" lon="6.50371">
        <ele>896</ele>
        <time>2020-07-05T00:01:48Z</time>
      </trkpt>
      <trkpt lat="43.82564" lon="6.50375">
        <ele>895</ele>
        <time>2020-07-05T00:01:50Z</time>
      </trkpt>
      <trkpt lat="43.82574" lon="6.50385">
        <ele>892</ele>
        <time>2020-07-05T00:01:52Z</time>
      </trkpt>
      <trkpt lat="43.82588" lon="6.50408">
        <ele>885</ele>
        <time>2020-07-05T00:01:56Z</time>
      </trkpt>
      <trkpt lat="43.82597" lon="6.50416">
        <ele>883</ele>
        <time>2020-07-05T00:01:58Z</time>
      </trkpt>
      <trkpt lat="43.82605" lon="6.50416">
        <ele>883</ele>
        <time>2020-07-05T00:01:59Z</time>
      </trkpt>
      <trkpt lat="43.82617" lon="6.50404">
        <ele>885</ele>
        <time>2020-07-05T00:02:02Z</time>
      </trkpt>
      <trkpt lat="43.82632" lon="6.50398">
        <ele>886</ele>
        <time>2020-07-05T00:02:05Z</time>
      </trkpt>
      <trkpt lat="43.82665" lon="6.504">
        <ele>884</ele>
        <time>2020-07-05T00:02:10Z</time>
      </trkpt>
      <trkpt lat="43.82676" lon="6.50396">
        <ele>884</ele>
        <time>2020-07-05T00:02:12Z</time>
      </trkpt>
      <trkpt lat="43.82713" lon="6.50372">
        <ele>882</ele>
        <time>2020-07-05T00:02:20Z</time>
      </trkpt>
      <trkpt lat="43.82747" lon="6.50365">
        <ele>876</ele>
        <time>2020-07-05T00:02:26Z</time>
      </trkpt>
      <trkpt lat="43.82798" lon="6.50344">
        <ele>868</ele>
        <time>2020-07-05T00:02:35Z</time>
      </trkpt>
      <trkpt lat="43.82811" lon="6.50336">
        <ele>865</ele>
        <time>2020-07-05T00:02:38Z</time>
      </trkpt>
      <trkpt lat="43.82843" lon="6.50303">
        <ele>868</ele>
        <time>2020-07-05T00:02:45Z</time>
      </trkpt>
      <trkpt lat="43.82851" lon="6.50297">
        <ele>869</ele>
        <time>2020-07-05T00:02:47Z</time>
      </trkpt>
      <trkpt lat="43.82888" lon="6.50286">
        <ele>865</ele>
        <time>2020-07-05T00:02:53Z</time>
      </trkpt>
      <trkpt lat="43.82899" lon="6.50272">
        <ele>866</ele>
        <time>2020-07-05T00:02:56Z</time>
      </trkpt>
      <trkpt lat="43.82904" lon="6.50272">
        <ele>864</ele>
        <time>2020-07-05T00:02:57Z</time>
      </trkpt>
      <trkpt lat="43.82909" lon="6.50277">
        <ele>862</ele>
        <time>2020-07-05T00:02:58Z</time>
      </trkpt>
      <trkpt lat="43.82911" lon="6.50283">
        <ele>861</ele>
        <time>2020-07-05T00:02:59Z</time>
      </trkpt>
      <trkpt lat="43.82909" lon="6.50291">
        <ele>860</ele>
        <time>2020-07-05T00:03:00Z</time>
      </trkpt>
      <trkpt lat="43.82901" lon="6.50296">
        <ele>861</ele>
        <time>2020-07-05T00:03:01Z</time>
      </trkpt>
      <trkpt lat="43.82894" lon="6.50297">
        <ele>862</ele>
        <time>2020-07-05T00:03:03Z</time>
      </trkpt>
      <trkpt lat="43.8285" lon="6.50313">
        <ele>864</ele>
        <time>2020-07-05T00:03:11Z</time>
      </trkpt>
      <trkpt lat="43.82846" lon="6.50321">
        <ele>862</ele>
        <time>2020-07-05T00:03:12Z</time>
      </trkpt>
      <trkpt lat="43.82847" lon="6.50327">
        <ele>860</ele>
        <time>2020-07-05T00:03:13Z</time>
      </trkpt>
      <trkpt lat="43.8285" lon="6.50336">
        <ele>859</ele>
        <time>2020-07-05T00:03:14Z</time>
      </trkpt>
      <trkpt lat="43.82857" lon="6.50342">
        <ele>860</ele>
        <time>2020-07-05T00:03:16Z</time>
      </trkpt>
      <trkpt lat="43.82865" lon="6.50344">
        <ele>861</ele>
        <time>2020-07-05T00:03:17Z</time>
      </trkpt>
      <trkpt lat="43.82895" lon="6.50334">
        <ele>856</ele>
        <time>2020-07-05T00:03:22Z</time>
      </trkpt>
      <trkpt lat="43.82918" lon="6.5033">
        <ele>855</ele>
        <time>2020-07-05T00:03:27Z</time>
      </trkpt>
      <trkpt lat="43.8293" lon="6.50325">
        <ele>857</ele>
        <time>2020-07-05T00:03:29Z</time>
      </trkpt>
      <trkpt lat="43.8294" lon="6.50313">
        <ele>858</ele>
        <time>2020-07-05T00:03:31Z</time>
      </trkpt>
      <trkpt lat="43.82943" lon="6.50304">
        <ele>859</ele>
        <time>2020-07-05T00:03:32Z</time>
      </trkpt>
      <trkpt lat="43.82945" lon="6.50293">
        <ele>860</ele>
        <time>2020-07-05T00:03:34Z</time>
      </trkpt>
      <trkpt lat="43.82942" lon="6.50261">
        <ele>862</ele>
        <time>2020-07-05T00:03:38Z</time>
      </trkpt>
      <trkpt lat="43.82944" lon="6.50257">
        <ele>862</ele>
        <time>2020-07-05T00:03:39Z</time>
      </trkpt>
      <trkpt lat="43.82948" lon="6.50255">
        <ele>862</ele>
        <time>2020-07-05T00:03:39Z</time>
      </trkpt>
      <trkpt lat="43.8297" lon="6.50261">
        <ele>861</ele>
        <time>2020-07-05T00:03:43Z</time>
      </trkpt>
      <trkpt lat="43.8299" lon="6.50271">
        <ele>861</ele>
        <time>2020-07-05T00:03:47Z</time>
      </trkpt>
      <trkpt lat="43.8302" lon="6.50294">
        <ele>858</ele>
        <time>2020-07-05T00:03:53Z</time>
      </trkpt>
      <trkpt lat="43.83035" lon="6.50301">
        <ele>856</ele>
        <time>2020-07-05T00:03:56Z</time>
      </trkpt>
      <trkpt lat="43.83047" lon="6.50303">
        <ele>853</ele>
        <time>2020-07-05T00:03:58Z</time>
      </trkpt>
      <trkpt lat="43.83073" lon="6.5032">
        <ele>849</ele>
        <time>2020-07-05T00:04:03Z</time>
      </trkpt>
      <trkpt lat="43.8309" lon="6.50326">
        <ele>845</ele>
        <time>2020-07-05T00:04:06Z</time>
      </trkpt>
      <trkpt lat="43.83139" lon="6.50338">
        <ele>825</ele>
        <time>2020-07-05T00:04:15Z</time>
      </trkpt>
      <trkpt lat="43.83159" lon="6.50354">
        <ele>821</ele>
        <time>2020-07-05T00:04:19Z</time>
      </trkpt>
      <trkpt lat="43.83164" lon="6.50356">
        <ele>819</ele>
        <time>2020-07-05T00:04:20Z</time>
      </trkpt>
      <trkpt lat="43.8317" lon="6.50354">
        <ele>817</ele>
        <time>2020-07-05T00:04:21Z</time>
      </trkpt>
      <trkpt lat="43.83186" lon="6.50341">
        <ele>811</ele>
        <time>2020-07-05T00:04:25Z</time>
      </trkpt>
      <trkpt lat="43.83192" lon="6.50341">
        <ele>810</ele>
        <time>2020-07-05T00:04:26Z</time>
      </trkpt>
      <trkpt lat="43.83202" lon="6.50351">
        <ele>811</ele>
        <time>2020-07-05T00:04:28Z</time>
      </trkpt>
      <trkpt lat="43.83215" lon="6.50374">
        <ele>815</ele>
        <time>2020-07-05T00:04:32Z</time>
      </trkpt>
      <trkpt lat="43.83235" lon="6.50394">
        <ele>817</ele>
        <time>2020-07-05T00:04:36Z</time>
      </trkpt>
      <trkpt lat="43.83244" lon="6.50399">
        <ele>817</ele>
        <time>2020-07-05T00:04:38Z</time>
      </trkpt>
      <trkpt lat="43.83278" lon="6.50413">
        <ele>817</ele>
        <time>2020-07-05T00:04:44Z</time>
      </trkpt>
      <trkpt lat="43.83299" lon="6.50426">
        <ele>819</ele>
        <time>2020-07-05T00:04:48Z</time>
      </trkpt>
      <trkpt lat="43.83304" lon="6.50426">
        <ele>818</ele>
        <time>2020-07-05T00:04:49Z</time>
      </trkpt>
      <trkpt lat="43.83309" lon="6.50423">
        <ele>816</ele>
        <time>2020-07-05T00:04:50Z</time>
      </trkpt>
      <trkpt lat="43.83338" lon="6.50388">
        <ele>806</ele>
        <time>2020-07-05T00:04:57Z</time>
      </trkpt>
      <trkpt lat="43.83349" lon="6.50359">
        <ele>804</ele>
        <time>2020-07-05T00:05:01Z</time>
      </trkpt>
      <trkpt lat="43.83353" lon="6.50345">
        <ele>803</ele>
        <time>2020-07-05T00:05:03Z</time>
      </trkpt>
      <trkpt lat="43.83355" lon="6.50329">
        <ele>801</ele>
        <time>2020-07-05T00:05:05Z</time>
      </trkpt>
      <trkpt lat="43.83354" lon="6.50322">
        <ele>801</ele>
        <time>2020-07-05T00:05:06Z</time>
      </trkpt>
      <trkpt lat="43.83342" lon="6.50276">
        <ele>795</ele>
        <time>2020-07-05T00:05:12Z</time>
      </trkpt>
      <trkpt lat="43.83341" lon="6.50245">
        <ele>795</ele>
        <time>2020-07-05T00:05:16Z</time>
      </trkpt>
      <trkpt lat="43.83337" lon="6.50228">
        <ele>794</ele>
        <time>2020-07-05T00:05:19Z</time>
      </trkpt>
      <trkpt lat="43.83333" lon="6.50217">
        <ele>793</ele>
        <time>2020-07-05T00:05:20Z</time>
      </trkpt>
      <trkpt lat="43.83318" lon="6.50196">
        <ele>794</ele>
        <time>2020-07-05T00:05:24Z</time>
      </trkpt>
      <trkpt lat="43.83305" lon="6.50152">
        <ele>792</ele>
        <time>2020-07-05T00:05:30Z</time>
      </trkpt>
      <trkpt lat="43.83306" lon="6.50138">
        <ele>790</ele>
        <time>2020-07-05T00:05:32Z</time>
      </trkpt>
      <trkpt lat="43.83311" lon="6.50127">
        <ele>788</ele>
        <time>2020-07-05T00:05:34Z</time>
      </trkpt>
      <trkpt lat="43.83343" lon="6.50095">
        <ele>779</ele>
        <time>2020-07-05T00:05:41Z</time>
      </trkpt>
      <trkpt lat="43.83348" lon="6.50086">
        <ele>777</ele>
        <time>2020-07-05T00:05:42Z</time>
      </trkpt>
      <trkpt lat="43.83371" lon="6.50049">
        <ele>771</ele>
        <time>2020-07-05T00:05:48Z</time>
      </trkpt>
      <trkpt lat="43.83386" lon="6.50009">
        <ele>762</ele>
        <time>2020-07-05T00:05:54Z</time>
      </trkpt>
      <trkpt lat="43.83392" lon="6.49998">
        <ele>759</ele>
        <time>2020-07-05T00:05:56Z</time>
      </trkpt>
      <trkpt lat="43.83401" lon="6.49996">
        <ele>759</ele>
        <time>2020-07-05T00:05:58Z</time>
      </trkpt>
      <trkpt lat="43.83438" lon="6.5002">
        <ele>759</ele>
        <time>2020-07-05T00:06:05Z</time>
      </trkpt>
      <trkpt lat="43.83489" lon="6.50095">
        <ele>765</ele>
        <time>2020-07-05T00:06:18Z</time>
      </trkpt>
      <trkpt lat="43.83497" lon="6.50114">
        <ele>770</ele>
        <time>2020-07-05T00:06:21Z</time>
      </trkpt>
      <trkpt lat="43.83507" lon="6.50119">
        <ele>770</ele>
        <time>2020-07-05T00:06:23Z</time>
      </trkpt>
      <trkpt lat="43.83514" lon="6.50119">
        <ele>770</ele>
        <time>2020-07-05T00:06:24Z</time>
      </trkpt>
      <trkpt lat="43.83529" lon="6.50111">
        <ele>767</ele>
        <time>2020-07-05T00:06:27Z</time>
      </trkpt>
      <trkpt lat="43.83563" lon="6.50078">
        <ele>756</ele>
        <time>2020-07-05T00:06:34Z</time>
      </trkpt>
      <trkpt lat="43.83593" lon="6.50064">
        <ele>753</ele>
        <time>2020-07-05T00:06:40Z</time>
      </trkpt>
      <trkpt lat="43.83602" lon="6.50051">
        <ele>751</ele>
        <time>2020-07-05T00:06:42Z</time>
      </trkpt>
      <trkpt lat="43.83607" lon="6.50036">
        <ele>748</ele>
        <time>2020-07-05T00:06:44Z</time>
      </trkpt>
      <trkpt lat="43.83612" lon="6.50027">
        <ele>747</ele>
        <time>2020-07-05T00:06:46Z</time>
      </trkpt>
      <trkpt lat="43.83615" lon="6.50023">
        <ele>746</ele>
        <time>2020-07-05T00:06:47Z</time>
      </trkpt>
      <trkpt lat="43.83623" lon="6.50022">
        <ele>747</ele>
        <time>2020-07-05T00:06:48Z</time>
      </trkpt>
      <trkpt lat="43.83629" lon="6.50022">
        <ele>747</ele>
        <time>2020-07-05T00:06:49Z</time>
      </trkpt>
      <trkpt lat="43.83654" lon="6.50031">
        <ele>751</ele>
        <time>2020-07-05T00:06:54Z</time>
      </trkpt>
      <trkpt lat="43.83661" lon="6.50031">
        <ele>752</ele>
        <time>2020-07-05T00:06:55Z</time>
      </trkpt>
      <trkpt lat="43.83716" lon="6.50014">
        <ele>745</ele>
        <time>2020-07-05T00:07:05Z</time>
      </trkpt>
      <trkpt lat="43.83731" lon="6.50012">
        <ele>743</ele>
        <time>2020-07-05T00:07:08Z</time>
      </trkpt>
      <trkpt lat="43.83738" lon="6.50014">
        <ele>743</ele>
        <time>2020-07-05T00:07:09Z</time>
      </trkpt>
      <trkpt lat="43.83751" lon="6.50022">
        <ele>743</ele>
        <time>2020-07-05T00:07:11Z</time>
      </trkpt>
      <trkpt lat="43.83757" lon="6.50027">
        <ele>743</ele>
        <time>2020-07-05T00:07:13Z</time>
      </trkpt>
      <trkpt lat="43.83762" lon="6.50034">
        <ele>743</ele>
        <time>2020-07-05T00:07:14Z</time>
      </trkpt>
      <trkpt lat="43.83772" lon="6.50057">
        <ele>747</ele>
        <time>2020-07-05T00:07:17Z</time>
      </trkpt>
      <trkpt lat="43.83776" lon="6.50064">
        <ele>748</ele>
        <time>2020-07-05T00:07:18Z</time>
      </trkpt>
      <trkpt lat="43.83783" lon="6.50068">
        <ele>748</ele>
        <time>2020-07-05T00:07:20Z</time>
      </trkpt>
      <trkpt lat="43.83787" lon="6.50069">
        <ele>747</ele>
        <time>2020-07-05T00:07:21Z</time>
      </trkpt>
      <trkpt lat="43.83796" lon="6.50067">
        <ele>746</ele>
        <time>2020-07-05T00:07:22Z</time>
      </trkpt>
      <trkpt lat="43.83823" lon="6.50061">
        <ele>742</ele>
        <time>2020-07-05T00:07:27Z</time>
      </trkpt>
      <trkpt lat="43.83832" lon="6.50057">
        <ele>740</ele>
        <time>2020-07-05T00:07:29Z</time>
      </trkpt>
      <trkpt lat="43.83861" lon="6.50038">
        <ele>730</ele>
        <time>2020-07-05T00:07:34Z</time>
      </trkpt>
      <trkpt lat="43.83871" lon="6.50041">
        <ele>729</ele>
        <time>2020-07-05T00:07:36Z</time>
      </trkpt>
      <trkpt lat="43.83879" lon="6.50049">
        <ele>729</ele>
        <time>2020-07-05T00:07:38Z</time>
      </trkpt>
      <trkpt lat="43.83913" lon="6.50121">
        <ele>731</ele>
        <time>2020-07-05T00:07:49Z</time>
      </trkpt>
      <trkpt lat="43.83918" lon="6.50141">
        <ele>731</ele>
        <time>2020-07-05T00:07:52Z</time>
      </trkpt>
      <trkpt lat="43.83917" lon="6.50155">
        <ele>733</ele>
        <time>2020-07-05T00:07:54Z</time>
      </trkpt>
      <trkpt lat="43.83902" lon="6.50185">
        <ele>739</ele>
        <time>2020-07-05T00:07:58Z</time>
      </trkpt>
      <trkpt lat="43.83896" lon="6.50208">
        <ele>742</ele>
        <time>2020-07-05T00:08:01Z</time>
      </trkpt>
      <trkpt lat="43.83888" lon="6.50255">
        <ele>747</ele>
        <time>2020-07-05T00:08:08Z</time>
      </trkpt>
      <trkpt lat="43.83888" lon="6.50263">
        <ele>747</ele>
        <time>2020-07-05T00:08:09Z</time>
      </trkpt>
      <trkpt lat="43.83891" lon="6.5027">
        <ele>747</ele>
        <time>2020-07-05T00:08:10Z</time>
      </trkpt>
      <trkpt lat="43.83896" lon="6.50275">
        <ele>747</ele>
        <time>2020-07-05T00:08:11Z</time>
      </trkpt>
      <trkpt lat="43.83901" lon="6.50278">
        <ele>746</ele>
        <time>2020-07-05T00:08:12Z</time>
      </trkpt>
      <trkpt lat="43.83905" lon="6.50277">
        <ele>745</ele>
        <time>2020-07-05T00:08:12Z</time>
      </trkpt>
      <trkpt lat="43.83914" lon="6.50269">
        <ele>741</ele>
        <time>2020-07-05T00:08:14Z</time>
      </trkpt>
      <trkpt lat="43.83933" lon="6.50239">
        <ele>734</ele>
        <time>2020-07-05T00:08:19Z</time>
      </trkpt>
      <trkpt lat="43.83937" lon="6.50237">
        <ele>733</ele>
        <time>2020-07-05T00:08:20Z</time>
      </trkpt>
      <trkpt lat="43.83948" lon="6.5024">
        <ele>732</ele>
        <time>2020-07-05T00:08:22Z</time>
      </trkpt>
      <trkpt lat="43.83981" lon="6.50264">
        <ele>732</ele>
        <time>2020-07-05T00:08:29Z</time>
      </trkpt>
      <trkpt lat="43.84041" lon="6.50339">
        <ele>732</ele>
        <time>2020-07-05T00:08:43Z</time>
      </trkpt>
      <trkpt lat="43.84048" lon="6.50351">
        <ele>731</ele>
        <time>2020-07-05T00:08:45Z</time>
      </trkpt>
      <trkpt lat="43.84067" lon="6.5041">
        <ele>733</ele>
        <time>2020-07-05T00:08:54Z</time>
      </trkpt>
      <trkpt lat="43.841" lon="6.50496">
        <ele>729</ele>
        <time>2020-07-05T00:09:06Z</time>
      </trkpt>
      <trkpt lat="43.84103" lon="6.50517">
        <ele>728</ele>
        <time>2020-07-05T00:09:09Z</time>
      </trkpt>
      <trkpt lat="43.84102" lon="6.50526">
        <ele>729</ele>
        <time>2020-07-05T00:09:10Z</time>
      </trkpt>
      <trkpt lat="43.84093" lon="6.50547">
        <ele>730</ele>
        <time>2020-07-05T00:09:13Z</time>
      </trkpt>
      <trkpt lat="43.84091" lon="6.50555">
        <ele>730</ele>
        <time>2020-07-05T00:09:14Z</time>
      </trkpt>
      <trkpt lat="43.84092" lon="6.50564">
        <ele>730</ele>
        <time>2020-07-05T00:09:15Z</time>
      </trkpt>
      <trkpt lat="43.84094" lon="6.50574">
        <ele>730</ele>
        <time>2020-07-05T00:09:17Z</time>
      </trkpt>
      <trkpt lat="43.84099" lon="6.50585">
        <ele>729</ele>
        <time>2020-07-05T00:09:18Z</time>
      </trkpt>
      <trkpt lat="43.84106" lon="6.50595">
        <ele>729</ele>
        <time>2020-07-05T00:09:20Z</time>
      </trkpt>
      <trkpt lat="43.84128" lon="6.50617">
        <ele>728</ele>
        <time>2020-07-05T00:09:25Z</time>
      </trkpt>
      <trkpt lat="43.84132" lon="6.50626">
        <ele>729</ele>
        <time>2020-07-05T00:09:26Z</time>
      </trkpt>
      <trkpt lat="43.8415" lon="6.50678">
        <ele>730</ele>
        <time>2020-07-05T00:09:34Z</time>
      </trkpt>
      <trkpt lat="43.84168" lon="6.50719">
        <ele>729</ele>
        <time>2020-07-05T00:09:40Z</time>
      </trkpt>
      <trkpt lat="43.84172" lon="6.50733">
        <ele>730</ele>
        <time>2020-07-05T00:09:42Z</time>
      </trkpt>
      <trkpt lat="43.84179" lon="6.50765">
        <ele>732</ele>
        <time>2020-07-05T00:09:46Z</time>
      </trkpt>
      <trkpt lat="43.8419" lon="6.50798">
        <ele>734</ele>
        <time>2020-07-05T00:09:51Z</time>
      </trkpt>
      <trkpt lat="43.84212" lon="6.50844">
        <ele>736</ele>
        <time>2020-07-05T00:09:58Z</time>
      </trkpt>
      <trkpt lat="43.84229" lon="6.50868">
        <ele>738</ele>
        <time>2020-07-05T00:10:02Z</time>
      </trkpt>
      <trkpt lat="43.84249" lon="6.50883">
        <ele>737</ele>
        <time>2020-07-05T00:10:06Z</time>
      </trkpt>
      <trkpt lat="43.84286" lon="6.50901">
        <ele>736</ele>
        <time>2020-07-05T00:10:13Z</time>
      </trkpt>
      <trkpt lat="43.84302" lon="6.50909">
        <ele>735</ele>
        <time>2020-07-05T00:10:16Z</time>
      </trkpt>
      <trkpt lat="43.84328" lon="6.50925">
        <ele>733</ele>
        <time>2020-07-05T00:10:21Z</time>
      </trkpt>
      <trkpt lat="43.84341" lon="6.50941">
        <ele>735</ele>
        <time>2020-07-05T00:10:24Z</time>
      </trkpt>
      <trkpt lat="43.84384" lon="6.51027">
        <ele>741</ele>
        <time>2020-07-05T00:10:38Z</time>
      </trkpt>
      <trkpt lat="43.84391" lon="6.51043">
        <ele>741</ele>
        <time>2020-07-05T00:10:40Z</time>
      </trkpt>
      <trkpt lat="43.84405" lon="6.5109">
        <ele>740</ele>
        <time>2020-07-05T00:10:47Z</time>
      </trkpt>
      <trkpt lat="43.84429" lon="6.51226">
        <ele>741</ele>
        <time>2020-07-05T00:11:05Z</time>
      </trkpt>
      <trkpt lat="43.8444" lon="6.51272">
        <ele>741</ele>
        <time>2020-07-05T00:11:11Z</time>
      </trkpt>
      <trkpt lat="43.84447" lon="6.51312">
        <ele>741</ele>
        <time>2020-07-05T00:11:16Z</time>
      </trkpt>
      <trkpt lat="43.84467" lon="6.51383">
        <ele>738</ele>
        <time>2020-07-05T00:11:26Z</time>
      </trkpt>
      <trkpt lat="43.84477" lon="6.51413">
        <ele>736</ele>
        <time>2020-07-05T00:11:30Z</time>
      </trkpt>
      <trkpt lat="43.84493" lon="6.51467">
        <ele>734</ele>
        <time>2020-07-05T00:11:38Z</time>
      </trkpt>
      <trkpt lat="43.84497" lon="6.51488">
        <ele>733</ele>
        <time>2020-07-05T00:11:40Z</time>
      </trkpt>
      <trkpt lat="43.84507" lon="6.51499">
        <ele>732</ele>
        <time>2020-07-05T00:11:43Z</time>
      </trkpt>
      <trkpt lat="43.8451" lon="6.51503">
        <ele>732</ele>
        <time>2020-07-05T00:11:43Z</time>
      </trkpt>
      <trkpt lat="43.84512" lon="6.51493">
        <ele>731</ele>
        <time>2020-07-05T00:11:45Z</time>
      </trkpt>
      <trkpt lat="43.84514" lon="6.51487">
        <ele>731</ele>
        <time>2020-07-05T00:11:46Z</time>
      </trkpt>
      <trkpt lat="43.84517" lon="6.51477">
        <ele>730</ele>
        <time>2020-07-05T00:11:47Z</time>
      </trkpt>
      <trkpt lat="43.84529" lon="6.51458">
        <ele>728</ele>
        <time>2020-07-05T00:11:50Z</time>
      </trkpt>
      <trkpt lat="43.84536" lon="6.5145">
        <ele>728</ele>
        <time>2020-07-05T00:11:52Z</time>
      </trkpt>
      <trkpt lat="43.84541" lon="6.51445">
        <ele>727</ele>
        <time>2020-07-05T00:11:53Z</time>
      </trkpt>
      <trkpt lat="43.84571" lon="6.5141">
        <ele>725</ele>
        <time>2020-07-05T00:12:00Z</time>
      </trkpt>
      <trkpt lat="43.84574" lon="6.51406">
        <ele>724</ele>
        <time>2020-07-05T00:12:01Z</time>
      </trkpt>
      <trkpt lat="43.84575" lon="6.51403">
        <ele>724</ele>
        <time>2020-07-05T00:12:01Z</time>
      </trkpt>
      <trkpt lat="43.84576" lon="6.51398">
        <ele>724</ele>
        <time>2020-07-05T00:12:02Z</time>
      </trkpt>
      <trkpt lat="43.84579" lon="6.51389">
        <ele>724</ele>
        <time>2020-07-05T00:12:03Z</time>
      </trkpt>
      <trkpt lat="43.8458" lon="6.51379">
        <ele>724</ele>
        <time>2020-07-05T00:12:04Z</time>
      </trkpt>
      <trkpt lat="43.84585" lon="6.51357">
        <ele>723</ele>
        <time>2020-07-05T00:12:07Z</time>
      </trkpt>
      <trkpt lat="43.84587" lon="6.51341">
        <ele>723</ele>
        <time>2020-07-05T00:12:09Z</time>
      </trkpt>
      <trkpt lat="43.8459" lon="6.51325">
        <ele>724</ele>
        <time>2020-07-05T00:12:12Z</time>
      </trkpt>
      <trkpt lat="43.84591" lon="6.5132">
        <ele>724</ele>
        <time>2020-07-05T00:12:12Z</time>
      </trkpt>
      <trkpt lat="43.84599" lon="6.51277">
        <ele>725</ele>
        <time>2020-07-05T00:12:18Z</time>
      </trkpt>
      <trkpt lat="43.84603" lon="6.51269">
        <ele>725</ele>
        <time>2020-07-05T00:12:19Z</time>
      </trkpt>
      <trkpt lat="43.84611" lon="6.51261">
        <ele>725</ele>
        <time>2020-07-05T00:12:21Z</time>
      </trkpt>
      <trkpt lat="43.84613" lon="6.5126">
        <ele>726</ele>
        <time>2020-07-05T00:12:21Z</time>
      </trkpt>
      <trkpt lat="43.84615" lon="6.51259">
        <ele>726</ele>
        <time>2020-07-05T00:12:22Z</time>
      </trkpt>
      <trkpt lat="43.84616" lon="6.51257">
        <ele>726</ele>
        <time>2020-07-05T00:12:22Z</time>
      </trkpt>
      <trkpt lat="43.84621" lon="6.51257">
        <ele>726</ele>
        <time>2020-07-05T00:12:23Z</time>
      </trkpt>
      <trkpt lat="43.84642" lon="6.51254">
        <ele>726</ele>
        <time>2020-07-05T00:12:27Z</time>
      </trkpt>
      <trkpt lat="43.84649" lon="6.51255">
        <ele>727</ele>
        <time>2020-07-05T00:12:28Z</time>
      </trkpt>
      <trkpt lat="43.84656" lon="6.51256">
        <ele>727</ele>
        <time>2020-07-05T00:12:29Z</time>
      </trkpt>
      <trkpt lat="43.84663" lon="6.51035">
        <ele>723</ele>
        <time>2020-07-05T00:12:58Z</time>
      </trkpt>
      <trkpt lat="43.84731" lon="6.5104">
        <ele>725</ele>
        <time>2020-07-05T00:13:10Z</time>
      </trkpt>
      <trkpt lat="43.8473" lon="6.51043">
        <ele>725</ele>
        <time>2020-07-05T00:13:10Z</time>
      </trkpt>
      <trkpt lat="43.84732" lon="6.5105">
        <ele>725</ele>
        <time>2020-07-05T00:13:11Z</time>
      </trkpt>
      <trkpt lat="43.84735" lon="6.51052">
        <ele>725</ele>
        <time>2020-07-05T00:13:12Z</time>
      </trkpt>
    </trkseg>
  </trk>
</gpx>